<?xml version="1.0" encoding="UTF-8" standalone="yes"?>
<gpx
 xmlns="http://www.topografix.com/GPX/1/1"
 creator="OziExplorer Version 3956f - http://www.oziexplorer.com"
 version="1.1"
 xmlns:xsi="http://www.w3.org/2001/XMLSchema-instance"
 xsi:schemaLocation="http://www.topografix.com/GPX/1/1 http://www.topografix.com/GPX/1/1/gpx.xsd">
<metadata>
 <time>2025-05-22T17:07:11Z</time>
 <bounds minlat="31.735250" minlon="35.090230" maxlat="31.774010" maxlon="35.160670"/>
</metadata>
<wpt lat="31.7400500" lon="35.1420800">
 <time>2025-05-22T20:06:26.217Z</time>
 <name>Tatspit</name>
 <sym>Flag, Red</sym>
</wpt>
<wpt lat="31.7409300" lon="35.1469600">
 <time>2025-05-22T20:06:26.245Z</time>
 <name>Ein Itamar (Blad)</name>
 <sym>Flag, Red</sym>
</wpt>
<wpt lat="31.7691700" lon="35.1308400">
 <time>2025-05-22T20:06:26.250Z</time>
 <name>St\Fin</name>
 <sym>Bike Trail</sym>
</wpt>
<wpt lat="31.7491700" lon="35.1596100">
 <time>2025-05-22T20:06:26.254Z</time>
 <name>EinLavan</name>
 <sym>Flag, Red</sym>
</wpt>
<wpt lat="31.7490600" lon="35.1592600">
 <time>2025-05-22T20:06:26.260Z</time>
 <name>EinLavan</name>
 <sym>Flag, Red</sym>
</wpt>
<trk>
 <name>Sorek-Adasa-EinLavan-Aminadav_35km</name>
 <desc>Sorek-Adasa-EinLavan-Aminadav_35km</desc>
<trkseg>
<trkpt lat="31.7691800" lon="35.1306800">
<ele>474.479980</ele>
<time>2025-05-22T20:06:26.260Z</time>
</trkpt>
<trkpt lat="31.7691800" lon="35.1306800">
<ele>474.479980</ele>
<time>2025-05-22T20:06:26.260Z</time>
</trkpt>
<trkpt lat="31.7695400" lon="35.1307600">
<ele>476.229980</ele>
<time>2025-05-22T20:06:26.260Z</time>
</trkpt>
<trkpt lat="31.7696700" lon="35.1307500">
<ele>474.869995</ele>
<time>2025-05-22T20:06:26.260Z</time>
</trkpt>
<trkpt lat="31.7698400" lon="35.1306800">
<ele>474.689972</ele>
<time>2025-05-22T20:06:26.260Z</time>
</trkpt>
<trkpt lat="31.7698400" lon="35.1306800">
<ele>474.689972</ele>
<time>2025-05-22T20:06:26.260Z</time>
</trkpt>
<trkpt lat="31.7699200" lon="35.1306400">
<ele>475.649994</ele>
<time>2025-05-22T20:06:26.260Z</time>
</trkpt>
<trkpt lat="31.7703500" lon="35.1304500">
<ele>483.220001</ele>
<time>2025-05-22T20:06:26.260Z</time>
</trkpt>
<trkpt lat="31.7705100" lon="35.1304000">
<ele>484.889984</ele>
<time>2025-05-22T20:06:26.260Z</time>
</trkpt>
<trkpt lat="31.7705100" lon="35.1304000">
<ele>484.889984</ele>
<time>2025-05-22T20:06:26.260Z</time>
</trkpt>
<trkpt lat="31.7705100" lon="35.1304000">
<ele>484.889984</ele>
<time>2025-05-22T20:06:26.260Z</time>
</trkpt>
<trkpt lat="31.7708100" lon="35.1303100">
<ele>481.679993</ele>
<time>2025-05-22T20:06:26.260Z</time>
</trkpt>
<trkpt lat="31.7711400" lon="35.1302700">
<ele>488.810028</ele>
<time>2025-05-22T20:06:26.260Z</time>
</trkpt>
<trkpt lat="31.7712500" lon="35.1302600">
<ele>491.660004</ele>
<time>2025-05-22T20:06:26.260Z</time>
</trkpt>
<trkpt lat="31.7714500" lon="35.1303000">
<ele>494.240021</ele>
<time>2025-05-22T20:06:26.260Z</time>
</trkpt>
<trkpt lat="31.7716300" lon="35.1304200">
<ele>491.440002</ele>
<time>2025-05-22T20:06:26.260Z</time>
</trkpt>
<trkpt lat="31.7716800" lon="35.1304700">
<ele>490.690002</ele>
<time>2025-05-22T20:06:26.260Z</time>
</trkpt>
<trkpt lat="31.7717000" lon="35.1304900">
<ele>490.650024</ele>
<time>2025-05-22T20:06:26.260Z</time>
</trkpt>
<trkpt lat="31.7717700" lon="35.1305700">
<ele>490.290009</ele>
<time>2025-05-22T20:06:26.260Z</time>
</trkpt>
<trkpt lat="31.7718500" lon="35.1307200">
<ele>489.100006</ele>
<time>2025-05-22T20:06:26.260Z</time>
</trkpt>
<trkpt lat="31.7719100" lon="35.1308700">
<ele>487.489990</ele>
<time>2025-05-22T20:06:26.260Z</time>
</trkpt>
<trkpt lat="31.7719600" lon="35.1313200">
<ele>488.859985</ele>
<time>2025-05-22T20:06:26.260Z</time>
</trkpt>
<trkpt lat="31.7719800" lon="35.1316500">
<ele>488.070007</ele>
<time>2025-05-22T20:06:26.260Z</time>
</trkpt>
<trkpt lat="31.7719800" lon="35.1318600">
<ele>487.300018</ele>
<time>2025-05-22T20:06:26.260Z</time>
</trkpt>
<trkpt lat="31.7719900" lon="35.1320600">
<ele>486.930023</ele>
<time>2025-05-22T20:06:26.260Z</time>
</trkpt>
<trkpt lat="31.7720900" lon="35.1332300">
<ele>492.710022</ele>
<time>2025-05-22T20:06:26.260Z</time>
</trkpt>
<trkpt lat="31.7722300" lon="35.1341400">
<ele>494.750000</ele>
<time>2025-05-22T20:06:26.260Z</time>
</trkpt>
<trkpt lat="31.7722300" lon="35.1346200">
<ele>499.829987</ele>
<time>2025-05-22T20:06:26.260Z</time>
</trkpt>
<trkpt lat="31.7722200" lon="35.1348300">
<ele>501.000000</ele>
<time>2025-05-22T20:06:26.260Z</time>
</trkpt>
<trkpt lat="31.7722000" lon="35.1349400">
<ele>500.950012</ele>
<time>2025-05-22T20:06:26.260Z</time>
</trkpt>
<trkpt lat="31.7721400" lon="35.1350600">
<ele>500.700012</ele>
<time>2025-05-22T20:06:26.260Z</time>
</trkpt>
<trkpt lat="31.7720100" lon="35.1351000">
<ele>500.240021</ele>
<time>2025-05-22T20:06:26.260Z</time>
</trkpt>
<trkpt lat="31.7718700" lon="35.1351100">
<ele>500.700012</ele>
<time>2025-05-22T20:06:26.260Z</time>
</trkpt>
<trkpt lat="31.7717300" lon="35.1351000">
<ele>502.040009</ele>
<time>2025-05-22T20:06:26.260Z</time>
</trkpt>
<trkpt lat="31.7714800" lon="35.1350100">
<ele>506.199982</ele>
<time>2025-05-22T20:06:26.260Z</time>
</trkpt>
<trkpt lat="31.7712700" lon="35.1349800">
<ele>508.489990</ele>
<time>2025-05-22T20:06:26.260Z</time>
</trkpt>
<trkpt lat="31.7711800" lon="35.1349700">
<ele>508.809998</ele>
<time>2025-05-22T20:06:26.260Z</time>
</trkpt>
<trkpt lat="31.7711000" lon="35.1349800">
<ele>508.500000</ele>
<time>2025-05-22T20:06:26.260Z</time>
</trkpt>
<trkpt lat="31.7709900" lon="35.1350000">
<ele>507.130005</ele>
<time>2025-05-22T20:06:26.260Z</time>
</trkpt>
<trkpt lat="31.7707300" lon="35.1351900">
<ele>502.890015</ele>
<time>2025-05-22T20:06:26.260Z</time>
</trkpt>
<trkpt lat="31.7706200" lon="35.1353000">
<ele>500.950012</ele>
<time>2025-05-22T20:06:26.260Z</time>
</trkpt>
<trkpt lat="31.7705000" lon="35.1355300">
<ele>499.689972</ele>
<time>2025-05-22T20:06:26.260Z</time>
</trkpt>
<trkpt lat="31.7704400" lon="35.1357200">
<ele>499.929993</ele>
<time>2025-05-22T20:06:26.260Z</time>
</trkpt>
<trkpt lat="31.7704400" lon="35.1357200">
<ele>499.929993</ele>
<time>2025-05-22T20:06:26.260Z</time>
</trkpt>
<trkpt lat="31.7701100" lon="35.1366700">
<ele>496.009979</ele>
<time>2025-05-22T20:06:26.260Z</time>
</trkpt>
<trkpt lat="31.7701100" lon="35.1367400">
<ele>496.210022</ele>
<time>2025-05-22T20:06:26.260Z</time>
</trkpt>
<trkpt lat="31.7701200" lon="35.1369300">
<ele>496.819977</ele>
<time>2025-05-22T20:06:26.260Z</time>
</trkpt>
<trkpt lat="31.7701200" lon="35.1371000">
<ele>497.500000</ele>
<time>2025-05-22T20:06:26.260Z</time>
</trkpt>
<trkpt lat="31.7701400" lon="35.1374000">
<ele>496.730011</ele>
<time>2025-05-22T20:06:26.260Z</time>
</trkpt>
<trkpt lat="31.7701400" lon="35.1377200">
<ele>496.009979</ele>
<time>2025-05-22T20:06:26.260Z</time>
</trkpt>
<trkpt lat="31.7701300" lon="35.1378800">
<ele>496.109985</ele>
<time>2025-05-22T20:06:26.260Z</time>
</trkpt>
<trkpt lat="31.7701000" lon="35.1379700">
<ele>495.970001</ele>
<time>2025-05-22T20:06:26.260Z</time>
</trkpt>
<trkpt lat="31.7700300" lon="35.1380800">
<ele>495.700012</ele>
<time>2025-05-22T20:06:26.260Z</time>
</trkpt>
<trkpt lat="31.7699600" lon="35.1381400">
<ele>496.369995</ele>
<time>2025-05-22T20:06:26.260Z</time>
</trkpt>
<trkpt lat="31.7697200" lon="35.1383000">
<ele>497.880005</ele>
<time>2025-05-22T20:06:26.260Z</time>
</trkpt>
<trkpt lat="31.7693600" lon="35.1386000">
<ele>498.650024</ele>
<time>2025-05-22T20:06:26.260Z</time>
</trkpt>
<trkpt lat="31.7690800" lon="35.1389300">
<ele>502.410004</ele>
<time>2025-05-22T20:06:26.260Z</time>
</trkpt>
<trkpt lat="31.7690000" lon="35.1390400">
<ele>503.509979</ele>
<time>2025-05-22T20:06:26.260Z</time>
</trkpt>
<trkpt lat="31.7689500" lon="35.1391400">
<ele>503.809998</ele>
<time>2025-05-22T20:06:26.260Z</time>
</trkpt>
<trkpt lat="31.7688900" lon="35.1393400">
<ele>503.369995</ele>
<time>2025-05-22T20:06:26.260Z</time>
</trkpt>
<trkpt lat="31.7688700" lon="35.1396500">
<ele>503.499969</ele>
<time>2025-05-22T20:06:26.260Z</time>
</trkpt>
<trkpt lat="31.7688700" lon="35.1398800">
<ele>503.110016</ele>
<time>2025-05-22T20:06:26.260Z</time>
</trkpt>
<trkpt lat="31.7688700" lon="35.1403200">
<ele>502.750000</ele>
<time>2025-05-22T20:06:26.260Z</time>
</trkpt>
<trkpt lat="31.7688800" lon="35.1406200">
<ele>501.480011</ele>
<time>2025-05-22T20:06:26.260Z</time>
</trkpt>
<trkpt lat="31.7689200" lon="35.1414500">
<ele>501.799988</ele>
<time>2025-05-22T20:06:26.260Z</time>
</trkpt>
<trkpt lat="31.7689100" lon="35.1417500">
<ele>502.760010</ele>
<time>2025-05-22T20:06:26.260Z</time>
</trkpt>
<trkpt lat="31.7688900" lon="35.1423500">
<ele>507.940002</ele>
<time>2025-05-22T20:06:26.260Z</time>
</trkpt>
<trkpt lat="31.7688900" lon="35.1427400">
<ele>512.470032</ele>
<time>2025-05-22T20:06:26.260Z</time>
</trkpt>
<trkpt lat="31.7689000" lon="35.1428700">
<ele>514.700012</ele>
<time>2025-05-22T20:06:26.260Z</time>
</trkpt>
<trkpt lat="31.7689200" lon="35.1429700">
<ele>516.330017</ele>
<time>2025-05-22T20:06:26.260Z</time>
</trkpt>
<trkpt lat="31.7690700" lon="35.1432100">
<ele>514.739990</ele>
<time>2025-05-22T20:06:26.260Z</time>
</trkpt>
<trkpt lat="31.7692600" lon="35.1434000">
<ele>517.349976</ele>
<time>2025-05-22T20:06:26.260Z</time>
</trkpt>
<trkpt lat="31.7697100" lon="35.1436600">
<ele>530.510010</ele>
<time>2025-05-22T20:06:26.260Z</time>
</trkpt>
<trkpt lat="31.7706300" lon="35.1441200">
<ele>527.609985</ele>
<time>2025-05-22T20:06:26.260Z</time>
</trkpt>
<trkpt lat="31.7710300" lon="35.1444000">
<ele>516.840027</ele>
<time>2025-05-22T20:06:26.260Z</time>
</trkpt>
<trkpt lat="31.7712800" lon="35.1446300">
<ele>516.619995</ele>
<time>2025-05-22T20:06:26.260Z</time>
</trkpt>
<trkpt lat="31.7713600" lon="35.1447400">
<ele>515.789978</ele>
<time>2025-05-22T20:06:26.260Z</time>
</trkpt>
<trkpt lat="31.7714200" lon="35.1448700">
<ele>515.770020</ele>
<time>2025-05-22T20:06:26.260Z</time>
</trkpt>
<trkpt lat="31.7714400" lon="35.1449500">
<ele>515.559998</ele>
<time>2025-05-22T20:06:26.260Z</time>
</trkpt>
<trkpt lat="31.7714900" lon="35.1453900">
<ele>513.880005</ele>
<time>2025-05-22T20:06:26.260Z</time>
</trkpt>
<trkpt lat="31.7715000" lon="35.1456600">
<ele>514.650024</ele>
<time>2025-05-22T20:06:26.260Z</time>
</trkpt>
<trkpt lat="31.7715900" lon="35.1462600">
<ele>516.380005</ele>
<time>2025-05-22T20:06:26.260Z</time>
</trkpt>
<trkpt lat="31.7717000" lon="35.1465600">
<ele>516.869995</ele>
<time>2025-05-22T20:06:26.260Z</time>
</trkpt>
<trkpt lat="31.7717900" lon="35.1467400">
<ele>517.910034</ele>
<time>2025-05-22T20:06:26.260Z</time>
</trkpt>
<trkpt lat="31.7719200" lon="35.1469400">
<ele>517.359985</ele>
<time>2025-05-22T20:06:26.260Z</time>
</trkpt>
<trkpt lat="31.7720900" lon="35.1471400">
<ele>519.890015</ele>
<time>2025-05-22T20:06:26.260Z</time>
</trkpt>
<trkpt lat="31.7729600" lon="35.1479600">
<ele>518.340027</ele>
<time>2025-05-22T20:06:26.260Z</time>
</trkpt>
<trkpt lat="31.7733600" lon="35.1483200">
<ele>521.700012</ele>
<time>2025-05-22T20:06:26.260Z</time>
</trkpt>
<trkpt lat="31.7734200" lon="35.1483700">
<ele>521.989990</ele>
<time>2025-05-22T20:06:26.260Z</time>
</trkpt>
<trkpt lat="31.7734800" lon="35.1484900">
<ele>521.090027</ele>
<time>2025-05-22T20:06:26.260Z</time>
</trkpt>
<trkpt lat="31.7735400" lon="35.1486700">
<ele>519.450012</ele>
<time>2025-05-22T20:06:26.260Z</time>
</trkpt>
<trkpt lat="31.7736700" lon="35.1495400">
<ele>517.839966</ele>
<time>2025-05-22T20:06:26.260Z</time>
</trkpt>
<trkpt lat="31.7737100" lon="35.1496400">
<ele>518.669983</ele>
<time>2025-05-22T20:06:26.260Z</time>
</trkpt>
<trkpt lat="31.7737700" lon="35.1497400">
<ele>519.720032</ele>
<time>2025-05-22T20:06:26.260Z</time>
</trkpt>
<trkpt lat="31.7739600" lon="35.1500500">
<ele>521.760010</ele>
<time>2025-05-22T20:06:26.260Z</time>
</trkpt>
<trkpt lat="31.7740100" lon="35.1502000">
<ele>521.929993</ele>
<time>2025-05-22T20:06:26.260Z</time>
</trkpt>
<trkpt lat="31.7740100" lon="35.1502700">
<ele>521.649963</ele>
<time>2025-05-22T20:06:26.260Z</time>
</trkpt>
<trkpt lat="31.7740100" lon="35.1503100">
<ele>521.619995</ele>
<time>2025-05-22T20:06:26.260Z</time>
</trkpt>
<trkpt lat="31.7740000" lon="35.1503600">
<ele>521.399963</ele>
<time>2025-05-22T20:06:26.260Z</time>
</trkpt>
<trkpt lat="31.7739400" lon="35.1504200">
<ele>520.100037</ele>
<time>2025-05-22T20:06:26.260Z</time>
</trkpt>
<trkpt lat="31.7737700" lon="35.1505700">
<ele>516.929993</ele>
<time>2025-05-22T20:06:26.260Z</time>
</trkpt>
<trkpt lat="31.7736600" lon="35.1507000">
<ele>515.829956</ele>
<time>2025-05-22T20:06:26.260Z</time>
</trkpt>
<trkpt lat="31.7736000" lon="35.1508000">
<ele>515.770020</ele>
<time>2025-05-22T20:06:26.260Z</time>
</trkpt>
<trkpt lat="31.7735900" lon="35.1509200">
<ele>516.890015</ele>
<time>2025-05-22T20:06:26.260Z</time>
</trkpt>
<trkpt lat="31.7735800" lon="35.1510700">
<ele>518.369995</ele>
<time>2025-05-22T20:06:26.260Z</time>
</trkpt>
<trkpt lat="31.7735800" lon="35.1512800">
<ele>519.989990</ele>
<time>2025-05-22T20:06:26.260Z</time>
</trkpt>
<trkpt lat="31.7735800" lon="35.1515000">
<ele>520.869995</ele>
<time>2025-05-22T20:06:26.260Z</time>
</trkpt>
<trkpt lat="31.7735700" lon="35.1515600">
<ele>520.890015</ele>
<time>2025-05-22T20:06:26.260Z</time>
</trkpt>
<trkpt lat="31.7735700" lon="35.1520700">
<ele>519.830017</ele>
<time>2025-05-22T20:06:26.260Z</time>
</trkpt>
<trkpt lat="31.7735500" lon="35.1522600">
<ele>520.359985</ele>
<time>2025-05-22T20:06:26.260Z</time>
</trkpt>
<trkpt lat="31.7734900" lon="35.1524300">
<ele>520.780029</ele>
<time>2025-05-22T20:06:26.260Z</time>
</trkpt>
<trkpt lat="31.7734000" lon="35.1526300">
<ele>520.969971</ele>
<time>2025-05-22T20:06:26.260Z</time>
</trkpt>
<trkpt lat="31.7733100" lon="35.1528700">
<ele>519.970032</ele>
<time>2025-05-22T20:06:26.260Z</time>
</trkpt>
<trkpt lat="31.7732200" lon="35.1530300">
<ele>519.630005</ele>
<time>2025-05-22T20:06:26.260Z</time>
</trkpt>
<trkpt lat="31.7728500" lon="35.1534300">
<ele>518.520020</ele>
<time>2025-05-22T20:06:26.260Z</time>
</trkpt>
<trkpt lat="31.7724900" lon="35.1536400">
<ele>519.190002</ele>
<time>2025-05-22T20:06:26.260Z</time>
</trkpt>
<trkpt lat="31.7722500" lon="35.1536700">
<ele>519.479980</ele>
<time>2025-05-22T20:06:26.260Z</time>
</trkpt>
<trkpt lat="31.7712600" lon="35.1536800">
<ele>536.190002</ele>
<time>2025-05-22T20:06:26.260Z</time>
</trkpt>
<trkpt lat="31.7709100" lon="35.1536900">
<ele>536.349976</ele>
<time>2025-05-22T20:06:26.260Z</time>
</trkpt>
<trkpt lat="31.7704200" lon="35.1537600">
<ele>534.230042</ele>
<time>2025-05-22T20:06:26.260Z</time>
</trkpt>
<trkpt lat="31.7699100" lon="35.1539800">
<ele>541.190002</ele>
<time>2025-05-22T20:06:26.260Z</time>
</trkpt>
<trkpt lat="31.7698900" lon="35.1539400">
<ele>541.720032</ele>
<time>2025-05-22T20:06:26.260Z</time>
</trkpt>
<trkpt lat="31.7698800" lon="35.1538300">
<ele>542.489990</ele>
<time>2025-05-22T20:06:26.260Z</time>
</trkpt>
<trkpt lat="31.7698800" lon="35.1536300">
<ele>543.619995</ele>
<time>2025-05-22T20:06:26.260Z</time>
</trkpt>
<trkpt lat="31.7698900" lon="35.1535200">
<ele>543.710022</ele>
<time>2025-05-22T20:06:26.260Z</time>
</trkpt>
<trkpt lat="31.7699000" lon="35.1534400">
<ele>543.659973</ele>
<time>2025-05-22T20:06:26.260Z</time>
</trkpt>
<trkpt lat="31.7699500" lon="35.1533200">
<ele>543.029968</ele>
<time>2025-05-22T20:06:26.260Z</time>
</trkpt>
<trkpt lat="31.7700100" lon="35.1532300">
<ele>543.049988</ele>
<time>2025-05-22T20:06:26.260Z</time>
</trkpt>
<trkpt lat="31.7700100" lon="35.1532300">
<ele>543.049988</ele>
<time>2025-05-22T20:06:26.260Z</time>
</trkpt>
<trkpt lat="31.7700100" lon="35.1532200">
<ele>543.159973</ele>
<time>2025-05-22T20:06:26.260Z</time>
</trkpt>
<trkpt lat="31.7700200" lon="35.1532100">
<ele>543.210022</ele>
<time>2025-05-22T20:06:26.260Z</time>
</trkpt>
<trkpt lat="31.7700900" lon="35.1531000">
<ele>544.359985</ele>
<time>2025-05-22T20:06:26.260Z</time>
</trkpt>
<trkpt lat="31.7701200" lon="35.1530800">
<ele>544.619995</ele>
<time>2025-05-22T20:06:26.260Z</time>
</trkpt>
<trkpt lat="31.7700000" lon="35.1529100">
<ele>545.520020</ele>
<time>2025-05-22T20:06:26.260Z</time>
</trkpt>
<trkpt lat="31.7698700" lon="35.1528400">
<ele>546.450012</ele>
<time>2025-05-22T20:06:26.260Z</time>
</trkpt>
<trkpt lat="31.7700500" lon="35.1526700">
<ele>547.109985</ele>
<time>2025-05-22T20:06:26.260Z</time>
</trkpt>
<trkpt lat="31.7700900" lon="35.1526000">
<ele>547.940002</ele>
<time>2025-05-22T20:06:26.260Z</time>
</trkpt>
<trkpt lat="31.7703700" lon="35.1523200">
<ele>554.869995</ele>
<time>2025-05-22T20:06:26.260Z</time>
</trkpt>
<trkpt lat="31.7705200" lon="35.1520900">
<ele>559.190002</ele>
<time>2025-05-22T20:06:26.260Z</time>
</trkpt>
<trkpt lat="31.7709800" lon="35.1519800">
<ele>560.040039</ele>
<time>2025-05-22T20:06:26.260Z</time>
</trkpt>
<trkpt lat="31.7712800" lon="35.1518400">
<ele>563.820007</ele>
<time>2025-05-22T20:06:26.260Z</time>
</trkpt>
<trkpt lat="31.7713600" lon="35.1517500">
<ele>563.919983</ele>
<time>2025-05-22T20:06:26.260Z</time>
</trkpt>
<trkpt lat="31.7713700" lon="35.1516600">
<ele>564.299988</ele>
<time>2025-05-22T20:06:26.260Z</time>
</trkpt>
<trkpt lat="31.7713700" lon="35.1516200">
<ele>564.840027</ele>
<time>2025-05-22T20:06:26.260Z</time>
</trkpt>
<trkpt lat="31.7713300" lon="35.1515600">
<ele>565.929993</ele>
<time>2025-05-22T20:06:26.260Z</time>
</trkpt>
<trkpt lat="31.7710800" lon="35.1514800">
<ele>567.489990</ele>
<time>2025-05-22T20:06:26.260Z</time>
</trkpt>
<trkpt lat="31.7710500" lon="35.1514400">
<ele>567.609985</ele>
<time>2025-05-22T20:06:26.260Z</time>
</trkpt>
<trkpt lat="31.7710500" lon="35.1514400">
<ele>567.609985</ele>
<time>2025-05-22T20:06:26.260Z</time>
</trkpt>
<trkpt lat="31.7710100" lon="35.1513900">
<ele>567.989990</ele>
<time>2025-05-22T20:06:26.260Z</time>
</trkpt>
<trkpt lat="31.7709700" lon="35.1512800">
<ele>569.179993</ele>
<time>2025-05-22T20:06:26.260Z</time>
</trkpt>
<trkpt lat="31.7709800" lon="35.1509800">
<ele>573.109985</ele>
<time>2025-05-22T20:06:26.260Z</time>
</trkpt>
<trkpt lat="31.7709800" lon="35.1509700">
<ele>573.270020</ele>
<time>2025-05-22T20:06:26.260Z</time>
</trkpt>
<trkpt lat="31.7709700" lon="35.1509700">
<ele>573.289978</ele>
<time>2025-05-22T20:06:26.260Z</time>
</trkpt>
<trkpt lat="31.7709500" lon="35.1508500">
<ele>575.309998</ele>
<time>2025-05-22T20:06:26.260Z</time>
</trkpt>
<trkpt lat="31.7709000" lon="35.1507500">
<ele>577.119995</ele>
<time>2025-05-22T20:06:26.260Z</time>
</trkpt>
<trkpt lat="31.7708200" lon="35.1506500">
<ele>579.220032</ele>
<time>2025-05-22T20:06:26.260Z</time>
</trkpt>
<trkpt lat="31.7707600" lon="35.1506200">
<ele>579.369995</ele>
<time>2025-05-22T20:06:26.260Z</time>
</trkpt>
<trkpt lat="31.7706900" lon="35.1506100">
<ele>579.090027</ele>
<time>2025-05-22T20:06:26.260Z</time>
</trkpt>
<trkpt lat="31.7705200" lon="35.1506500">
<ele>577.729980</ele>
<time>2025-05-22T20:06:26.260Z</time>
</trkpt>
<trkpt lat="31.7704700" lon="35.1503800">
<ele>579.630005</ele>
<time>2025-05-22T20:06:26.260Z</time>
</trkpt>
<trkpt lat="31.7704600" lon="35.1500900">
<ele>580.469971</ele>
<time>2025-05-22T20:06:26.260Z</time>
</trkpt>
<trkpt lat="31.7704100" lon="35.1500300">
<ele>580.929993</ele>
<time>2025-05-22T20:06:26.260Z</time>
</trkpt>
<trkpt lat="31.7704200" lon="35.1499600">
<ele>580.980042</ele>
<time>2025-05-22T20:06:26.260Z</time>
</trkpt>
<trkpt lat="31.7704300" lon="35.1498800">
<ele>580.899963</ele>
<time>2025-05-22T20:06:26.260Z</time>
</trkpt>
<trkpt lat="31.7704200" lon="35.1498300">
<ele>580.980042</ele>
<time>2025-05-22T20:06:26.260Z</time>
</trkpt>
<trkpt lat="31.7704000" lon="35.1497900">
<ele>581.119995</ele>
<time>2025-05-22T20:06:26.260Z</time>
</trkpt>
<trkpt lat="31.7703500" lon="35.1497600">
<ele>581.479980</ele>
<time>2025-05-22T20:06:26.260Z</time>
</trkpt>
<trkpt lat="31.7702400" lon="35.1495500">
<ele>581.679993</ele>
<time>2025-05-22T20:06:26.260Z</time>
</trkpt>
<trkpt lat="31.7699800" lon="35.1490000">
<ele>584.650024</ele>
<time>2025-05-22T20:06:26.260Z</time>
</trkpt>
<trkpt lat="31.7699600" lon="35.1484300">
<ele>584.809998</ele>
<time>2025-05-22T20:06:26.260Z</time>
</trkpt>
<trkpt lat="31.7699700" lon="35.1480900">
<ele>586.410034</ele>
<time>2025-05-22T20:06:26.260Z</time>
</trkpt>
<trkpt lat="31.7699500" lon="35.1476400">
<ele>588.260010</ele>
<time>2025-05-22T20:06:26.260Z</time>
</trkpt>
<trkpt lat="31.7699000" lon="35.1474000">
<ele>589.390015</ele>
<time>2025-05-22T20:06:26.260Z</time>
</trkpt>
<trkpt lat="31.7697700" lon="35.1470400">
<ele>592.510010</ele>
<time>2025-05-22T20:06:26.260Z</time>
</trkpt>
<trkpt lat="31.7696600" lon="35.1469100">
<ele>594.580017</ele>
<time>2025-05-22T20:06:26.260Z</time>
</trkpt>
<trkpt lat="31.7696700" lon="35.1469000">
<ele>594.229980</ele>
<time>2025-05-22T20:06:26.260Z</time>
</trkpt>
<trkpt lat="31.7695300" lon="35.1467400">
<ele>595.309998</ele>
<time>2025-05-22T20:06:26.260Z</time>
</trkpt>
<trkpt lat="31.7688800" lon="35.1458500">
<ele>598.309998</ele>
<time>2025-05-22T20:06:26.260Z</time>
</trkpt>
<trkpt lat="31.7687500" lon="35.1457200">
<ele>596.140015</ele>
<time>2025-05-22T20:06:26.260Z</time>
</trkpt>
<trkpt lat="31.7684400" lon="35.1454900">
<ele>592.969971</ele>
<time>2025-05-22T20:06:26.260Z</time>
</trkpt>
<trkpt lat="31.7682400" lon="35.1453600">
<ele>592.150024</ele>
<time>2025-05-22T20:06:26.260Z</time>
</trkpt>
<trkpt lat="31.7677300" lon="35.1451700">
<ele>592.950012</ele>
<time>2025-05-22T20:06:26.260Z</time>
</trkpt>
<trkpt lat="31.7673500" lon="35.1450100">
<ele>598.140015</ele>
<time>2025-05-22T20:06:26.260Z</time>
</trkpt>
<trkpt lat="31.7669200" lon="35.1447300">
<ele>598.919983</ele>
<time>2025-05-22T20:06:26.260Z</time>
</trkpt>
<trkpt lat="31.7667000" lon="35.1444400">
<ele>595.029968</ele>
<time>2025-05-22T20:06:26.260Z</time>
</trkpt>
<trkpt lat="31.7665000" lon="35.1441600">
<ele>593.340027</ele>
<time>2025-05-22T20:06:26.260Z</time>
</trkpt>
<trkpt lat="31.7664800" lon="35.1440600">
<ele>593.149963</ele>
<time>2025-05-22T20:06:26.260Z</time>
</trkpt>
<trkpt lat="31.7664800" lon="35.1438300">
<ele>592.000000</ele>
<time>2025-05-22T20:06:26.260Z</time>
</trkpt>
<trkpt lat="31.7664600" lon="35.1433000">
<ele>594.429993</ele>
<time>2025-05-22T20:06:26.260Z</time>
</trkpt>
<trkpt lat="31.7664700" lon="35.1421700">
<ele>595.589966</ele>
<time>2025-05-22T20:06:26.260Z</time>
</trkpt>
<trkpt lat="31.7665200" lon="35.1416300">
<ele>597.160034</ele>
<time>2025-05-22T20:06:26.260Z</time>
</trkpt>
<trkpt lat="31.7668200" lon="35.1406700">
<ele>600.450012</ele>
<time>2025-05-22T20:06:26.260Z</time>
</trkpt>
<trkpt lat="31.7668300" lon="35.1404400">
<ele>598.809998</ele>
<time>2025-05-22T20:06:26.260Z</time>
</trkpt>
<trkpt lat="31.7668300" lon="35.1402000">
<ele>597.840027</ele>
<time>2025-05-22T20:06:26.260Z</time>
</trkpt>
<trkpt lat="31.7667100" lon="35.1395400">
<ele>600.419983</ele>
<time>2025-05-22T20:06:26.260Z</time>
</trkpt>
<trkpt lat="31.7664200" lon="35.1390200">
<ele>597.570007</ele>
<time>2025-05-22T20:06:26.260Z</time>
</trkpt>
<trkpt lat="31.7662700" lon="35.1388900">
<ele>595.450012</ele>
<time>2025-05-22T20:06:26.260Z</time>
</trkpt>
<trkpt lat="31.7657200" lon="35.1387800">
<ele>594.190002</ele>
<time>2025-05-22T20:06:26.260Z</time>
</trkpt>
<trkpt lat="31.7651800" lon="35.1388000">
<ele>584.589966</ele>
<time>2025-05-22T20:06:26.260Z</time>
</trkpt>
<trkpt lat="31.7645400" lon="35.1388800">
<ele>573.530029</ele>
<time>2025-05-22T20:06:26.260Z</time>
</trkpt>
<trkpt lat="31.7643500" lon="35.1389200">
<ele>574.679993</ele>
<time>2025-05-22T20:06:26.260Z</time>
</trkpt>
<trkpt lat="31.7640600" lon="35.1389800">
<ele>578.429993</ele>
<time>2025-05-22T20:06:26.260Z</time>
</trkpt>
<trkpt lat="31.7635500" lon="35.1390200">
<ele>578.109985</ele>
<time>2025-05-22T20:06:26.260Z</time>
</trkpt>
<trkpt lat="31.7635300" lon="35.1390900">
<ele>578.940002</ele>
<time>2025-05-22T20:06:26.260Z</time>
</trkpt>
<trkpt lat="31.7634200" lon="35.1391400">
<ele>578.489990</ele>
<time>2025-05-22T20:06:26.260Z</time>
</trkpt>
<trkpt lat="31.7631800" lon="35.1391700">
<ele>580.789978</ele>
<time>2025-05-22T20:06:26.260Z</time>
</trkpt>
<trkpt lat="31.7626700" lon="35.1393800">
<ele>580.320007</ele>
<time>2025-05-22T20:06:26.260Z</time>
</trkpt>
<trkpt lat="31.7625500" lon="35.1394800">
<ele>581.580017</ele>
<time>2025-05-22T20:06:26.260Z</time>
</trkpt>
<trkpt lat="31.7624600" lon="35.1396000">
<ele>584.140015</ele>
<time>2025-05-22T20:06:26.260Z</time>
</trkpt>
<trkpt lat="31.7624100" lon="35.1397500">
<ele>586.869995</ele>
<time>2025-05-22T20:06:26.260Z</time>
</trkpt>
<trkpt lat="31.7623900" lon="35.1399600">
<ele>589.929993</ele>
<time>2025-05-22T20:06:26.260Z</time>
</trkpt>
<trkpt lat="31.7624000" lon="35.1402000">
<ele>592.020020</ele>
<time>2025-05-22T20:06:26.260Z</time>
</trkpt>
<trkpt lat="31.7626700" lon="35.1425700">
<ele>610.109985</ele>
<time>2025-05-22T20:06:26.260Z</time>
</trkpt>
<trkpt lat="31.7627200" lon="35.1428400">
<ele>613.590027</ele>
<time>2025-05-22T20:06:26.260Z</time>
</trkpt>
<trkpt lat="31.7627500" lon="35.1430100">
<ele>615.919983</ele>
<time>2025-05-22T20:06:26.260Z</time>
</trkpt>
<trkpt lat="31.7628600" lon="35.1433900">
<ele>620.159973</ele>
<time>2025-05-22T20:06:26.260Z</time>
</trkpt>
<trkpt lat="31.7635800" lon="35.1448700">
<ele>633.669983</ele>
<time>2025-05-22T20:06:26.260Z</time>
</trkpt>
<trkpt lat="31.7636400" lon="35.1449400">
<ele>635.150024</ele>
<time>2025-05-22T20:06:26.260Z</time>
</trkpt>
<trkpt lat="31.7636900" lon="35.1449900">
<ele>636.609985</ele>
<time>2025-05-22T20:06:26.260Z</time>
</trkpt>
<trkpt lat="31.7637000" lon="35.1450900">
<ele>638.110046</ele>
<time>2025-05-22T20:06:26.260Z</time>
</trkpt>
<trkpt lat="31.7637200" lon="35.1452100">
<ele>640.080017</ele>
<time>2025-05-22T20:06:26.260Z</time>
</trkpt>
<trkpt lat="31.7637400" lon="35.1452500">
<ele>640.969971</ele>
<time>2025-05-22T20:06:26.260Z</time>
</trkpt>
<trkpt lat="31.7637900" lon="35.1454600">
<ele>642.690002</ele>
<time>2025-05-22T20:06:26.260Z</time>
</trkpt>
<trkpt lat="31.7638300" lon="35.1456300">
<ele>643.419983</ele>
<time>2025-05-22T20:06:26.260Z</time>
</trkpt>
<trkpt lat="31.7638400" lon="35.1457000">
<ele>643.559998</ele>
<time>2025-05-22T20:06:26.260Z</time>
</trkpt>
<trkpt lat="31.7638500" lon="35.1457900">
<ele>643.700012</ele>
<time>2025-05-22T20:06:26.260Z</time>
</trkpt>
<trkpt lat="31.7638600" lon="35.1459500">
<ele>644.260010</ele>
<time>2025-05-22T20:06:26.260Z</time>
</trkpt>
<trkpt lat="31.7638600" lon="35.1461900">
<ele>645.970032</ele>
<time>2025-05-22T20:06:26.260Z</time>
</trkpt>
<trkpt lat="31.7638500" lon="35.1462600">
<ele>646.849976</ele>
<time>2025-05-22T20:06:26.260Z</time>
</trkpt>
<trkpt lat="31.7638400" lon="35.1463400">
<ele>647.830017</ele>
<time>2025-05-22T20:06:26.260Z</time>
</trkpt>
<trkpt lat="31.7638100" lon="35.1465000">
<ele>650.889954</ele>
<time>2025-05-22T20:06:26.260Z</time>
</trkpt>
<trkpt lat="31.7637600" lon="35.1467500">
<ele>654.970032</ele>
<time>2025-05-22T20:06:26.260Z</time>
</trkpt>
<trkpt lat="31.7637000" lon="35.1469000">
<ele>655.299988</ele>
<time>2025-05-22T20:06:26.260Z</time>
</trkpt>
<trkpt lat="31.7634800" lon="35.1475300">
<ele>655.500000</ele>
<time>2025-05-22T20:06:26.260Z</time>
</trkpt>
<trkpt lat="31.7633600" lon="35.1478100">
<ele>653.300049</ele>
<time>2025-05-22T20:06:26.260Z</time>
</trkpt>
<trkpt lat="31.7633400" lon="35.1478000">
<ele>652.479980</ele>
<time>2025-05-22T20:06:26.260Z</time>
</trkpt>
<trkpt lat="31.7631700" lon="35.1481900">
<ele>654.079956</ele>
<time>2025-05-22T20:06:26.260Z</time>
</trkpt>
<trkpt lat="31.7629700" lon="35.1486000">
<ele>659.739990</ele>
<time>2025-05-22T20:06:26.260Z</time>
</trkpt>
<trkpt lat="31.7629000" lon="35.1487300">
<ele>663.200012</ele>
<time>2025-05-22T20:06:26.260Z</time>
</trkpt>
<trkpt lat="31.7627900" lon="35.1489300">
<ele>667.270020</ele>
<time>2025-05-22T20:06:26.260Z</time>
</trkpt>
<trkpt lat="31.7627500" lon="35.1489500">
<ele>667.979980</ele>
<time>2025-05-22T20:06:26.260Z</time>
</trkpt>
<trkpt lat="31.7626500" lon="35.1489300">
<ele>669.729980</ele>
<time>2025-05-22T20:06:26.260Z</time>
</trkpt>
<trkpt lat="31.7626300" lon="35.1489100">
<ele>669.889954</ele>
<time>2025-05-22T20:06:26.260Z</time>
</trkpt>
<trkpt lat="31.7625100" lon="35.1488100">
<ele>670.669983</ele>
<time>2025-05-22T20:06:26.260Z</time>
</trkpt>
<trkpt lat="31.7622700" lon="35.1485100">
<ele>673.169983</ele>
<time>2025-05-22T20:06:26.260Z</time>
</trkpt>
<trkpt lat="31.7619800" lon="35.1480900">
<ele>673.619995</ele>
<time>2025-05-22T20:06:26.260Z</time>
</trkpt>
<trkpt lat="31.7618000" lon="35.1474200">
<ele>672.750000</ele>
<time>2025-05-22T20:06:26.260Z</time>
</trkpt>
<trkpt lat="31.7616600" lon="35.1469400">
<ele>674.020020</ele>
<time>2025-05-22T20:06:26.260Z</time>
</trkpt>
<trkpt lat="31.7615000" lon="35.1467500">
<ele>675.480042</ele>
<time>2025-05-22T20:06:26.260Z</time>
</trkpt>
<trkpt lat="31.7613600" lon="35.1466300">
<ele>677.280029</ele>
<time>2025-05-22T20:06:26.260Z</time>
</trkpt>
<trkpt lat="31.7611200" lon="35.1465400">
<ele>676.080017</ele>
<time>2025-05-22T20:06:26.260Z</time>
</trkpt>
<trkpt lat="31.7608400" lon="35.1465600">
<ele>671.730042</ele>
<time>2025-05-22T20:06:26.260Z</time>
</trkpt>
<trkpt lat="31.7604200" lon="35.1467300">
<ele>663.799988</ele>
<time>2025-05-22T20:06:26.260Z</time>
</trkpt>
<trkpt lat="31.7600500" lon="35.1469000">
<ele>661.640015</ele>
<time>2025-05-22T20:06:26.260Z</time>
</trkpt>
<trkpt lat="31.7600500" lon="35.1469000">
<ele>661.640015</ele>
<time>2025-05-22T20:06:26.260Z</time>
</trkpt>
<trkpt lat="31.7597000" lon="35.1470600">
<ele>655.100037</ele>
<time>2025-05-22T20:06:26.260Z</time>
</trkpt>
<trkpt lat="31.7594500" lon="35.1471300">
<ele>652.399963</ele>
<time>2025-05-22T20:06:26.260Z</time>
</trkpt>
<trkpt lat="31.7591700" lon="35.1471600">
<ele>661.860046</ele>
<time>2025-05-22T20:06:26.260Z</time>
</trkpt>
<trkpt lat="31.7588800" lon="35.1471200">
<ele>669.779968</ele>
<time>2025-05-22T20:06:26.260Z</time>
</trkpt>
<trkpt lat="31.7587300" lon="35.1470200">
<ele>668.150024</ele>
<time>2025-05-22T20:06:26.260Z</time>
</trkpt>
<trkpt lat="31.7586200" lon="35.1470200">
<ele>668.509949</ele>
<time>2025-05-22T20:06:26.260Z</time>
</trkpt>
<trkpt lat="31.7586100" lon="35.1471600">
<ele>669.570007</ele>
<time>2025-05-22T20:06:26.260Z</time>
</trkpt>
<trkpt lat="31.7585100" lon="35.1472300">
<ele>671.549988</ele>
<time>2025-05-22T20:06:26.260Z</time>
</trkpt>
<trkpt lat="31.7585100" lon="35.1472400">
<ele>671.679993</ele>
<time>2025-05-22T20:06:26.260Z</time>
</trkpt>
<trkpt lat="31.7582600" lon="35.1474100">
<ele>672.980042</ele>
<time>2025-05-22T20:06:26.260Z</time>
</trkpt>
<trkpt lat="31.7581400" lon="35.1474500">
<ele>672.679993</ele>
<time>2025-05-22T20:06:26.260Z</time>
</trkpt>
<trkpt lat="31.7579900" lon="35.1474200">
<ele>671.600037</ele>
<time>2025-05-22T20:06:26.260Z</time>
</trkpt>
<trkpt lat="31.7579600" lon="35.1473700">
<ele>671.190002</ele>
<time>2025-05-22T20:06:26.260Z</time>
</trkpt>
<trkpt lat="31.7579600" lon="35.1472800">
<ele>670.880005</ele>
<time>2025-05-22T20:06:26.260Z</time>
</trkpt>
<trkpt lat="31.7579600" lon="35.1471900">
<ele>670.959961</ele>
<time>2025-05-22T20:06:26.260Z</time>
</trkpt>
<trkpt lat="31.7579800" lon="35.1471100">
<ele>671.459961</ele>
<time>2025-05-22T20:06:26.260Z</time>
</trkpt>
<trkpt lat="31.7579900" lon="35.1470800">
<ele>671.620056</ele>
<time>2025-05-22T20:06:26.260Z</time>
</trkpt>
<trkpt lat="31.7582300" lon="35.1465700">
<ele>674.700012</ele>
<time>2025-05-22T20:06:26.260Z</time>
</trkpt>
<trkpt lat="31.7585500" lon="35.1459100">
<ele>673.589966</ele>
<time>2025-05-22T20:06:26.260Z</time>
</trkpt>
<trkpt lat="31.7586800" lon="35.1456900">
<ele>672.239990</ele>
<time>2025-05-22T20:06:26.260Z</time>
</trkpt>
<trkpt lat="31.7591900" lon="35.1449700">
<ele>668.369995</ele>
<time>2025-05-22T20:06:26.260Z</time>
</trkpt>
<trkpt lat="31.7592200" lon="35.1449100">
<ele>667.719971</ele>
<time>2025-05-22T20:06:26.260Z</time>
</trkpt>
<trkpt lat="31.7592900" lon="35.1447000">
<ele>667.049988</ele>
<time>2025-05-22T20:06:26.260Z</time>
</trkpt>
<trkpt lat="31.7597900" lon="35.1431700">
<ele>663.209961</ele>
<time>2025-05-22T20:06:26.260Z</time>
</trkpt>
<trkpt lat="31.7600400" lon="35.1424700">
<ele>662.440002</ele>
<time>2025-05-22T20:06:26.260Z</time>
</trkpt>
<trkpt lat="31.7600800" lon="35.1422500">
<ele>661.570007</ele>
<time>2025-05-22T20:06:26.260Z</time>
</trkpt>
<trkpt lat="31.7600900" lon="35.1419400">
<ele>663.790039</ele>
<time>2025-05-22T20:06:26.260Z</time>
</trkpt>
<trkpt lat="31.7600900" lon="35.1416300">
<ele>663.440002</ele>
<time>2025-05-22T20:06:26.260Z</time>
</trkpt>
<trkpt lat="31.7600800" lon="35.1415300">
<ele>662.989990</ele>
<time>2025-05-22T20:06:26.260Z</time>
</trkpt>
<trkpt lat="31.7600100" lon="35.1413800">
<ele>665.299988</ele>
<time>2025-05-22T20:06:26.260Z</time>
</trkpt>
<trkpt lat="31.7597200" lon="35.1409200">
<ele>665.590027</ele>
<time>2025-05-22T20:06:26.260Z</time>
</trkpt>
<trkpt lat="31.7596600" lon="35.1407900">
<ele>664.080017</ele>
<time>2025-05-22T20:06:26.260Z</time>
</trkpt>
<trkpt lat="31.7595900" lon="35.1405100">
<ele>661.489990</ele>
<time>2025-05-22T20:06:26.260Z</time>
</trkpt>
<trkpt lat="31.7595000" lon="35.1403000">
<ele>661.180054</ele>
<time>2025-05-22T20:06:26.260Z</time>
</trkpt>
<trkpt lat="31.7594400" lon="35.1401900">
<ele>661.429993</ele>
<time>2025-05-22T20:06:26.260Z</time>
</trkpt>
<trkpt lat="31.7593000" lon="35.1400400">
<ele>661.919983</ele>
<time>2025-05-22T20:06:26.260Z</time>
</trkpt>
<trkpt lat="31.7592000" lon="35.1399800">
<ele>662.330017</ele>
<time>2025-05-22T20:06:26.260Z</time>
</trkpt>
<trkpt lat="31.7591300" lon="35.1399400">
<ele>662.269958</ele>
<time>2025-05-22T20:06:26.260Z</time>
</trkpt>
<trkpt lat="31.7583600" lon="35.1397800">
<ele>658.919983</ele>
<time>2025-05-22T20:06:26.260Z</time>
</trkpt>
<trkpt lat="31.7583700" lon="35.1397700">
<ele>658.710022</ele>
<time>2025-05-22T20:06:26.260Z</time>
</trkpt>
<trkpt lat="31.7583200" lon="35.1397600">
<ele>658.690002</ele>
<time>2025-05-22T20:06:26.260Z</time>
</trkpt>
<trkpt lat="31.7582100" lon="35.1397100">
<ele>657.840027</ele>
<time>2025-05-22T20:06:26.260Z</time>
</trkpt>
<trkpt lat="31.7581700" lon="35.1396500">
<ele>657.110046</ele>
<time>2025-05-22T20:06:26.260Z</time>
</trkpt>
<trkpt lat="31.7581500" lon="35.1395500">
<ele>655.929993</ele>
<time>2025-05-22T20:06:26.260Z</time>
</trkpt>
<trkpt lat="31.7581900" lon="35.1394000">
<ele>654.440002</ele>
<time>2025-05-22T20:06:26.260Z</time>
</trkpt>
<trkpt lat="31.7584900" lon="35.1388600">
<ele>652.789978</ele>
<time>2025-05-22T20:06:26.260Z</time>
</trkpt>
<trkpt lat="31.7586100" lon="35.1386400">
<ele>649.340027</ele>
<time>2025-05-22T20:06:26.260Z</time>
</trkpt>
<trkpt lat="31.7587000" lon="35.1383600">
<ele>646.559998</ele>
<time>2025-05-22T20:06:26.260Z</time>
</trkpt>
<trkpt lat="31.7587300" lon="35.1381900">
<ele>645.859985</ele>
<time>2025-05-22T20:06:26.260Z</time>
</trkpt>
<trkpt lat="31.7587600" lon="35.1377400">
<ele>647.510010</ele>
<time>2025-05-22T20:06:26.260Z</time>
</trkpt>
<trkpt lat="31.7587000" lon="35.1373300">
<ele>649.659973</ele>
<time>2025-05-22T20:06:26.260Z</time>
</trkpt>
<trkpt lat="31.7585200" lon="35.1368900">
<ele>653.260010</ele>
<time>2025-05-22T20:06:26.260Z</time>
</trkpt>
<trkpt lat="31.7583000" lon="35.1364200">
<ele>660.320007</ele>
<time>2025-05-22T20:06:26.260Z</time>
</trkpt>
<trkpt lat="31.7580200" lon="35.1358700">
<ele>661.919983</ele>
<time>2025-05-22T20:06:26.260Z</time>
</trkpt>
<trkpt lat="31.7579300" lon="35.1357400">
<ele>660.909973</ele>
<time>2025-05-22T20:06:26.260Z</time>
</trkpt>
<trkpt lat="31.7577500" lon="35.1355800">
<ele>661.190002</ele>
<time>2025-05-22T20:06:26.260Z</time>
</trkpt>
<trkpt lat="31.7575700" lon="35.1354200">
<ele>655.479980</ele>
<time>2025-05-22T20:06:26.260Z</time>
</trkpt>
<trkpt lat="31.7574200" lon="35.1353700">
<ele>651.169983</ele>
<time>2025-05-22T20:06:26.260Z</time>
</trkpt>
<trkpt lat="31.7573200" lon="35.1353700">
<ele>648.890015</ele>
<time>2025-05-22T20:06:26.260Z</time>
</trkpt>
<trkpt lat="31.7571300" lon="35.1353900">
<ele>643.949951</ele>
<time>2025-05-22T20:06:26.260Z</time>
</trkpt>
<trkpt lat="31.7567900" lon="35.1354700">
<ele>639.990051</ele>
<time>2025-05-22T20:06:26.260Z</time>
</trkpt>
<trkpt lat="31.7561200" lon="35.1356100">
<ele>651.550049</ele>
<time>2025-05-22T20:06:26.260Z</time>
</trkpt>
<trkpt lat="31.7559700" lon="35.1355800">
<ele>653.709961</ele>
<time>2025-05-22T20:06:26.260Z</time>
</trkpt>
<trkpt lat="31.7559100" lon="35.1354700">
<ele>654.790039</ele>
<time>2025-05-22T20:06:26.260Z</time>
</trkpt>
<trkpt lat="31.7558500" lon="35.1353200">
<ele>655.799988</ele>
<time>2025-05-22T20:06:26.260Z</time>
</trkpt>
<trkpt lat="31.7558500" lon="35.1349700">
<ele>661.180054</ele>
<time>2025-05-22T20:06:26.260Z</time>
</trkpt>
<trkpt lat="31.7558500" lon="35.1349700">
<ele>661.180054</ele>
<time>2025-05-22T20:06:26.260Z</time>
</trkpt>
<trkpt lat="31.7558400" lon="35.1347600">
<ele>663.480042</ele>
<time>2025-05-22T20:06:26.260Z</time>
</trkpt>
<trkpt lat="31.7557900" lon="35.1345700">
<ele>663.790039</ele>
<time>2025-05-22T20:06:26.260Z</time>
</trkpt>
<trkpt lat="31.7557300" lon="35.1344700">
<ele>663.900024</ele>
<time>2025-05-22T20:06:26.260Z</time>
</trkpt>
<trkpt lat="31.7556200" lon="35.1343400">
<ele>664.890015</ele>
<time>2025-05-22T20:06:26.260Z</time>
</trkpt>
<trkpt lat="31.7551900" lon="35.1339700">
<ele>674.479980</ele>
<time>2025-05-22T20:06:26.260Z</time>
</trkpt>
<trkpt lat="31.7551100" lon="35.1339100">
<ele>676.630005</ele>
<time>2025-05-22T20:06:26.260Z</time>
</trkpt>
<trkpt lat="31.7550100" lon="35.1337500">
<ele>677.270020</ele>
<time>2025-05-22T20:06:26.260Z</time>
</trkpt>
<trkpt lat="31.7548500" lon="35.1334100">
<ele>675.260010</ele>
<time>2025-05-22T20:06:26.260Z</time>
</trkpt>
<trkpt lat="31.7547000" lon="35.1327400">
<ele>677.549988</ele>
<time>2025-05-22T20:06:26.260Z</time>
</trkpt>
<trkpt lat="31.7546500" lon="35.1326500">
<ele>678.880005</ele>
<time>2025-05-22T20:06:26.260Z</time>
</trkpt>
<trkpt lat="31.7545000" lon="35.1324500">
<ele>681.900024</ele>
<time>2025-05-22T20:06:26.260Z</time>
</trkpt>
<trkpt lat="31.7544200" lon="35.1323800">
<ele>682.039978</ele>
<time>2025-05-22T20:06:26.260Z</time>
</trkpt>
<trkpt lat="31.7542500" lon="35.1322800">
<ele>682.400024</ele>
<time>2025-05-22T20:06:26.260Z</time>
</trkpt>
<trkpt lat="31.7539600" lon="35.1321700">
<ele>688.389954</ele>
<time>2025-05-22T20:06:26.260Z</time>
</trkpt>
<trkpt lat="31.7530400" lon="35.1318400">
<ele>702.700012</ele>
<time>2025-05-22T20:06:26.260Z</time>
</trkpt>
<trkpt lat="31.7528200" lon="35.1317800">
<ele>706.760010</ele>
<time>2025-05-22T20:06:26.260Z</time>
</trkpt>
<trkpt lat="31.7522100" lon="35.1316700">
<ele>700.079956</ele>
<time>2025-05-22T20:06:26.260Z</time>
</trkpt>
<trkpt lat="31.7521000" lon="35.1316100">
<ele>699.910034</ele>
<time>2025-05-22T20:06:26.260Z</time>
</trkpt>
<trkpt lat="31.7520800" lon="35.1315600">
<ele>699.799988</ele>
<time>2025-05-22T20:06:26.260Z</time>
</trkpt>
<trkpt lat="31.7520800" lon="35.1315100">
<ele>699.710022</ele>
<time>2025-05-22T20:06:26.260Z</time>
</trkpt>
<trkpt lat="31.7520800" lon="35.1314000">
<ele>699.509949</ele>
<time>2025-05-22T20:06:26.260Z</time>
</trkpt>
<trkpt lat="31.7521100" lon="35.1311700">
<ele>701.640015</ele>
<time>2025-05-22T20:06:26.260Z</time>
</trkpt>
<trkpt lat="31.7522100" lon="35.1305300">
<ele>706.739990</ele>
<time>2025-05-22T20:06:26.260Z</time>
</trkpt>
<trkpt lat="31.7522400" lon="35.1304100">
<ele>705.990051</ele>
<time>2025-05-22T20:06:26.260Z</time>
</trkpt>
<trkpt lat="31.7525300" lon="35.1299800">
<ele>710.830017</ele>
<time>2025-05-22T20:06:26.260Z</time>
</trkpt>
<trkpt lat="31.7527400" lon="35.1294700">
<ele>713.669983</ele>
<time>2025-05-22T20:06:26.260Z</time>
</trkpt>
<trkpt lat="31.7527400" lon="35.1292000">
<ele>718.230042</ele>
<time>2025-05-22T20:06:26.260Z</time>
</trkpt>
<trkpt lat="31.7527400" lon="35.1291100">
<ele>719.359985</ele>
<time>2025-05-22T20:06:26.260Z</time>
</trkpt>
<trkpt lat="31.7527100" lon="35.1290200">
<ele>720.200012</ele>
<time>2025-05-22T20:06:26.260Z</time>
</trkpt>
<trkpt lat="31.7526400" lon="35.1288400">
<ele>721.809998</ele>
<time>2025-05-22T20:06:26.260Z</time>
</trkpt>
<trkpt lat="31.7525600" lon="35.1287000">
<ele>722.659973</ele>
<time>2025-05-22T20:06:26.260Z</time>
</trkpt>
<trkpt lat="31.7524000" lon="35.1286100">
<ele>725.070007</ele>
<time>2025-05-22T20:06:26.260Z</time>
</trkpt>
<trkpt lat="31.7523200" lon="35.1285800">
<ele>725.789978</ele>
<time>2025-05-22T20:06:26.260Z</time>
</trkpt>
<trkpt lat="31.7520400" lon="35.1285700">
<ele>728.630005</ele>
<time>2025-05-22T20:06:26.260Z</time>
</trkpt>
<trkpt lat="31.7518600" lon="35.1285500">
<ele>729.469971</ele>
<time>2025-05-22T20:06:26.260Z</time>
</trkpt>
<trkpt lat="31.7518200" lon="35.1285400">
<ele>729.460022</ele>
<time>2025-05-22T20:06:26.260Z</time>
</trkpt>
<trkpt lat="31.7515000" lon="35.1283900">
<ele>731.369995</ele>
<time>2025-05-22T20:06:26.260Z</time>
</trkpt>
<trkpt lat="31.7512700" lon="35.1282100">
<ele>732.400024</ele>
<time>2025-05-22T20:06:26.260Z</time>
</trkpt>
<trkpt lat="31.7510200" lon="35.1280600">
<ele>732.380005</ele>
<time>2025-05-22T20:06:26.260Z</time>
</trkpt>
<trkpt lat="31.7506900" lon="35.1278000">
<ele>726.119995</ele>
<time>2025-05-22T20:06:26.260Z</time>
</trkpt>
<trkpt lat="31.7506300" lon="35.1278000">
<ele>725.619995</ele>
<time>2025-05-22T20:06:26.260Z</time>
</trkpt>
<trkpt lat="31.7505600" lon="35.1278100">
<ele>725.040039</ele>
<time>2025-05-22T20:06:26.260Z</time>
</trkpt>
<trkpt lat="31.7505100" lon="35.1278500">
<ele>724.509949</ele>
<time>2025-05-22T20:06:26.260Z</time>
</trkpt>
<trkpt lat="31.7504700" lon="35.1279400">
<ele>724.080017</ele>
<time>2025-05-22T20:06:26.260Z</time>
</trkpt>
<trkpt lat="31.7503400" lon="35.1284400">
<ele>725.839966</ele>
<time>2025-05-22T20:06:26.260Z</time>
</trkpt>
<trkpt lat="31.7501800" lon="35.1287200">
<ele>725.630005</ele>
<time>2025-05-22T20:06:26.260Z</time>
</trkpt>
<trkpt lat="31.7500500" lon="35.1290200">
<ele>726.790039</ele>
<time>2025-05-22T20:06:26.260Z</time>
</trkpt>
<trkpt lat="31.7498800" lon="35.1295200">
<ele>729.719971</ele>
<time>2025-05-22T20:06:26.260Z</time>
</trkpt>
<trkpt lat="31.7498400" lon="35.1297900">
<ele>729.500000</ele>
<time>2025-05-22T20:06:26.260Z</time>
</trkpt>
<trkpt lat="31.7497300" lon="35.1302600">
<ele>727.109985</ele>
<time>2025-05-22T20:06:26.260Z</time>
</trkpt>
<trkpt lat="31.7496800" lon="35.1303500">
<ele>726.469971</ele>
<time>2025-05-22T20:06:26.260Z</time>
</trkpt>
<trkpt lat="31.7492800" lon="35.1307100">
<ele>723.179993</ele>
<time>2025-05-22T20:06:26.260Z</time>
</trkpt>
<trkpt lat="31.7489900" lon="35.1309300">
<ele>723.660034</ele>
<time>2025-05-22T20:06:26.260Z</time>
</trkpt>
<trkpt lat="31.7488300" lon="35.1310700">
<ele>726.200012</ele>
<time>2025-05-22T20:06:26.260Z</time>
</trkpt>
<trkpt lat="31.7485700" lon="35.1313000">
<ele>727.329956</ele>
<time>2025-05-22T20:06:26.260Z</time>
</trkpt>
<trkpt lat="31.7479800" lon="35.1317400">
<ele>724.700012</ele>
<time>2025-05-22T20:06:26.260Z</time>
</trkpt>
<trkpt lat="31.7478900" lon="35.1318200">
<ele>725.869934</ele>
<time>2025-05-22T20:06:26.260Z</time>
</trkpt>
<trkpt lat="31.7476100" lon="35.1320600">
<ele>726.710022</ele>
<time>2025-05-22T20:06:26.260Z</time>
</trkpt>
<trkpt lat="31.7475300" lon="35.1320900">
<ele>725.630005</ele>
<time>2025-05-22T20:06:26.260Z</time>
</trkpt>
<trkpt lat="31.7474000" lon="35.1320800">
<ele>724.050049</ele>
<time>2025-05-22T20:06:26.260Z</time>
</trkpt>
<trkpt lat="31.7471700" lon="35.1317900">
<ele>715.380066</ele>
<time>2025-05-22T20:06:26.260Z</time>
</trkpt>
<trkpt lat="31.7468200" lon="35.1317800">
<ele>711.409973</ele>
<time>2025-05-22T20:06:26.260Z</time>
</trkpt>
<trkpt lat="31.7464900" lon="35.1318700">
<ele>710.950012</ele>
<time>2025-05-22T20:06:26.260Z</time>
</trkpt>
<trkpt lat="31.7464200" lon="35.1319200">
<ele>711.600037</ele>
<time>2025-05-22T20:06:26.260Z</time>
</trkpt>
<trkpt lat="31.7459300" lon="35.1323700">
<ele>712.289978</ele>
<time>2025-05-22T20:06:26.260Z</time>
</trkpt>
<trkpt lat="31.7458500" lon="35.1329700">
<ele>718.869995</ele>
<time>2025-05-22T20:06:26.260Z</time>
</trkpt>
<trkpt lat="31.7458300" lon="35.1330200">
<ele>719.440002</ele>
<time>2025-05-22T20:06:26.260Z</time>
</trkpt>
<trkpt lat="31.7457100" lon="35.1338200">
<ele>721.890015</ele>
<time>2025-05-22T20:06:26.260Z</time>
</trkpt>
<trkpt lat="31.7457000" lon="35.1341400">
<ele>722.109985</ele>
<time>2025-05-22T20:06:26.260Z</time>
</trkpt>
<trkpt lat="31.7457100" lon="35.1343600">
<ele>722.759949</ele>
<time>2025-05-22T20:06:26.260Z</time>
</trkpt>
<trkpt lat="31.7457700" lon="35.1347400">
<ele>724.789978</ele>
<time>2025-05-22T20:06:26.260Z</time>
</trkpt>
<trkpt lat="31.7458400" lon="35.1349500">
<ele>724.690002</ele>
<time>2025-05-22T20:06:26.260Z</time>
</trkpt>
<trkpt lat="31.7460000" lon="35.1354600">
<ele>724.140015</ele>
<time>2025-05-22T20:06:26.260Z</time>
</trkpt>
<trkpt lat="31.7460000" lon="35.1355000">
<ele>724.080017</ele>
<time>2025-05-22T20:06:26.260Z</time>
</trkpt>
<trkpt lat="31.7460000" lon="35.1356000">
<ele>724.639954</ele>
<time>2025-05-22T20:06:26.260Z</time>
</trkpt>
<trkpt lat="31.7459800" lon="35.1356500">
<ele>724.639954</ele>
<time>2025-05-22T20:06:26.260Z</time>
</trkpt>
<trkpt lat="31.7459200" lon="35.1356800">
<ele>722.909973</ele>
<time>2025-05-22T20:06:26.260Z</time>
</trkpt>
<trkpt lat="31.7457700" lon="35.1356800">
<ele>718.470032</ele>
<time>2025-05-22T20:06:26.260Z</time>
</trkpt>
<trkpt lat="31.7454100" lon="35.1356900">
<ele>711.600037</ele>
<time>2025-05-22T20:06:26.260Z</time>
</trkpt>
<trkpt lat="31.7450700" lon="35.1356800">
<ele>711.250000</ele>
<time>2025-05-22T20:06:26.260Z</time>
</trkpt>
<trkpt lat="31.7447900" lon="35.1356600">
<ele>712.269958</ele>
<time>2025-05-22T20:06:26.260Z</time>
</trkpt>
<trkpt lat="31.7447700" lon="35.1356800">
<ele>712.930054</ele>
<time>2025-05-22T20:06:26.260Z</time>
</trkpt>
<trkpt lat="31.7446300" lon="35.1356700">
<ele>711.089966</ele>
<time>2025-05-22T20:06:26.260Z</time>
</trkpt>
<trkpt lat="31.7439700" lon="35.1356300">
<ele>711.719971</ele>
<time>2025-05-22T20:06:26.260Z</time>
</trkpt>
<trkpt lat="31.7434500" lon="35.1355600">
<ele>714.650024</ele>
<time>2025-05-22T20:06:26.260Z</time>
</trkpt>
<trkpt lat="31.7428300" lon="35.1354400">
<ele>726.770020</ele>
<time>2025-05-22T20:06:26.260Z</time>
</trkpt>
<trkpt lat="31.7423200" lon="35.1353500">
<ele>735.000000</ele>
<time>2025-05-22T20:06:26.260Z</time>
</trkpt>
<trkpt lat="31.7420000" lon="35.1353100">
<ele>738.809998</ele>
<time>2025-05-22T20:06:26.260Z</time>
</trkpt>
<trkpt lat="31.7413700" lon="35.1352700">
<ele>729.309998</ele>
<time>2025-05-22T20:06:26.260Z</time>
</trkpt>
<trkpt lat="31.7411300" lon="35.1352500">
<ele>735.190002</ele>
<time>2025-05-22T20:06:26.260Z</time>
</trkpt>
<trkpt lat="31.7409200" lon="35.1352300">
<ele>736.730042</ele>
<time>2025-05-22T20:06:26.260Z</time>
</trkpt>
<trkpt lat="31.7408000" lon="35.1352300">
<ele>737.349976</ele>
<time>2025-05-22T20:06:26.260Z</time>
</trkpt>
<trkpt lat="31.7407400" lon="35.1352300">
<ele>736.849976</ele>
<time>2025-05-22T20:06:26.260Z</time>
</trkpt>
<trkpt lat="31.7406300" lon="35.1353900">
<ele>738.530029</ele>
<time>2025-05-22T20:06:26.260Z</time>
</trkpt>
<trkpt lat="31.7405400" lon="35.1356700">
<ele>740.960022</ele>
<time>2025-05-22T20:06:26.260Z</time>
</trkpt>
<trkpt lat="31.7405400" lon="35.1359700">
<ele>744.140015</ele>
<time>2025-05-22T20:06:26.260Z</time>
</trkpt>
<trkpt lat="31.7406000" lon="35.1363000">
<ele>745.680054</ele>
<time>2025-05-22T20:06:26.260Z</time>
</trkpt>
<trkpt lat="31.7408000" lon="35.1364500">
<ele>744.619995</ele>
<time>2025-05-22T20:06:26.260Z</time>
</trkpt>
<trkpt lat="31.7410500" lon="35.1364600">
<ele>750.380005</ele>
<time>2025-05-22T20:06:26.260Z</time>
</trkpt>
<trkpt lat="31.7413700" lon="35.1365400">
<ele>757.090027</ele>
<time>2025-05-22T20:06:26.260Z</time>
</trkpt>
<trkpt lat="31.7418400" lon="35.1368400">
<ele>759.949951</ele>
<time>2025-05-22T20:06:26.260Z</time>
</trkpt>
<trkpt lat="31.7419600" lon="35.1369500">
<ele>763.110046</ele>
<time>2025-05-22T20:06:26.260Z</time>
</trkpt>
<trkpt lat="31.7422400" lon="35.1373100">
<ele>768.039978</ele>
<time>2025-05-22T20:06:26.260Z</time>
</trkpt>
<trkpt lat="31.7424700" lon="35.1375300">
<ele>773.770020</ele>
<time>2025-05-22T20:06:26.260Z</time>
</trkpt>
<trkpt lat="31.7426900" lon="35.1377700">
<ele>780.719971</ele>
<time>2025-05-22T20:06:26.260Z</time>
</trkpt>
<trkpt lat="31.7428700" lon="35.1379300">
<ele>780.390015</ele>
<time>2025-05-22T20:06:26.260Z</time>
</trkpt>
<trkpt lat="31.7434300" lon="35.1383700">
<ele>778.250000</ele>
<time>2025-05-22T20:06:26.260Z</time>
</trkpt>
<trkpt lat="31.7435400" lon="35.1384800">
<ele>776.220032</ele>
<time>2025-05-22T20:06:26.260Z</time>
</trkpt>
<trkpt lat="31.7438100" lon="35.1388500">
<ele>772.709961</ele>
<time>2025-05-22T20:06:26.260Z</time>
</trkpt>
<trkpt lat="31.7438600" lon="35.1389700">
<ele>773.119995</ele>
<time>2025-05-22T20:06:26.260Z</time>
</trkpt>
<trkpt lat="31.7438600" lon="35.1390400">
<ele>773.489990</ele>
<time>2025-05-22T20:06:26.260Z</time>
</trkpt>
<trkpt lat="31.7438500" lon="35.1391400">
<ele>773.760010</ele>
<time>2025-05-22T20:06:26.260Z</time>
</trkpt>
<trkpt lat="31.7438500" lon="35.1392000">
<ele>773.859985</ele>
<time>2025-05-22T20:06:26.260Z</time>
</trkpt>
<trkpt lat="31.7436700" lon="35.1394300">
<ele>767.950012</ele>
<time>2025-05-22T20:06:26.260Z</time>
</trkpt>
<trkpt lat="31.7435300" lon="35.1396600">
<ele>765.510010</ele>
<time>2025-05-22T20:06:26.260Z</time>
</trkpt>
<trkpt lat="31.7432900" lon="35.1399400">
<ele>763.040039</ele>
<time>2025-05-22T20:06:26.260Z</time>
</trkpt>
<trkpt lat="31.7430300" lon="35.1402000">
<ele>764.160034</ele>
<time>2025-05-22T20:06:26.260Z</time>
</trkpt>
<trkpt lat="31.7429800" lon="35.1402400">
<ele>764.589966</ele>
<time>2025-05-22T20:06:26.260Z</time>
</trkpt>
<trkpt lat="31.7427700" lon="35.1404300">
<ele>766.610046</ele>
<time>2025-05-22T20:06:26.260Z</time>
</trkpt>
<trkpt lat="31.7424100" lon="35.1408400">
<ele>769.119995</ele>
<time>2025-05-22T20:06:26.260Z</time>
</trkpt>
<trkpt lat="31.7418100" lon="35.1412200">
<ele>772.170044</ele>
<time>2025-05-22T20:06:26.260Z</time>
</trkpt>
<trkpt lat="31.7417500" lon="35.1413000">
<ele>772.599976</ele>
<time>2025-05-22T20:06:26.260Z</time>
</trkpt>
<trkpt lat="31.7416600" lon="35.1414700">
<ele>772.989990</ele>
<time>2025-05-22T20:06:26.260Z</time>
</trkpt>
<trkpt lat="31.7416300" lon="35.1416100">
<ele>772.889954</ele>
<time>2025-05-22T20:06:26.260Z</time>
</trkpt>
<trkpt lat="31.7416100" lon="35.1417300">
<ele>772.209961</ele>
<time>2025-05-22T20:06:26.260Z</time>
</trkpt>
<trkpt lat="31.7416100" lon="35.1417300">
<ele>772.209961</ele>
<time>2025-05-22T20:06:26.260Z</time>
</trkpt>
<trkpt lat="31.7416100" lon="35.1417300">
<ele>772.209961</ele>
<time>2025-05-22T20:06:26.260Z</time>
</trkpt>
<trkpt lat="31.7416100" lon="35.1417800">
<ele>771.739990</ele>
<time>2025-05-22T20:06:26.260Z</time>
</trkpt>
<trkpt lat="31.7416500" lon="35.1420500">
<ele>769.660034</ele>
<time>2025-05-22T20:06:26.260Z</time>
</trkpt>
<trkpt lat="31.7414600" lon="35.1420500">
<ele>770.080017</ele>
<time>2025-05-22T20:06:26.260Z</time>
</trkpt>
<trkpt lat="31.7412800" lon="35.1421000">
<ele>769.049988</ele>
<time>2025-05-22T20:06:26.260Z</time>
</trkpt>
<trkpt lat="31.7409400" lon="35.1422300">
<ele>763.469971</ele>
<time>2025-05-22T20:06:26.260Z</time>
</trkpt>
<trkpt lat="31.7406500" lon="35.1422500">
<ele>760.740051</ele>
<time>2025-05-22T20:06:26.260Z</time>
</trkpt>
<trkpt lat="31.7401800" lon="35.1422000">
<ele>763.000000</ele>
<time>2025-05-22T20:06:26.260Z</time>
</trkpt>
<trkpt lat="31.7400900" lon="35.1421200">
<ele>764.059998</ele>
<time>2025-05-22T20:06:26.260Z</time>
</trkpt>
<trkpt lat="31.7400900" lon="35.1421200">
<ele>764.059998</ele>
<time>2025-05-22T20:06:26.260Z</time>
</trkpt>
<trkpt lat="31.7401800" lon="35.1422000">
<ele>763.000000</ele>
<time>2025-05-22T20:06:26.260Z</time>
</trkpt>
<trkpt lat="31.7406500" lon="35.1422500">
<ele>760.740051</ele>
<time>2025-05-22T20:06:26.260Z</time>
</trkpt>
<trkpt lat="31.7409400" lon="35.1422300">
<ele>763.469971</ele>
<time>2025-05-22T20:06:26.260Z</time>
</trkpt>
<trkpt lat="31.7412800" lon="35.1421000">
<ele>769.049988</ele>
<time>2025-05-22T20:06:26.260Z</time>
</trkpt>
<trkpt lat="31.7414600" lon="35.1420500">
<ele>770.080017</ele>
<time>2025-05-22T20:06:26.260Z</time>
</trkpt>
<trkpt lat="31.7416500" lon="35.1420500">
<ele>769.660034</ele>
<time>2025-05-22T20:06:26.260Z</time>
</trkpt>
<trkpt lat="31.7417800" lon="35.1421300">
<ele>769.740051</ele>
<time>2025-05-22T20:06:26.260Z</time>
</trkpt>
<trkpt lat="31.7419400" lon="35.1421300">
<ele>770.309998</ele>
<time>2025-05-22T20:06:26.260Z</time>
</trkpt>
<trkpt lat="31.7419400" lon="35.1421100">
<ele>770.600037</ele>
<time>2025-05-22T20:06:26.260Z</time>
</trkpt>
<trkpt lat="31.7419400" lon="35.1421100">
<ele>770.600037</ele>
<time>2025-05-22T20:06:26.260Z</time>
</trkpt>
<trkpt lat="31.7419400" lon="35.1421100">
<ele>770.600037</ele>
<time>2025-05-22T20:06:26.260Z</time>
</trkpt>
<trkpt lat="31.7426100" lon="35.1419800">
<ele>770.840027</ele>
<time>2025-05-22T20:06:26.260Z</time>
</trkpt>
<trkpt lat="31.7429700" lon="35.1420000">
<ele>777.030029</ele>
<time>2025-05-22T20:06:26.260Z</time>
</trkpt>
<trkpt lat="31.7429800" lon="35.1420900">
<ele>775.460022</ele>
<time>2025-05-22T20:06:26.260Z</time>
</trkpt>
<trkpt lat="31.7430300" lon="35.1423300">
<ele>772.989990</ele>
<time>2025-05-22T20:06:26.260Z</time>
</trkpt>
<trkpt lat="31.7430300" lon="35.1424700">
<ele>771.340027</ele>
<time>2025-05-22T20:06:26.260Z</time>
</trkpt>
<trkpt lat="31.7430200" lon="35.1426100">
<ele>770.640015</ele>
<time>2025-05-22T20:06:26.260Z</time>
</trkpt>
<trkpt lat="31.7430100" lon="35.1428500">
<ele>769.969971</ele>
<time>2025-05-22T20:06:26.260Z</time>
</trkpt>
<trkpt lat="31.7430000" lon="35.1430700">
<ele>768.399963</ele>
<time>2025-05-22T20:06:26.260Z</time>
</trkpt>
<trkpt lat="31.7430000" lon="35.1433000">
<ele>768.399963</ele>
<time>2025-05-22T20:06:26.260Z</time>
</trkpt>
<trkpt lat="31.7430400" lon="35.1435300">
<ele>766.020020</ele>
<time>2025-05-22T20:06:26.260Z</time>
</trkpt>
<trkpt lat="31.7431400" lon="35.1436600">
<ele>763.480042</ele>
<time>2025-05-22T20:06:26.260Z</time>
</trkpt>
<trkpt lat="31.7432700" lon="35.1437700">
<ele>760.359985</ele>
<time>2025-05-22T20:06:26.260Z</time>
</trkpt>
<trkpt lat="31.7434400" lon="35.1438000">
<ele>759.100037</ele>
<time>2025-05-22T20:06:26.260Z</time>
</trkpt>
<trkpt lat="31.7435900" lon="35.1438000">
<ele>758.000000</ele>
<time>2025-05-22T20:06:26.260Z</time>
</trkpt>
<trkpt lat="31.7437900" lon="35.1437900">
<ele>755.700012</ele>
<time>2025-05-22T20:06:26.260Z</time>
</trkpt>
<trkpt lat="31.7440700" lon="35.1437700">
<ele>757.190002</ele>
<time>2025-05-22T20:06:26.260Z</time>
</trkpt>
<trkpt lat="31.7445600" lon="35.1436600">
<ele>755.719971</ele>
<time>2025-05-22T20:06:26.260Z</time>
</trkpt>
<trkpt lat="31.7447600" lon="35.1435300">
<ele>752.459961</ele>
<time>2025-05-22T20:06:26.260Z</time>
</trkpt>
<trkpt lat="31.7452600" lon="35.1431000">
<ele>746.010010</ele>
<time>2025-05-22T20:06:26.260Z</time>
</trkpt>
<trkpt lat="31.7454000" lon="35.1429900">
<ele>744.669983</ele>
<time>2025-05-22T20:06:26.260Z</time>
</trkpt>
<trkpt lat="31.7455900" lon="35.1429000">
<ele>741.929993</ele>
<time>2025-05-22T20:06:26.260Z</time>
</trkpt>
<trkpt lat="31.7456700" lon="35.1428900">
<ele>741.530029</ele>
<time>2025-05-22T20:06:26.260Z</time>
</trkpt>
<trkpt lat="31.7458700" lon="35.1428900">
<ele>740.460022</ele>
<time>2025-05-22T20:06:26.260Z</time>
</trkpt>
<trkpt lat="31.7459000" lon="35.1428900">
<ele>740.360046</ele>
<time>2025-05-22T20:06:26.260Z</time>
</trkpt>
<trkpt lat="31.7459700" lon="35.1429100">
<ele>740.029968</ele>
<time>2025-05-22T20:06:26.260Z</time>
</trkpt>
<trkpt lat="31.7460800" lon="35.1429800">
<ele>739.380005</ele>
<time>2025-05-22T20:06:26.260Z</time>
</trkpt>
<trkpt lat="31.7461400" lon="35.1430600">
<ele>739.539978</ele>
<time>2025-05-22T20:06:26.260Z</time>
</trkpt>
<trkpt lat="31.7462100" lon="35.1431600">
<ele>741.159973</ele>
<time>2025-05-22T20:06:26.260Z</time>
</trkpt>
<trkpt lat="31.7462800" lon="35.1433300">
<ele>743.029968</ele>
<time>2025-05-22T20:06:26.260Z</time>
</trkpt>
<trkpt lat="31.7464900" lon="35.1441100">
<ele>742.000000</ele>
<time>2025-05-22T20:06:26.260Z</time>
</trkpt>
<trkpt lat="31.7466500" lon="35.1444100">
<ele>740.260010</ele>
<time>2025-05-22T20:06:26.260Z</time>
</trkpt>
<trkpt lat="31.7467900" lon="35.1446500">
<ele>739.380005</ele>
<time>2025-05-22T20:06:26.260Z</time>
</trkpt>
<trkpt lat="31.7471800" lon="35.1452800">
<ele>737.380005</ele>
<time>2025-05-22T20:06:26.260Z</time>
</trkpt>
<trkpt lat="31.7472400" lon="35.1454400">
<ele>736.959961</ele>
<time>2025-05-22T20:06:26.260Z</time>
</trkpt>
<trkpt lat="31.7472300" lon="35.1455800">
<ele>736.059998</ele>
<time>2025-05-22T20:06:26.260Z</time>
</trkpt>
<trkpt lat="31.7472000" lon="35.1457000">
<ele>735.679993</ele>
<time>2025-05-22T20:06:26.260Z</time>
</trkpt>
<trkpt lat="31.7471500" lon="35.1457700">
<ele>734.960022</ele>
<time>2025-05-22T20:06:26.260Z</time>
</trkpt>
<trkpt lat="31.7471000" lon="35.1458100">
<ele>734.239990</ele>
<time>2025-05-22T20:06:26.260Z</time>
</trkpt>
<trkpt lat="31.7469800" lon="35.1458700">
<ele>732.350037</ele>
<time>2025-05-22T20:06:26.260Z</time>
</trkpt>
<trkpt lat="31.7467700" lon="35.1459400">
<ele>730.700012</ele>
<time>2025-05-22T20:06:26.260Z</time>
</trkpt>
<trkpt lat="31.7466300" lon="35.1459700">
<ele>729.679993</ele>
<time>2025-05-22T20:06:26.260Z</time>
</trkpt>
<trkpt lat="31.7464000" lon="35.1458900">
<ele>723.849976</ele>
<time>2025-05-22T20:06:26.260Z</time>
</trkpt>
<trkpt lat="31.7463300" lon="35.1458900">
<ele>722.000000</ele>
<time>2025-05-22T20:06:26.260Z</time>
</trkpt>
<trkpt lat="31.7461400" lon="35.1458800">
<ele>716.779968</ele>
<time>2025-05-22T20:06:26.260Z</time>
</trkpt>
<trkpt lat="31.7458300" lon="35.1459000">
<ele>711.210022</ele>
<time>2025-05-22T20:06:26.260Z</time>
</trkpt>
<trkpt lat="31.7455100" lon="35.1459600">
<ele>708.719971</ele>
<time>2025-05-22T20:06:26.260Z</time>
</trkpt>
<trkpt lat="31.7453400" lon="35.1459900">
<ele>708.549988</ele>
<time>2025-05-22T20:06:26.260Z</time>
</trkpt>
<trkpt lat="31.7450300" lon="35.1459900">
<ele>706.489990</ele>
<time>2025-05-22T20:06:26.260Z</time>
</trkpt>
<trkpt lat="31.7449200" lon="35.1460000">
<ele>704.500061</ele>
<time>2025-05-22T20:06:26.260Z</time>
</trkpt>
<trkpt lat="31.7447900" lon="35.1460500">
<ele>701.989990</ele>
<time>2025-05-22T20:06:26.260Z</time>
</trkpt>
<trkpt lat="31.7446300" lon="35.1461600">
<ele>700.200012</ele>
<time>2025-05-22T20:06:26.260Z</time>
</trkpt>
<trkpt lat="31.7443000" lon="35.1464700">
<ele>697.679993</ele>
<time>2025-05-22T20:06:26.260Z</time>
</trkpt>
<trkpt lat="31.7434000" lon="35.1470200">
<ele>693.450012</ele>
<time>2025-05-22T20:06:26.260Z</time>
</trkpt>
<trkpt lat="31.7430800" lon="35.1472800">
<ele>694.500000</ele>
<time>2025-05-22T20:06:26.260Z</time>
</trkpt>
<trkpt lat="31.7426900" lon="35.1475300">
<ele>684.839966</ele>
<time>2025-05-22T20:06:26.260Z</time>
</trkpt>
<trkpt lat="31.7426100" lon="35.1475800">
<ele>682.970032</ele>
<time>2025-05-22T20:06:26.260Z</time>
</trkpt>
<trkpt lat="31.7424900" lon="35.1476900">
<ele>680.119995</ele>
<time>2025-05-22T20:06:26.260Z</time>
</trkpt>
<trkpt lat="31.7423000" lon="35.1479700">
<ele>679.450012</ele>
<time>2025-05-22T20:06:26.260Z</time>
</trkpt>
<trkpt lat="31.7420400" lon="35.1481800">
<ele>676.460022</ele>
<time>2025-05-22T20:06:26.260Z</time>
</trkpt>
<trkpt lat="31.7419100" lon="35.1482400">
<ele>674.250000</ele>
<time>2025-05-22T20:06:26.260Z</time>
</trkpt>
<trkpt lat="31.7415100" lon="35.1483000">
<ele>661.739990</ele>
<time>2025-05-22T20:06:26.260Z</time>
</trkpt>
<trkpt lat="31.7414700" lon="35.1483100">
<ele>660.469971</ele>
<time>2025-05-22T20:06:26.260Z</time>
</trkpt>
<trkpt lat="31.7411500" lon="35.1484100">
<ele>655.320007</ele>
<time>2025-05-22T20:06:26.260Z</time>
</trkpt>
<trkpt lat="31.7409800" lon="35.1485000">
<ele>653.670044</ele>
<time>2025-05-22T20:06:26.260Z</time>
</trkpt>
<trkpt lat="31.7406400" lon="35.1486500">
<ele>652.600037</ele>
<time>2025-05-22T20:06:26.260Z</time>
</trkpt>
<trkpt lat="31.7404700" lon="35.1487600">
<ele>650.679993</ele>
<time>2025-05-22T20:06:26.260Z</time>
</trkpt>
<trkpt lat="31.7402700" lon="35.1490300">
<ele>649.369995</ele>
<time>2025-05-22T20:06:26.260Z</time>
</trkpt>
<trkpt lat="31.7400900" lon="35.1493500">
<ele>648.589966</ele>
<time>2025-05-22T20:06:26.260Z</time>
</trkpt>
<trkpt lat="31.7400000" lon="35.1495900">
<ele>647.000000</ele>
<time>2025-05-22T20:06:26.260Z</time>
</trkpt>
<trkpt lat="31.7400000" lon="35.1497000">
<ele>647.000000</ele>
<time>2025-05-22T20:06:26.260Z</time>
</trkpt>
<trkpt lat="31.7400300" lon="35.1497800">
<ele>647.419983</ele>
<time>2025-05-22T20:06:26.260Z</time>
</trkpt>
<trkpt lat="31.7401100" lon="35.1499100">
<ele>648.429993</ele>
<time>2025-05-22T20:06:26.260Z</time>
</trkpt>
<trkpt lat="31.7403100" lon="35.1501200">
<ele>649.520020</ele>
<time>2025-05-22T20:06:26.260Z</time>
</trkpt>
<trkpt lat="31.7404200" lon="35.1502900">
<ele>649.429993</ele>
<time>2025-05-22T20:06:26.260Z</time>
</trkpt>
<trkpt lat="31.7407400" lon="35.1511000">
<ele>649.210022</ele>
<time>2025-05-22T20:06:26.260Z</time>
</trkpt>
<trkpt lat="31.7407900" lon="35.1511900">
<ele>648.940063</ele>
<time>2025-05-22T20:06:26.260Z</time>
</trkpt>
<trkpt lat="31.7410300" lon="35.1515500">
<ele>646.269958</ele>
<time>2025-05-22T20:06:26.260Z</time>
</trkpt>
<trkpt lat="31.7413500" lon="35.1519500">
<ele>640.479980</ele>
<time>2025-05-22T20:06:26.260Z</time>
</trkpt>
<trkpt lat="31.7415200" lon="35.1521300">
<ele>638.289978</ele>
<time>2025-05-22T20:06:26.260Z</time>
</trkpt>
<trkpt lat="31.7417700" lon="35.1523200">
<ele>635.559998</ele>
<time>2025-05-22T20:06:26.260Z</time>
</trkpt>
<trkpt lat="31.7418400" lon="35.1523500">
<ele>635.580017</ele>
<time>2025-05-22T20:06:26.260Z</time>
</trkpt>
<trkpt lat="31.7421100" lon="35.1524700">
<ele>634.960022</ele>
<time>2025-05-22T20:06:26.260Z</time>
</trkpt>
<trkpt lat="31.7422700" lon="35.1525900">
<ele>634.260010</ele>
<time>2025-05-22T20:06:26.260Z</time>
</trkpt>
<trkpt lat="31.7425200" lon="35.1528600">
<ele>630.739990</ele>
<time>2025-05-22T20:06:26.260Z</time>
</trkpt>
<trkpt lat="31.7426800" lon="35.1529300">
<ele>629.580017</ele>
<time>2025-05-22T20:06:26.260Z</time>
</trkpt>
<trkpt lat="31.7428000" lon="35.1529700">
<ele>629.190002</ele>
<time>2025-05-22T20:06:26.260Z</time>
</trkpt>
<trkpt lat="31.7428600" lon="35.1529900">
<ele>628.700012</ele>
<time>2025-05-22T20:06:26.260Z</time>
</trkpt>
<trkpt lat="31.7430300" lon="35.1531200">
<ele>624.479980</ele>
<time>2025-05-22T20:06:26.260Z</time>
</trkpt>
<trkpt lat="31.7436000" lon="35.1532100">
<ele>616.679993</ele>
<time>2025-05-22T20:06:26.260Z</time>
</trkpt>
<trkpt lat="31.7437600" lon="35.1532100">
<ele>617.969971</ele>
<time>2025-05-22T20:06:26.260Z</time>
</trkpt>
<trkpt lat="31.7438000" lon="35.1532000">
<ele>618.570007</ele>
<time>2025-05-22T20:06:26.260Z</time>
</trkpt>
<trkpt lat="31.7439000" lon="35.1531800">
<ele>619.989990</ele>
<time>2025-05-22T20:06:26.260Z</time>
</trkpt>
<trkpt lat="31.7441900" lon="35.1530800">
<ele>624.490051</ele>
<time>2025-05-22T20:06:26.260Z</time>
</trkpt>
<trkpt lat="31.7443400" lon="35.1530600">
<ele>628.949951</ele>
<time>2025-05-22T20:06:26.260Z</time>
</trkpt>
<trkpt lat="31.7444300" lon="35.1530700">
<ele>631.430054</ele>
<time>2025-05-22T20:06:26.260Z</time>
</trkpt>
<trkpt lat="31.7445200" lon="35.1531200">
<ele>635.049988</ele>
<time>2025-05-22T20:06:26.260Z</time>
</trkpt>
<trkpt lat="31.7445600" lon="35.1531900">
<ele>636.169983</ele>
<time>2025-05-22T20:06:26.260Z</time>
</trkpt>
<trkpt lat="31.7445600" lon="35.1532400">
<ele>635.559998</ele>
<time>2025-05-22T20:06:26.260Z</time>
</trkpt>
<trkpt lat="31.7445500" lon="35.1533200">
<ele>634.100037</ele>
<time>2025-05-22T20:06:26.260Z</time>
</trkpt>
<trkpt lat="31.7443700" lon="35.1537300">
<ele>625.280029</ele>
<time>2025-05-22T20:06:26.260Z</time>
</trkpt>
<trkpt lat="31.7443400" lon="35.1538000">
<ele>624.490051</ele>
<time>2025-05-22T20:06:26.260Z</time>
</trkpt>
<trkpt lat="31.7443200" lon="35.1539000">
<ele>624.010010</ele>
<time>2025-05-22T20:06:26.260Z</time>
</trkpt>
<trkpt lat="31.7443400" lon="35.1541500">
<ele>628.009949</ele>
<time>2025-05-22T20:06:26.260Z</time>
</trkpt>
<trkpt lat="31.7443700" lon="35.1543600">
<ele>631.269958</ele>
<time>2025-05-22T20:06:26.260Z</time>
</trkpt>
<trkpt lat="31.7444600" lon="35.1545600">
<ele>634.599976</ele>
<time>2025-05-22T20:06:26.260Z</time>
</trkpt>
<trkpt lat="31.7446000" lon="35.1547200">
<ele>639.050049</ele>
<time>2025-05-22T20:06:26.260Z</time>
</trkpt>
<trkpt lat="31.7448400" lon="35.1549300">
<ele>643.500000</ele>
<time>2025-05-22T20:06:26.260Z</time>
</trkpt>
<trkpt lat="31.7450900" lon="35.1551800">
<ele>645.519958</ele>
<time>2025-05-22T20:06:26.260Z</time>
</trkpt>
<trkpt lat="31.7456400" lon="35.1557800">
<ele>636.359985</ele>
<time>2025-05-22T20:06:26.260Z</time>
</trkpt>
<trkpt lat="31.7460300" lon="35.1561200">
<ele>630.239990</ele>
<time>2025-05-22T20:06:26.260Z</time>
</trkpt>
<trkpt lat="31.7464800" lon="35.1564400">
<ele>635.150024</ele>
<time>2025-05-22T20:06:26.260Z</time>
</trkpt>
<trkpt lat="31.7465800" lon="35.1565400">
<ele>635.150024</ele>
<time>2025-05-22T20:06:26.260Z</time>
</trkpt>
<trkpt lat="31.7466900" lon="35.1566800">
<ele>634.510010</ele>
<time>2025-05-22T20:06:26.260Z</time>
</trkpt>
<trkpt lat="31.7468700" lon="35.1570100">
<ele>632.020020</ele>
<time>2025-05-22T20:06:26.260Z</time>
</trkpt>
<trkpt lat="31.7469700" lon="35.1571100">
<ele>631.040039</ele>
<time>2025-05-22T20:06:26.260Z</time>
</trkpt>
<trkpt lat="31.7473400" lon="35.1572700">
<ele>630.520020</ele>
<time>2025-05-22T20:06:26.260Z</time>
</trkpt>
<trkpt lat="31.7475100" lon="35.1573100">
<ele>634.700012</ele>
<time>2025-05-22T20:06:26.260Z</time>
</trkpt>
<trkpt lat="31.7475700" lon="35.1573600">
<ele>636.400024</ele>
<time>2025-05-22T20:06:26.260Z</time>
</trkpt>
<trkpt lat="31.7475900" lon="35.1574100">
<ele>636.780029</ele>
<time>2025-05-22T20:06:26.260Z</time>
</trkpt>
<trkpt lat="31.7475800" lon="35.1575100">
<ele>635.889954</ele>
<time>2025-05-22T20:06:26.260Z</time>
</trkpt>
<trkpt lat="31.7474100" lon="35.1577700">
<ele>630.089966</ele>
<time>2025-05-22T20:06:26.260Z</time>
</trkpt>
<trkpt lat="31.7473400" lon="35.1579300">
<ele>628.679993</ele>
<time>2025-05-22T20:06:26.260Z</time>
</trkpt>
<trkpt lat="31.7473200" lon="35.1581200">
<ele>629.279968</ele>
<time>2025-05-22T20:06:26.260Z</time>
</trkpt>
<trkpt lat="31.7473300" lon="35.1582600">
<ele>630.580017</ele>
<time>2025-05-22T20:06:26.260Z</time>
</trkpt>
<trkpt lat="31.7473500" lon="35.1583700">
<ele>631.479980</ele>
<time>2025-05-22T20:06:26.260Z</time>
</trkpt>
<trkpt lat="31.7474600" lon="35.1585400">
<ele>634.000000</ele>
<time>2025-05-22T20:06:26.260Z</time>
</trkpt>
<trkpt lat="31.7476100" lon="35.1587800">
<ele>636.329956</ele>
<time>2025-05-22T20:06:26.260Z</time>
</trkpt>
<trkpt lat="31.7476800" lon="35.1588500">
<ele>636.760010</ele>
<time>2025-05-22T20:06:26.260Z</time>
</trkpt>
<trkpt lat="31.7479500" lon="35.1590200">
<ele>638.159973</ele>
<time>2025-05-22T20:06:26.260Z</time>
</trkpt>
<trkpt lat="31.7483200" lon="35.1593100">
<ele>635.220032</ele>
<time>2025-05-22T20:06:26.260Z</time>
</trkpt>
<trkpt lat="31.7484400" lon="35.1594300">
<ele>633.899963</ele>
<time>2025-05-22T20:06:26.260Z</time>
</trkpt>
<trkpt lat="31.7484800" lon="35.1595300">
<ele>634.089966</ele>
<time>2025-05-22T20:06:26.260Z</time>
</trkpt>
<trkpt lat="31.7484800" lon="35.1596500">
<ele>634.070007</ele>
<time>2025-05-22T20:06:26.260Z</time>
</trkpt>
<trkpt lat="31.7484700" lon="35.1596900">
<ele>633.979980</ele>
<time>2025-05-22T20:06:26.260Z</time>
</trkpt>
<trkpt lat="31.7483900" lon="35.1598100">
<ele>633.600037</ele>
<time>2025-05-22T20:06:26.260Z</time>
</trkpt>
<trkpt lat="31.7483000" lon="35.1598900">
<ele>632.779968</ele>
<time>2025-05-22T20:06:26.260Z</time>
</trkpt>
<trkpt lat="31.7480900" lon="35.1600400">
<ele>632.570007</ele>
<time>2025-05-22T20:06:26.260Z</time>
</trkpt>
<trkpt lat="31.7480400" lon="35.1600900">
<ele>632.729980</ele>
<time>2025-05-22T20:06:26.260Z</time>
</trkpt>
<trkpt lat="31.7480400" lon="35.1600900">
<ele>632.729980</ele>
<time>2025-05-22T20:06:26.260Z</time>
</trkpt>
<trkpt lat="31.7480800" lon="35.1602100">
<ele>634.419983</ele>
<time>2025-05-22T20:06:26.260Z</time>
</trkpt>
<trkpt lat="31.7480900" lon="35.1602700">
<ele>635.159973</ele>
<time>2025-05-22T20:06:26.260Z</time>
</trkpt>
<trkpt lat="31.7480600" lon="35.1604000">
<ele>635.049988</ele>
<time>2025-05-22T20:06:26.260Z</time>
</trkpt>
<trkpt lat="31.7480600" lon="35.1604400">
<ele>635.059998</ele>
<time>2025-05-22T20:06:26.260Z</time>
</trkpt>
<trkpt lat="31.7480200" lon="35.1605900">
<ele>634.349976</ele>
<time>2025-05-22T20:06:26.260Z</time>
</trkpt>
<trkpt lat="31.7480700" lon="35.1606700">
<ele>634.850037</ele>
<time>2025-05-22T20:06:26.260Z</time>
</trkpt>
<trkpt lat="31.7481300" lon="35.1606600">
<ele>635.959961</ele>
<time>2025-05-22T20:06:26.260Z</time>
</trkpt>
<trkpt lat="31.7481700" lon="35.1605800">
<ele>636.970032</ele>
<time>2025-05-22T20:06:26.260Z</time>
</trkpt>
<trkpt lat="31.7481600" lon="35.1604400">
<ele>636.409973</ele>
<time>2025-05-22T20:06:26.260Z</time>
</trkpt>
<trkpt lat="31.7481700" lon="35.1602700">
<ele>635.729980</ele>
<time>2025-05-22T20:06:26.260Z</time>
</trkpt>
<trkpt lat="31.7482400" lon="35.1602300">
<ele>635.700012</ele>
<time>2025-05-22T20:06:26.260Z</time>
</trkpt>
<trkpt lat="31.7482900" lon="35.1602300">
<ele>636.030029</ele>
<time>2025-05-22T20:06:26.260Z</time>
</trkpt>
<trkpt lat="31.7483000" lon="35.1603200">
<ele>637.159973</ele>
<time>2025-05-22T20:06:26.260Z</time>
</trkpt>
<trkpt lat="31.7482800" lon="35.1603800">
<ele>637.510010</ele>
<time>2025-05-22T20:06:26.260Z</time>
</trkpt>
<trkpt lat="31.7482400" lon="35.1604700">
<ele>637.709961</ele>
<time>2025-05-22T20:06:26.260Z</time>
</trkpt>
<trkpt lat="31.7482700" lon="35.1605500">
<ele>638.809998</ele>
<time>2025-05-22T20:06:26.260Z</time>
</trkpt>
<trkpt lat="31.7483300" lon="35.1605100">
<ele>639.450012</ele>
<time>2025-05-22T20:06:26.260Z</time>
</trkpt>
<trkpt lat="31.7484000" lon="35.1603600">
<ele>639.229980</ele>
<time>2025-05-22T20:06:26.260Z</time>
</trkpt>
<trkpt lat="31.7484700" lon="35.1603100">
<ele>639.919983</ele>
<time>2025-05-22T20:06:26.260Z</time>
</trkpt>
<trkpt lat="31.7485100" lon="35.1602600">
<ele>639.919983</ele>
<time>2025-05-22T20:06:26.260Z</time>
</trkpt>
<trkpt lat="31.7487200" lon="35.1601100">
<ele>642.479980</ele>
<time>2025-05-22T20:06:26.260Z</time>
</trkpt>
<trkpt lat="31.7487200" lon="35.1601200">
<ele>642.640015</ele>
<time>2025-05-22T20:06:26.260Z</time>
</trkpt>
<trkpt lat="31.7489900" lon="35.1599300">
<ele>646.520020</ele>
<time>2025-05-22T20:06:26.260Z</time>
</trkpt>
<trkpt lat="31.7491700" lon="35.1598300">
<ele>649.799988</ele>
<time>2025-05-22T20:06:26.260Z</time>
</trkpt>
<trkpt lat="31.7491700" lon="35.1598300">
<ele>649.799988</ele>
<time>2025-05-22T20:06:26.260Z</time>
</trkpt>
<trkpt lat="31.7493000" lon="35.1597700">
<ele>650.850037</ele>
<time>2025-05-22T20:06:26.260Z</time>
</trkpt>
<trkpt lat="31.7493100" lon="35.1597600">
<ele>650.989990</ele>
<time>2025-05-22T20:06:26.260Z</time>
</trkpt>
<trkpt lat="31.7493800" lon="35.1597500">
<ele>651.890015</ele>
<time>2025-05-22T20:06:26.260Z</time>
</trkpt>
<trkpt lat="31.7494100" lon="35.1596700">
<ele>653.260010</ele>
<time>2025-05-22T20:06:26.260Z</time>
</trkpt>
<trkpt lat="31.7494100" lon="35.1596200">
<ele>653.980042</ele>
<time>2025-05-22T20:06:26.260Z</time>
</trkpt>
<trkpt lat="31.7494000" lon="35.1595800">
<ele>654.409973</ele>
<time>2025-05-22T20:06:26.260Z</time>
</trkpt>
<trkpt lat="31.7493700" lon="35.1595400">
<ele>654.549988</ele>
<time>2025-05-22T20:06:26.260Z</time>
</trkpt>
<trkpt lat="31.7492300" lon="35.1594900">
<ele>653.260010</ele>
<time>2025-05-22T20:06:26.260Z</time>
</trkpt>
<trkpt lat="31.7491400" lon="35.1594300">
<ele>652.409973</ele>
<time>2025-05-22T20:06:26.260Z</time>
</trkpt>
<trkpt lat="31.7491400" lon="35.1594300">
<ele>652.409973</ele>
<time>2025-05-22T20:06:26.260Z</time>
</trkpt>
<trkpt lat="31.7490500" lon="35.1593800">
<ele>650.729980</ele>
<time>2025-05-22T20:06:26.260Z</time>
</trkpt>
<trkpt lat="31.7489300" lon="35.1592600">
<ele>650.440002</ele>
<time>2025-05-22T20:06:26.260Z</time>
</trkpt>
<trkpt lat="31.7488300" lon="35.1591700">
<ele>650.010010</ele>
<time>2025-05-22T20:06:26.260Z</time>
</trkpt>
<trkpt lat="31.7488200" lon="35.1590800">
<ele>652.809998</ele>
<time>2025-05-22T20:06:26.260Z</time>
</trkpt>
<trkpt lat="31.7489200" lon="35.1590500">
<ele>656.179993</ele>
<time>2025-05-22T20:06:26.260Z</time>
</trkpt>
<trkpt lat="31.7490300" lon="35.1590700">
<ele>656.989990</ele>
<time>2025-05-22T20:06:26.260Z</time>
</trkpt>
<trkpt lat="31.7490700" lon="35.1590000">
<ele>659.619995</ele>
<time>2025-05-22T20:06:26.260Z</time>
</trkpt>
<trkpt lat="31.7491000" lon="35.1589100">
<ele>662.650024</ele>
<time>2025-05-22T20:06:26.260Z</time>
</trkpt>
<trkpt lat="31.7487300" lon="35.1585700">
<ele>663.010010</ele>
<time>2025-05-22T20:06:26.260Z</time>
</trkpt>
<trkpt lat="31.7484700" lon="35.1581900">
<ele>662.750000</ele>
<time>2025-05-22T20:06:26.260Z</time>
</trkpt>
<trkpt lat="31.7484100" lon="35.1577800">
<ele>664.369995</ele>
<time>2025-05-22T20:06:26.260Z</time>
</trkpt>
<trkpt lat="31.7484500" lon="35.1574300">
<ele>665.689941</ele>
<time>2025-05-22T20:06:26.260Z</time>
</trkpt>
<trkpt lat="31.7486100" lon="35.1569900">
<ele>669.809998</ele>
<time>2025-05-22T20:06:26.260Z</time>
</trkpt>
<trkpt lat="31.7486100" lon="35.1568600">
<ele>670.279968</ele>
<time>2025-05-22T20:06:26.260Z</time>
</trkpt>
<trkpt lat="31.7485600" lon="35.1568000">
<ele>669.330017</ele>
<time>2025-05-22T20:06:26.260Z</time>
</trkpt>
<trkpt lat="31.7484700" lon="35.1567300">
<ele>667.609985</ele>
<time>2025-05-22T20:06:26.260Z</time>
</trkpt>
<trkpt lat="31.7479400" lon="35.1565800">
<ele>663.830017</ele>
<time>2025-05-22T20:06:26.260Z</time>
</trkpt>
<trkpt lat="31.7477800" lon="35.1564700">
<ele>667.790039</ele>
<time>2025-05-22T20:06:26.260Z</time>
</trkpt>
<trkpt lat="31.7476600" lon="35.1563100">
<ele>672.350037</ele>
<time>2025-05-22T20:06:26.260Z</time>
</trkpt>
<trkpt lat="31.7475300" lon="35.1560900">
<ele>675.940002</ele>
<time>2025-05-22T20:06:26.260Z</time>
</trkpt>
<trkpt lat="31.7474300" lon="35.1559700">
<ele>676.530029</ele>
<time>2025-05-22T20:06:26.260Z</time>
</trkpt>
<trkpt lat="31.7473300" lon="35.1558400">
<ele>676.849976</ele>
<time>2025-05-22T20:06:26.260Z</time>
</trkpt>
<trkpt lat="31.7472400" lon="35.1557700">
<ele>676.690002</ele>
<time>2025-05-22T20:06:26.260Z</time>
</trkpt>
<trkpt lat="31.7471400" lon="35.1557000">
<ele>676.530029</ele>
<time>2025-05-22T20:06:26.260Z</time>
</trkpt>
<trkpt lat="31.7468200" lon="35.1555500">
<ele>674.890015</ele>
<time>2025-05-22T20:06:26.260Z</time>
</trkpt>
<trkpt lat="31.7465400" lon="35.1554500">
<ele>667.309937</ele>
<time>2025-05-22T20:06:26.260Z</time>
</trkpt>
<trkpt lat="31.7462700" lon="35.1553800">
<ele>663.260010</ele>
<time>2025-05-22T20:06:26.260Z</time>
</trkpt>
<trkpt lat="31.7460600" lon="35.1552800">
<ele>664.929993</ele>
<time>2025-05-22T20:06:26.260Z</time>
</trkpt>
<trkpt lat="31.7459500" lon="35.1552100">
<ele>665.830017</ele>
<time>2025-05-22T20:06:26.260Z</time>
</trkpt>
<trkpt lat="31.7455300" lon="35.1548300">
<ele>665.809998</ele>
<time>2025-05-22T20:06:26.260Z</time>
</trkpt>
<trkpt lat="31.7453600" lon="35.1546200">
<ele>664.650024</ele>
<time>2025-05-22T20:06:26.260Z</time>
</trkpt>
<trkpt lat="31.7452000" lon="35.1543800">
<ele>662.709961</ele>
<time>2025-05-22T20:06:26.260Z</time>
</trkpt>
<trkpt lat="31.7450300" lon="35.1540200">
<ele>656.090027</ele>
<time>2025-05-22T20:06:26.260Z</time>
</trkpt>
<trkpt lat="31.7449200" lon="35.1537400">
<ele>651.030029</ele>
<time>2025-05-22T20:06:26.260Z</time>
</trkpt>
<trkpt lat="31.7449100" lon="35.1535400">
<ele>649.260010</ele>
<time>2025-05-22T20:06:26.260Z</time>
</trkpt>
<trkpt lat="31.7449300" lon="35.1534000">
<ele>649.659973</ele>
<time>2025-05-22T20:06:26.260Z</time>
</trkpt>
<trkpt lat="31.7450600" lon="35.1529900">
<ele>656.210022</ele>
<time>2025-05-22T20:06:26.260Z</time>
</trkpt>
<trkpt lat="31.7450600" lon="35.1529100">
<ele>656.540039</ele>
<time>2025-05-22T20:06:26.260Z</time>
</trkpt>
<trkpt lat="31.7450400" lon="35.1528100">
<ele>656.549988</ele>
<time>2025-05-22T20:06:26.260Z</time>
</trkpt>
<trkpt lat="31.7449900" lon="35.1527500">
<ele>656.410034</ele>
<time>2025-05-22T20:06:26.260Z</time>
</trkpt>
<trkpt lat="31.7449100" lon="35.1527200">
<ele>656.339966</ele>
<time>2025-05-22T20:06:26.260Z</time>
</trkpt>
<trkpt lat="31.7444900" lon="35.1527100">
<ele>647.649963</ele>
<time>2025-05-22T20:06:26.260Z</time>
</trkpt>
<trkpt lat="31.7433400" lon="35.1528300">
<ele>627.470032</ele>
<time>2025-05-22T20:06:26.260Z</time>
</trkpt>
<trkpt lat="31.7430000" lon="35.1528900">
<ele>629.580017</ele>
<time>2025-05-22T20:06:26.260Z</time>
</trkpt>
<trkpt lat="31.7429300" lon="35.1529200">
<ele>629.179993</ele>
<time>2025-05-22T20:06:26.260Z</time>
</trkpt>
<trkpt lat="31.7429000" lon="35.1529700">
<ele>628.670044</ele>
<time>2025-05-22T20:06:26.260Z</time>
</trkpt>
<trkpt lat="31.7428600" lon="35.1529900">
<ele>628.700012</ele>
<time>2025-05-22T20:06:26.260Z</time>
</trkpt>
<trkpt lat="31.7428000" lon="35.1529700">
<ele>629.190002</ele>
<time>2025-05-22T20:06:26.260Z</time>
</trkpt>
<trkpt lat="31.7426800" lon="35.1529300">
<ele>629.580017</ele>
<time>2025-05-22T20:06:26.260Z</time>
</trkpt>
<trkpt lat="31.7425200" lon="35.1528600">
<ele>630.739990</ele>
<time>2025-05-22T20:06:26.260Z</time>
</trkpt>
<trkpt lat="31.7422700" lon="35.1525900">
<ele>634.260010</ele>
<time>2025-05-22T20:06:26.260Z</time>
</trkpt>
<trkpt lat="31.7421100" lon="35.1524700">
<ele>634.960022</ele>
<time>2025-05-22T20:06:26.260Z</time>
</trkpt>
<trkpt lat="31.7418400" lon="35.1523500">
<ele>635.580017</ele>
<time>2025-05-22T20:06:26.260Z</time>
</trkpt>
<trkpt lat="31.7417700" lon="35.1523200">
<ele>635.559998</ele>
<time>2025-05-22T20:06:26.260Z</time>
</trkpt>
<trkpt lat="31.7415200" lon="35.1521300">
<ele>638.289978</ele>
<time>2025-05-22T20:06:26.260Z</time>
</trkpt>
<trkpt lat="31.7413500" lon="35.1519500">
<ele>640.479980</ele>
<time>2025-05-22T20:06:26.260Z</time>
</trkpt>
<trkpt lat="31.7410300" lon="35.1515500">
<ele>646.269958</ele>
<time>2025-05-22T20:06:26.260Z</time>
</trkpt>
<trkpt lat="31.7407900" lon="35.1511900">
<ele>648.940063</ele>
<time>2025-05-22T20:06:26.260Z</time>
</trkpt>
<trkpt lat="31.7407400" lon="35.1511000">
<ele>649.210022</ele>
<time>2025-05-22T20:06:26.260Z</time>
</trkpt>
<trkpt lat="31.7404200" lon="35.1502900">
<ele>649.429993</ele>
<time>2025-05-22T20:06:26.260Z</time>
</trkpt>
<trkpt lat="31.7403100" lon="35.1501200">
<ele>649.520020</ele>
<time>2025-05-22T20:06:26.260Z</time>
</trkpt>
<trkpt lat="31.7401100" lon="35.1499100">
<ele>648.429993</ele>
<time>2025-05-22T20:06:26.260Z</time>
</trkpt>
<trkpt lat="31.7400300" lon="35.1497800">
<ele>647.419983</ele>
<time>2025-05-22T20:06:26.260Z</time>
</trkpt>
<trkpt lat="31.7399400" lon="35.1497100">
<ele>646.340027</ele>
<time>2025-05-22T20:06:26.260Z</time>
</trkpt>
<trkpt lat="31.7399100" lon="35.1493800">
<ele>645.090027</ele>
<time>2025-05-22T20:06:26.260Z</time>
</trkpt>
<trkpt lat="31.7399100" lon="35.1493300">
<ele>644.610046</ele>
<time>2025-05-22T20:06:26.260Z</time>
</trkpt>
<trkpt lat="31.7399400" lon="35.1491700">
<ele>643.729980</ele>
<time>2025-05-22T20:06:26.260Z</time>
</trkpt>
<trkpt lat="31.7400100" lon="35.1489800">
<ele>643.190002</ele>
<time>2025-05-22T20:06:26.260Z</time>
</trkpt>
<trkpt lat="31.7401500" lon="35.1487800">
<ele>642.770020</ele>
<time>2025-05-22T20:06:26.260Z</time>
</trkpt>
<trkpt lat="31.7404600" lon="35.1484700">
<ele>644.029968</ele>
<time>2025-05-22T20:06:26.260Z</time>
</trkpt>
<trkpt lat="31.7406500" lon="35.1482100">
<ele>641.390015</ele>
<time>2025-05-22T20:06:26.260Z</time>
</trkpt>
<trkpt lat="31.7406500" lon="35.1482100">
<ele>641.390015</ele>
<time>2025-05-22T20:06:26.260Z</time>
</trkpt>
<trkpt lat="31.7407300" lon="35.1480900">
<ele>640.930054</ele>
<time>2025-05-22T20:06:26.260Z</time>
</trkpt>
<trkpt lat="31.7410000" lon="35.1478100">
<ele>640.399963</ele>
<time>2025-05-22T20:06:26.260Z</time>
</trkpt>
<trkpt lat="31.7411600" lon="35.1476600">
<ele>640.309998</ele>
<time>2025-05-22T20:06:26.260Z</time>
</trkpt>
<trkpt lat="31.7413000" lon="35.1474900">
<ele>638.619995</ele>
<time>2025-05-22T20:06:26.260Z</time>
</trkpt>
<trkpt lat="31.7413800" lon="35.1473600">
<ele>638.429993</ele>
<time>2025-05-22T20:06:26.260Z</time>
</trkpt>
<trkpt lat="31.7414100" lon="35.1473100">
<ele>638.770020</ele>
<time>2025-05-22T20:06:26.260Z</time>
</trkpt>
<trkpt lat="31.7413600" lon="35.1471600">
<ele>638.359985</ele>
<time>2025-05-22T20:06:26.260Z</time>
</trkpt>
<trkpt lat="31.7410500" lon="35.1470600">
<ele>637.299988</ele>
<time>2025-05-22T20:06:26.260Z</time>
</trkpt>
<trkpt lat="31.7404100" lon="35.1470400">
<ele>637.380005</ele>
<time>2025-05-22T20:06:26.260Z</time>
</trkpt>
<trkpt lat="31.7402100" lon="35.1470500">
<ele>636.950012</ele>
<time>2025-05-22T20:06:26.260Z</time>
</trkpt>
<trkpt lat="31.7399100" lon="35.1470700">
<ele>637.969971</ele>
<time>2025-05-22T20:06:26.260Z</time>
</trkpt>
<trkpt lat="31.7397100" lon="35.1470800">
<ele>637.429993</ele>
<time>2025-05-22T20:06:26.260Z</time>
</trkpt>
<trkpt lat="31.7395300" lon="35.1470700">
<ele>635.450012</ele>
<time>2025-05-22T20:06:26.260Z</time>
</trkpt>
<trkpt lat="31.7393100" lon="35.1470800">
<ele>635.770020</ele>
<time>2025-05-22T20:06:26.260Z</time>
</trkpt>
<trkpt lat="31.7391600" lon="35.1470300">
<ele>638.530029</ele>
<time>2025-05-22T20:06:26.260Z</time>
</trkpt>
<trkpt lat="31.7387600" lon="35.1467800">
<ele>650.319946</ele>
<time>2025-05-22T20:06:26.260Z</time>
</trkpt>
<trkpt lat="31.7384200" lon="35.1466400">
<ele>655.119995</ele>
<time>2025-05-22T20:06:26.260Z</time>
</trkpt>
<trkpt lat="31.7381900" lon="35.1465000">
<ele>657.440002</ele>
<time>2025-05-22T20:06:26.260Z</time>
</trkpt>
<trkpt lat="31.7381200" lon="35.1464300">
<ele>658.169983</ele>
<time>2025-05-22T20:06:26.260Z</time>
</trkpt>
<trkpt lat="31.7379200" lon="35.1461500">
<ele>661.600037</ele>
<time>2025-05-22T20:06:26.260Z</time>
</trkpt>
<trkpt lat="31.7378500" lon="35.1460800">
<ele>661.359985</ele>
<time>2025-05-22T20:06:26.260Z</time>
</trkpt>
<trkpt lat="31.7377900" lon="35.1460400">
<ele>660.370056</ele>
<time>2025-05-22T20:06:26.260Z</time>
</trkpt>
<trkpt lat="31.7377400" lon="35.1460100">
<ele>660.320007</ele>
<time>2025-05-22T20:06:26.260Z</time>
</trkpt>
<trkpt lat="31.7373900" lon="35.1460000">
<ele>660.000000</ele>
<time>2025-05-22T20:06:26.260Z</time>
</trkpt>
<trkpt lat="31.7371400" lon="35.1459300">
<ele>660.200012</ele>
<time>2025-05-22T20:06:26.260Z</time>
</trkpt>
<trkpt lat="31.7370700" lon="35.1458700">
<ele>660.469971</ele>
<time>2025-05-22T20:06:26.260Z</time>
</trkpt>
<trkpt lat="31.7368700" lon="35.1456900">
<ele>659.440002</ele>
<time>2025-05-22T20:06:26.260Z</time>
</trkpt>
<trkpt lat="31.7366300" lon="35.1453000">
<ele>657.289978</ele>
<time>2025-05-22T20:06:26.260Z</time>
</trkpt>
<trkpt lat="31.7361700" lon="35.1446700">
<ele>653.479980</ele>
<time>2025-05-22T20:06:26.260Z</time>
</trkpt>
<trkpt lat="31.7357200" lon="35.1442600">
<ele>653.890015</ele>
<time>2025-05-22T20:06:26.260Z</time>
</trkpt>
<trkpt lat="31.7356900" lon="35.1442400">
<ele>653.739990</ele>
<time>2025-05-22T20:06:26.260Z</time>
</trkpt>
<trkpt lat="31.7356300" lon="35.1441000">
<ele>654.489990</ele>
<time>2025-05-22T20:06:26.260Z</time>
</trkpt>
<trkpt lat="31.7356000" lon="35.1437600">
<ele>655.160034</ele>
<time>2025-05-22T20:06:26.260Z</time>
</trkpt>
<trkpt lat="31.7355800" lon="35.1436000">
<ele>654.559998</ele>
<time>2025-05-22T20:06:26.260Z</time>
</trkpt>
<trkpt lat="31.7355900" lon="35.1432200">
<ele>658.359985</ele>
<time>2025-05-22T20:06:26.260Z</time>
</trkpt>
<trkpt lat="31.7355700" lon="35.1425700">
<ele>660.809998</ele>
<time>2025-05-22T20:06:26.260Z</time>
</trkpt>
<trkpt lat="31.7355300" lon="35.1423000">
<ele>663.549988</ele>
<time>2025-05-22T20:06:26.260Z</time>
</trkpt>
<trkpt lat="31.7353100" lon="35.1415100">
<ele>663.440002</ele>
<time>2025-05-22T20:06:26.260Z</time>
</trkpt>
<trkpt lat="31.7352700" lon="35.1412300">
<ele>662.930054</ele>
<time>2025-05-22T20:06:26.260Z</time>
</trkpt>
<trkpt lat="31.7352500" lon="35.1406900">
<ele>658.879944</ele>
<time>2025-05-22T20:06:26.260Z</time>
</trkpt>
<trkpt lat="31.7352500" lon="35.1405900">
<ele>657.409973</ele>
<time>2025-05-22T20:06:26.260Z</time>
</trkpt>
<trkpt lat="31.7352600" lon="35.1405100">
<ele>655.780029</ele>
<time>2025-05-22T20:06:26.260Z</time>
</trkpt>
<trkpt lat="31.7353300" lon="35.1404100">
<ele>654.359985</ele>
<time>2025-05-22T20:06:26.260Z</time>
</trkpt>
<trkpt lat="31.7354000" lon="35.1404000">
<ele>655.470032</ele>
<time>2025-05-22T20:06:26.260Z</time>
</trkpt>
<trkpt lat="31.7356200" lon="35.1403900">
<ele>658.970032</ele>
<time>2025-05-22T20:06:26.260Z</time>
</trkpt>
<trkpt lat="31.7358800" lon="35.1403800">
<ele>661.970032</ele>
<time>2025-05-22T20:06:26.260Z</time>
</trkpt>
<trkpt lat="31.7362300" lon="35.1403300">
<ele>666.130005</ele>
<time>2025-05-22T20:06:26.260Z</time>
</trkpt>
<trkpt lat="31.7364300" lon="35.1403000">
<ele>666.969971</ele>
<time>2025-05-22T20:06:26.260Z</time>
</trkpt>
<trkpt lat="31.7364700" lon="35.1402800">
<ele>666.929993</ele>
<time>2025-05-22T20:06:26.260Z</time>
</trkpt>
<trkpt lat="31.7364700" lon="35.1402800">
<ele>666.929993</ele>
<time>2025-05-22T20:06:26.260Z</time>
</trkpt>
<trkpt lat="31.7365600" lon="35.1402500">
<ele>666.640015</ele>
<time>2025-05-22T20:06:26.260Z</time>
</trkpt>
<trkpt lat="31.7368300" lon="35.1401900">
<ele>666.709961</ele>
<time>2025-05-22T20:06:26.260Z</time>
</trkpt>
<trkpt lat="31.7369900" lon="35.1401800">
<ele>668.450012</ele>
<time>2025-05-22T20:06:26.260Z</time>
</trkpt>
<trkpt lat="31.7371700" lon="35.1401600">
<ele>670.600037</ele>
<time>2025-05-22T20:06:26.260Z</time>
</trkpt>
<trkpt lat="31.7381400" lon="35.1397400">
<ele>671.010010</ele>
<time>2025-05-22T20:06:26.260Z</time>
</trkpt>
<trkpt lat="31.7384600" lon="35.1395300">
<ele>667.880005</ele>
<time>2025-05-22T20:06:26.260Z</time>
</trkpt>
<trkpt lat="31.7385200" lon="35.1394300">
<ele>664.169983</ele>
<time>2025-05-22T20:06:26.260Z</time>
</trkpt>
<trkpt lat="31.7386800" lon="35.1392600">
<ele>659.269958</ele>
<time>2025-05-22T20:06:26.260Z</time>
</trkpt>
<trkpt lat="31.7387800" lon="35.1391300">
<ele>657.020020</ele>
<time>2025-05-22T20:06:26.260Z</time>
</trkpt>
<trkpt lat="31.7388600" lon="35.1389000">
<ele>651.859985</ele>
<time>2025-05-22T20:06:26.260Z</time>
</trkpt>
<trkpt lat="31.7388600" lon="35.1388600">
<ele>651.589966</ele>
<time>2025-05-22T20:06:26.260Z</time>
</trkpt>
<trkpt lat="31.7388400" lon="35.1386900">
<ele>651.959961</ele>
<time>2025-05-22T20:06:26.260Z</time>
</trkpt>
<trkpt lat="31.7384800" lon="35.1381000">
<ele>652.150024</ele>
<time>2025-05-22T20:06:26.260Z</time>
</trkpt>
<trkpt lat="31.7384600" lon="35.1379200">
<ele>654.649963</ele>
<time>2025-05-22T20:06:26.260Z</time>
</trkpt>
<trkpt lat="31.7384000" lon="35.1377600">
<ele>654.939941</ele>
<time>2025-05-22T20:06:26.260Z</time>
</trkpt>
<trkpt lat="31.7383900" lon="35.1374600">
<ele>654.609985</ele>
<time>2025-05-22T20:06:26.260Z</time>
</trkpt>
<trkpt lat="31.7384200" lon="35.1371200">
<ele>653.440002</ele>
<time>2025-05-22T20:06:26.260Z</time>
</trkpt>
<trkpt lat="31.7385300" lon="35.1366600">
<ele>655.899963</ele>
<time>2025-05-22T20:06:26.260Z</time>
</trkpt>
<trkpt lat="31.7385400" lon="35.1364000">
<ele>656.170044</ele>
<time>2025-05-22T20:06:26.260Z</time>
</trkpt>
<trkpt lat="31.7386400" lon="35.1359900">
<ele>659.070007</ele>
<time>2025-05-22T20:06:26.260Z</time>
</trkpt>
<trkpt lat="31.7386500" lon="35.1356900">
<ele>661.059998</ele>
<time>2025-05-22T20:06:26.260Z</time>
</trkpt>
<trkpt lat="31.7386400" lon="35.1355400">
<ele>661.630005</ele>
<time>2025-05-22T20:06:26.260Z</time>
</trkpt>
<trkpt lat="31.7386400" lon="35.1353100">
<ele>662.630005</ele>
<time>2025-05-22T20:06:26.260Z</time>
</trkpt>
<trkpt lat="31.7385200" lon="35.1330000">
<ele>666.700012</ele>
<time>2025-05-22T20:06:26.260Z</time>
</trkpt>
<trkpt lat="31.7385800" lon="35.1326500">
<ele>665.059998</ele>
<time>2025-05-22T20:06:26.260Z</time>
</trkpt>
<trkpt lat="31.7392000" lon="35.1318800">
<ele>657.330017</ele>
<time>2025-05-22T20:06:26.260Z</time>
</trkpt>
<trkpt lat="31.7393100" lon="35.1318600">
<ele>660.419983</ele>
<time>2025-05-22T20:06:26.260Z</time>
</trkpt>
<trkpt lat="31.7394000" lon="35.1318700">
<ele>663.309998</ele>
<time>2025-05-22T20:06:26.260Z</time>
</trkpt>
<trkpt lat="31.7395400" lon="35.1319200">
<ele>669.159973</ele>
<time>2025-05-22T20:06:26.260Z</time>
</trkpt>
<trkpt lat="31.7397300" lon="35.1320300">
<ele>679.240051</ele>
<time>2025-05-22T20:06:26.260Z</time>
</trkpt>
<trkpt lat="31.7398000" lon="35.1320800">
<ele>681.260010</ele>
<time>2025-05-22T20:06:26.260Z</time>
</trkpt>
<trkpt lat="31.7399000" lon="35.1321500">
<ele>684.100037</ele>
<time>2025-05-22T20:06:26.260Z</time>
</trkpt>
<trkpt lat="31.7398900" lon="35.1321500">
<ele>683.990051</ele>
<time>2025-05-22T20:06:26.260Z</time>
</trkpt>
<trkpt lat="31.7399000" lon="35.1321500">
<ele>684.100037</ele>
<time>2025-05-22T20:06:26.260Z</time>
</trkpt>
<trkpt lat="31.7400300" lon="35.1322500">
<ele>687.009949</ele>
<time>2025-05-22T20:06:26.260Z</time>
</trkpt>
<trkpt lat="31.7401900" lon="35.1322500">
<ele>686.550049</ele>
<time>2025-05-22T20:06:26.260Z</time>
</trkpt>
<trkpt lat="31.7402900" lon="35.1323000">
<ele>686.719971</ele>
<time>2025-05-22T20:06:26.260Z</time>
</trkpt>
<trkpt lat="31.7411600" lon="35.1329800">
<ele>684.770020</ele>
<time>2025-05-22T20:06:26.260Z</time>
</trkpt>
<trkpt lat="31.7412600" lon="35.1330400">
<ele>684.609985</ele>
<time>2025-05-22T20:06:26.260Z</time>
</trkpt>
<trkpt lat="31.7413600" lon="35.1330900">
<ele>685.580017</ele>
<time>2025-05-22T20:06:26.260Z</time>
</trkpt>
<trkpt lat="31.7416900" lon="35.1332400">
<ele>672.020020</ele>
<time>2025-05-22T20:06:26.260Z</time>
</trkpt>
<trkpt lat="31.7420800" lon="35.1333200">
<ele>662.940002</ele>
<time>2025-05-22T20:06:26.260Z</time>
</trkpt>
<trkpt lat="31.7425100" lon="35.1333600">
<ele>654.909973</ele>
<time>2025-05-22T20:06:26.260Z</time>
</trkpt>
<trkpt lat="31.7431600" lon="35.1333700">
<ele>654.160034</ele>
<time>2025-05-22T20:06:26.260Z</time>
</trkpt>
<trkpt lat="31.7433100" lon="35.1333900">
<ele>657.339966</ele>
<time>2025-05-22T20:06:26.260Z</time>
</trkpt>
<trkpt lat="31.7433800" lon="35.1333800">
<ele>658.510010</ele>
<time>2025-05-22T20:06:26.260Z</time>
</trkpt>
<trkpt lat="31.7434500" lon="35.1333600">
<ele>659.479980</ele>
<time>2025-05-22T20:06:26.260Z</time>
</trkpt>
<trkpt lat="31.7435000" lon="35.1333000">
<ele>659.880005</ele>
<time>2025-05-22T20:06:26.260Z</time>
</trkpt>
<trkpt lat="31.7435400" lon="35.1331900">
<ele>660.200012</ele>
<time>2025-05-22T20:06:26.260Z</time>
</trkpt>
<trkpt lat="31.7435200" lon="35.1330600">
<ele>659.380005</ele>
<time>2025-05-22T20:06:26.260Z</time>
</trkpt>
<trkpt lat="31.7435100" lon="35.1330100">
<ele>659.159973</ele>
<time>2025-05-22T20:06:26.260Z</time>
</trkpt>
<trkpt lat="31.7434500" lon="35.1327800">
<ele>657.370056</ele>
<time>2025-05-22T20:06:26.260Z</time>
</trkpt>
<trkpt lat="31.7434100" lon="35.1324900">
<ele>653.500000</ele>
<time>2025-05-22T20:06:26.260Z</time>
</trkpt>
<trkpt lat="31.7433900" lon="35.1320200">
<ele>647.909973</ele>
<time>2025-05-22T20:06:26.260Z</time>
</trkpt>
<trkpt lat="31.7434100" lon="35.1317700">
<ele>645.699951</ele>
<time>2025-05-22T20:06:26.260Z</time>
</trkpt>
<trkpt lat="31.7434800" lon="35.1313500">
<ele>641.390015</ele>
<time>2025-05-22T20:06:26.260Z</time>
</trkpt>
<trkpt lat="31.7435400" lon="35.1311500">
<ele>638.519958</ele>
<time>2025-05-22T20:06:26.260Z</time>
</trkpt>
<trkpt lat="31.7436200" lon="35.1309600">
<ele>635.350037</ele>
<time>2025-05-22T20:06:26.260Z</time>
</trkpt>
<trkpt lat="31.7437500" lon="35.1307500">
<ele>632.149963</ele>
<time>2025-05-22T20:06:26.260Z</time>
</trkpt>
<trkpt lat="31.7439100" lon="35.1305300">
<ele>629.760010</ele>
<time>2025-05-22T20:06:26.260Z</time>
</trkpt>
<trkpt lat="31.7441400" lon="35.1303300">
<ele>625.619995</ele>
<time>2025-05-22T20:06:26.260Z</time>
</trkpt>
<trkpt lat="31.7441400" lon="35.1303200">
<ele>625.350037</ele>
<time>2025-05-22T20:06:26.260Z</time>
</trkpt>
<trkpt lat="31.7447500" lon="35.1300000">
<ele>610.299988</ele>
<time>2025-05-22T20:06:26.260Z</time>
</trkpt>
<trkpt lat="31.7449900" lon="35.1299000">
<ele>610.730042</ele>
<time>2025-05-22T20:06:26.260Z</time>
</trkpt>
<trkpt lat="31.7452300" lon="35.1298500">
<ele>611.799988</ele>
<time>2025-05-22T20:06:26.260Z</time>
</trkpt>
<trkpt lat="31.7454000" lon="35.1298400">
<ele>613.099976</ele>
<time>2025-05-22T20:06:26.260Z</time>
</trkpt>
<trkpt lat="31.7455300" lon="35.1298300">
<ele>614.089966</ele>
<time>2025-05-22T20:06:26.260Z</time>
</trkpt>
<trkpt lat="31.7457700" lon="35.1298100">
<ele>615.400024</ele>
<time>2025-05-22T20:06:26.260Z</time>
</trkpt>
<trkpt lat="31.7464600" lon="35.1294300">
<ele>602.659973</ele>
<time>2025-05-22T20:06:26.260Z</time>
</trkpt>
<trkpt lat="31.7467400" lon="35.1293500">
<ele>605.989990</ele>
<time>2025-05-22T20:06:26.260Z</time>
</trkpt>
<trkpt lat="31.7470300" lon="35.1293200">
<ele>612.090027</ele>
<time>2025-05-22T20:06:26.260Z</time>
</trkpt>
<trkpt lat="31.7470900" lon="35.1292900">
<ele>612.859985</ele>
<time>2025-05-22T20:06:26.260Z</time>
</trkpt>
<trkpt lat="31.7471600" lon="35.1292100">
<ele>612.750000</ele>
<time>2025-05-22T20:06:26.260Z</time>
</trkpt>
<trkpt lat="31.7471800" lon="35.1291000">
<ele>611.719971</ele>
<time>2025-05-22T20:06:26.260Z</time>
</trkpt>
<trkpt lat="31.7471900" lon="35.1289400">
<ele>610.690002</ele>
<time>2025-05-22T20:06:26.260Z</time>
</trkpt>
<trkpt lat="31.7472000" lon="35.1284800">
<ele>607.700012</ele>
<time>2025-05-22T20:06:26.260Z</time>
</trkpt>
<trkpt lat="31.7472100" lon="35.1282300">
<ele>604.940002</ele>
<time>2025-05-22T20:06:26.260Z</time>
</trkpt>
<trkpt lat="31.7472300" lon="35.1280700">
<ele>602.440002</ele>
<time>2025-05-22T20:06:26.260Z</time>
</trkpt>
<trkpt lat="31.7472800" lon="35.1279300">
<ele>601.799988</ele>
<time>2025-05-22T20:06:26.260Z</time>
</trkpt>
<trkpt lat="31.7472900" lon="35.1277800">
<ele>600.250000</ele>
<time>2025-05-22T20:06:26.260Z</time>
</trkpt>
<trkpt lat="31.7472700" lon="35.1276200">
<ele>600.619995</ele>
<time>2025-05-22T20:06:26.260Z</time>
</trkpt>
<trkpt lat="31.7471900" lon="35.1275400">
<ele>599.820007</ele>
<time>2025-05-22T20:06:26.260Z</time>
</trkpt>
<trkpt lat="31.7469400" lon="35.1273900">
<ele>601.190002</ele>
<time>2025-05-22T20:06:26.260Z</time>
</trkpt>
<trkpt lat="31.7465100" lon="35.1270600">
<ele>600.460022</ele>
<time>2025-05-22T20:06:26.260Z</time>
</trkpt>
<trkpt lat="31.7462500" lon="35.1269100">
<ele>597.690002</ele>
<time>2025-05-22T20:06:26.260Z</time>
</trkpt>
<trkpt lat="31.7461400" lon="35.1268100">
<ele>596.049988</ele>
<time>2025-05-22T20:06:26.260Z</time>
</trkpt>
<trkpt lat="31.7460800" lon="35.1267200">
<ele>595.250000</ele>
<time>2025-05-22T20:06:26.260Z</time>
</trkpt>
<trkpt lat="31.7460400" lon="35.1266100">
<ele>594.160034</ele>
<time>2025-05-22T20:06:26.260Z</time>
</trkpt>
<trkpt lat="31.7460200" lon="35.1265000">
<ele>592.570007</ele>
<time>2025-05-22T20:06:26.260Z</time>
</trkpt>
<trkpt lat="31.7460100" lon="35.1263600">
<ele>590.669983</ele>
<time>2025-05-22T20:06:26.260Z</time>
</trkpt>
<trkpt lat="31.7460500" lon="35.1257500">
<ele>584.660034</ele>
<time>2025-05-22T20:06:26.260Z</time>
</trkpt>
<trkpt lat="31.7460400" lon="35.1256700">
<ele>584.660034</ele>
<time>2025-05-22T20:06:26.260Z</time>
</trkpt>
<trkpt lat="31.7459900" lon="35.1255200">
<ele>584.910034</ele>
<time>2025-05-22T20:06:26.260Z</time>
</trkpt>
<trkpt lat="31.7459200" lon="35.1254300">
<ele>585.340027</ele>
<time>2025-05-22T20:06:26.260Z</time>
</trkpt>
<trkpt lat="31.7458700" lon="35.1253700">
<ele>585.380005</ele>
<time>2025-05-22T20:06:26.260Z</time>
</trkpt>
<trkpt lat="31.7458000" lon="35.1252400">
<ele>585.760010</ele>
<time>2025-05-22T20:06:26.260Z</time>
</trkpt>
<trkpt lat="31.7457100" lon="35.1248500">
<ele>585.640015</ele>
<time>2025-05-22T20:06:26.260Z</time>
</trkpt>
<trkpt lat="31.7455800" lon="35.1244800">
<ele>583.559998</ele>
<time>2025-05-22T20:06:26.260Z</time>
</trkpt>
<trkpt lat="31.7453900" lon="35.1238000">
<ele>577.040039</ele>
<time>2025-05-22T20:06:26.260Z</time>
</trkpt>
<trkpt lat="31.7451000" lon="35.1231000">
<ele>569.639954</ele>
<time>2025-05-22T20:06:26.260Z</time>
</trkpt>
<trkpt lat="31.7450400" lon="35.1229400">
<ele>568.210022</ele>
<time>2025-05-22T20:06:26.260Z</time>
</trkpt>
<trkpt lat="31.7450000" lon="35.1227200">
<ele>568.210022</ele>
<time>2025-05-22T20:06:26.260Z</time>
</trkpt>
<trkpt lat="31.7449800" lon="35.1223900">
<ele>568.919983</ele>
<time>2025-05-22T20:06:26.260Z</time>
</trkpt>
<trkpt lat="31.7449500" lon="35.1222900">
<ele>568.630005</ele>
<time>2025-05-22T20:06:26.260Z</time>
</trkpt>
<trkpt lat="31.7448700" lon="35.1221800">
<ele>568.029968</ele>
<time>2025-05-22T20:06:26.260Z</time>
</trkpt>
<trkpt lat="31.7443000" lon="35.1217600">
<ele>568.390015</ele>
<time>2025-05-22T20:06:26.260Z</time>
</trkpt>
<trkpt lat="31.7437700" lon="35.1212600">
<ele>558.450012</ele>
<time>2025-05-22T20:06:26.260Z</time>
</trkpt>
<trkpt lat="31.7435800" lon="35.1210600">
<ele>557.500000</ele>
<time>2025-05-22T20:06:26.260Z</time>
</trkpt>
<trkpt lat="31.7429700" lon="35.1203500">
<ele>546.229980</ele>
<time>2025-05-22T20:06:26.260Z</time>
</trkpt>
<trkpt lat="31.7429100" lon="35.1203200">
<ele>544.280029</ele>
<time>2025-05-22T20:06:26.260Z</time>
</trkpt>
<trkpt lat="31.7423900" lon="35.1201900">
<ele>541.070007</ele>
<time>2025-05-22T20:06:26.260Z</time>
</trkpt>
<trkpt lat="31.7421600" lon="35.1201000">
<ele>539.660034</ele>
<time>2025-05-22T20:06:26.260Z</time>
</trkpt>
<trkpt lat="31.7419200" lon="35.1199500">
<ele>539.739990</ele>
<time>2025-05-22T20:06:26.260Z</time>
</trkpt>
<trkpt lat="31.7415100" lon="35.1197600">
<ele>537.010010</ele>
<time>2025-05-22T20:06:26.260Z</time>
</trkpt>
<trkpt lat="31.7407400" lon="35.1194200">
<ele>528.809998</ele>
<time>2025-05-22T20:06:26.260Z</time>
</trkpt>
<trkpt lat="31.7402600" lon="35.1192800">
<ele>532.000000</ele>
<time>2025-05-22T20:06:26.260Z</time>
</trkpt>
<trkpt lat="31.7399500" lon="35.1192500">
<ele>528.559998</ele>
<time>2025-05-22T20:06:26.260Z</time>
</trkpt>
<trkpt lat="31.7395100" lon="35.1191600">
<ele>518.350037</ele>
<time>2025-05-22T20:06:26.260Z</time>
</trkpt>
<trkpt lat="31.7387500" lon="35.1190500">
<ele>507.970001</ele>
<time>2025-05-22T20:06:26.260Z</time>
</trkpt>
<trkpt lat="31.7369200" lon="35.1188400">
<ele>508.110016</ele>
<time>2025-05-22T20:06:26.260Z</time>
</trkpt>
<trkpt lat="31.7367200" lon="35.1188000">
<ele>507.290009</ele>
<time>2025-05-22T20:06:26.260Z</time>
</trkpt>
<trkpt lat="31.7363700" lon="35.1186000">
<ele>501.789978</ele>
<time>2025-05-22T20:06:26.260Z</time>
</trkpt>
<trkpt lat="31.7364700" lon="35.1177700">
<ele>507.470001</ele>
<time>2025-05-22T20:06:26.260Z</time>
</trkpt>
<trkpt lat="31.7365300" lon="35.1175300">
<ele>508.529999</ele>
<time>2025-05-22T20:06:26.260Z</time>
</trkpt>
<trkpt lat="31.7365900" lon="35.1173600">
<ele>507.799988</ele>
<time>2025-05-22T20:06:26.260Z</time>
</trkpt>
<trkpt lat="31.7372600" lon="35.1163700">
<ele>515.260010</ele>
<time>2025-05-22T20:06:26.260Z</time>
</trkpt>
<trkpt lat="31.7373400" lon="35.1162000">
<ele>516.700012</ele>
<time>2025-05-22T20:06:26.260Z</time>
</trkpt>
<trkpt lat="31.7376000" lon="35.1154600">
<ele>517.159973</ele>
<time>2025-05-22T20:06:26.260Z</time>
</trkpt>
<trkpt lat="31.7376200" lon="35.1151200">
<ele>514.690002</ele>
<time>2025-05-22T20:06:26.260Z</time>
</trkpt>
<trkpt lat="31.7376700" lon="35.1148300">
<ele>513.669983</ele>
<time>2025-05-22T20:06:26.260Z</time>
</trkpt>
<trkpt lat="31.7378300" lon="35.1142900">
<ele>513.649963</ele>
<time>2025-05-22T20:06:26.260Z</time>
</trkpt>
<trkpt lat="31.7379800" lon="35.1139700">
<ele>513.779968</ele>
<time>2025-05-22T20:06:26.260Z</time>
</trkpt>
<trkpt lat="31.7381400" lon="35.1136900">
<ele>514.760010</ele>
<time>2025-05-22T20:06:26.260Z</time>
</trkpt>
<trkpt lat="31.7383700" lon="35.1133300">
<ele>513.590027</ele>
<time>2025-05-22T20:06:26.260Z</time>
</trkpt>
<trkpt lat="31.7387800" lon="35.1129000">
<ele>513.390015</ele>
<time>2025-05-22T20:06:26.260Z</time>
</trkpt>
<trkpt lat="31.7391400" lon="35.1126200">
<ele>509.130005</ele>
<time>2025-05-22T20:06:26.260Z</time>
</trkpt>
<trkpt lat="31.7394900" lon="35.1124500">
<ele>505.509979</ele>
<time>2025-05-22T20:06:26.260Z</time>
</trkpt>
<trkpt lat="31.7403000" lon="35.1121400">
<ele>507.489990</ele>
<time>2025-05-22T20:06:26.260Z</time>
</trkpt>
<trkpt lat="31.7405900" lon="35.1120100">
<ele>510.839996</ele>
<time>2025-05-22T20:06:26.260Z</time>
</trkpt>
<trkpt lat="31.7408300" lon="35.1118900">
<ele>514.940002</ele>
<time>2025-05-22T20:06:26.260Z</time>
</trkpt>
<trkpt lat="31.7409500" lon="35.1118100">
<ele>516.109985</ele>
<time>2025-05-22T20:06:26.260Z</time>
</trkpt>
<trkpt lat="31.7412900" lon="35.1115300">
<ele>519.219971</ele>
<time>2025-05-22T20:06:26.260Z</time>
</trkpt>
<trkpt lat="31.7417200" lon="35.1111200">
<ele>523.890015</ele>
<time>2025-05-22T20:06:26.260Z</time>
</trkpt>
<trkpt lat="31.7417700" lon="35.1110700">
<ele>525.200012</ele>
<time>2025-05-22T20:06:26.260Z</time>
</trkpt>
<trkpt lat="31.7419400" lon="35.1107800">
<ele>529.470032</ele>
<time>2025-05-22T20:06:26.260Z</time>
</trkpt>
<trkpt lat="31.7421300" lon="35.1103700">
<ele>532.900024</ele>
<time>2025-05-22T20:06:26.260Z</time>
</trkpt>
<trkpt lat="31.7423200" lon="35.1097700">
<ele>533.710022</ele>
<time>2025-05-22T20:06:26.260Z</time>
</trkpt>
<trkpt lat="31.7424400" lon="35.1089600">
<ele>530.619995</ele>
<time>2025-05-22T20:06:26.260Z</time>
</trkpt>
<trkpt lat="31.7424700" lon="35.1088800">
<ele>530.200012</ele>
<time>2025-05-22T20:06:26.260Z</time>
</trkpt>
<trkpt lat="31.7425200" lon="35.1088400">
<ele>530.190002</ele>
<time>2025-05-22T20:06:26.260Z</time>
</trkpt>
<trkpt lat="31.7426100" lon="35.1088400">
<ele>530.520020</ele>
<time>2025-05-22T20:06:26.260Z</time>
</trkpt>
<trkpt lat="31.7427900" lon="35.1088400">
<ele>531.130005</ele>
<time>2025-05-22T20:06:26.260Z</time>
</trkpt>
<trkpt lat="31.7430700" lon="35.1089300">
<ele>532.720032</ele>
<time>2025-05-22T20:06:26.260Z</time>
</trkpt>
<trkpt lat="31.7434800" lon="35.1091600">
<ele>533.469971</ele>
<time>2025-05-22T20:06:26.260Z</time>
</trkpt>
<trkpt lat="31.7435900" lon="35.1091800">
<ele>534.169983</ele>
<time>2025-05-22T20:06:26.260Z</time>
</trkpt>
<trkpt lat="31.7436600" lon="35.1091800">
<ele>535.279968</ele>
<time>2025-05-22T20:06:26.260Z</time>
</trkpt>
<trkpt lat="31.7437300" lon="35.1091200">
<ele>536.330017</ele>
<time>2025-05-22T20:06:26.260Z</time>
</trkpt>
<trkpt lat="31.7437800" lon="35.1090100">
<ele>536.739990</ele>
<time>2025-05-22T20:06:26.260Z</time>
</trkpt>
<trkpt lat="31.7438500" lon="35.1087400">
<ele>537.220032</ele>
<time>2025-05-22T20:06:26.260Z</time>
</trkpt>
<trkpt lat="31.7438900" lon="35.1086200">
<ele>538.030029</ele>
<time>2025-05-22T20:06:26.260Z</time>
</trkpt>
<trkpt lat="31.7439500" lon="35.1085300">
<ele>538.989990</ele>
<time>2025-05-22T20:06:26.260Z</time>
</trkpt>
<trkpt lat="31.7440400" lon="35.1083100">
<ele>538.500000</ele>
<time>2025-05-22T20:06:26.260Z</time>
</trkpt>
<trkpt lat="31.7441200" lon="35.1080900">
<ele>537.890015</ele>
<time>2025-05-22T20:06:26.260Z</time>
</trkpt>
<trkpt lat="31.7442000" lon="35.1079500">
<ele>536.929993</ele>
<time>2025-05-22T20:06:26.260Z</time>
</trkpt>
<trkpt lat="31.7443100" lon="35.1078500">
<ele>535.909973</ele>
<time>2025-05-22T20:06:26.260Z</time>
</trkpt>
<trkpt lat="31.7444300" lon="35.1078000">
<ele>535.320007</ele>
<time>2025-05-22T20:06:26.260Z</time>
</trkpt>
<trkpt lat="31.7444300" lon="35.1078100">
<ele>535.460022</ele>
<time>2025-05-22T20:06:26.260Z</time>
</trkpt>
<trkpt lat="31.7444900" lon="35.1077800">
<ele>534.549988</ele>
<time>2025-05-22T20:06:26.260Z</time>
</trkpt>
<trkpt lat="31.7446600" lon="35.1077600">
<ele>532.380005</ele>
<time>2025-05-22T20:06:26.260Z</time>
</trkpt>
<trkpt lat="31.7449400" lon="35.1077300">
<ele>532.840027</ele>
<time>2025-05-22T20:06:26.260Z</time>
</trkpt>
<trkpt lat="31.7451000" lon="35.1077100">
<ele>532.659973</ele>
<time>2025-05-22T20:06:26.260Z</time>
</trkpt>
<trkpt lat="31.7458400" lon="35.1075000">
<ele>529.019958</ele>
<time>2025-05-22T20:06:26.260Z</time>
</trkpt>
<trkpt lat="31.7463000" lon="35.1074000">
<ele>531.450012</ele>
<time>2025-05-22T20:06:26.260Z</time>
</trkpt>
<trkpt lat="31.7464000" lon="35.1073700">
<ele>532.710022</ele>
<time>2025-05-22T20:06:26.260Z</time>
</trkpt>
<trkpt lat="31.7465400" lon="35.1073000">
<ele>534.609985</ele>
<time>2025-05-22T20:06:26.260Z</time>
</trkpt>
<trkpt lat="31.7466800" lon="35.1071700">
<ele>536.540039</ele>
<time>2025-05-22T20:06:26.260Z</time>
</trkpt>
<trkpt lat="31.7467800" lon="35.1069900">
<ele>539.080017</ele>
<time>2025-05-22T20:06:26.260Z</time>
</trkpt>
<trkpt lat="31.7468400" lon="35.1067900">
<ele>540.470032</ele>
<time>2025-05-22T20:06:26.260Z</time>
</trkpt>
<trkpt lat="31.7468600" lon="35.1066200">
<ele>541.580017</ele>
<time>2025-05-22T20:06:26.260Z</time>
</trkpt>
<trkpt lat="31.7468600" lon="35.1065400">
<ele>542.270020</ele>
<time>2025-05-22T20:06:26.260Z</time>
</trkpt>
<trkpt lat="31.7468400" lon="35.1064600">
<ele>542.419983</ele>
<time>2025-05-22T20:06:26.260Z</time>
</trkpt>
<trkpt lat="31.7467900" lon="35.1063400">
<ele>542.859985</ele>
<time>2025-05-22T20:06:26.260Z</time>
</trkpt>
<trkpt lat="31.7467300" lon="35.1062400">
<ele>543.700012</ele>
<time>2025-05-22T20:06:26.260Z</time>
</trkpt>
<trkpt lat="31.7465200" lon="35.1060000">
<ele>547.479980</ele>
<time>2025-05-22T20:06:26.260Z</time>
</trkpt>
<trkpt lat="31.7463600" lon="35.1057700">
<ele>549.289978</ele>
<time>2025-05-22T20:06:26.260Z</time>
</trkpt>
<trkpt lat="31.7462500" lon="35.1055900">
<ele>549.500000</ele>
<time>2025-05-22T20:06:26.260Z</time>
</trkpt>
<trkpt lat="31.7461700" lon="35.1054100">
<ele>549.320007</ele>
<time>2025-05-22T20:06:26.260Z</time>
</trkpt>
<trkpt lat="31.7460900" lon="35.1051700">
<ele>548.979980</ele>
<time>2025-05-22T20:06:26.260Z</time>
</trkpt>
<trkpt lat="31.7460400" lon="35.1049700">
<ele>548.619995</ele>
<time>2025-05-22T20:06:26.260Z</time>
</trkpt>
<trkpt lat="31.7459700" lon="35.1045900">
<ele>547.460022</ele>
<time>2025-05-22T20:06:26.260Z</time>
</trkpt>
<trkpt lat="31.7459200" lon="35.1041700">
<ele>545.500000</ele>
<time>2025-05-22T20:06:26.260Z</time>
</trkpt>
<trkpt lat="31.7458800" lon="35.1040100">
<ele>546.040039</ele>
<time>2025-05-22T20:06:26.260Z</time>
</trkpt>
<trkpt lat="31.7458100" lon="35.1038100">
<ele>546.760010</ele>
<time>2025-05-22T20:06:26.260Z</time>
</trkpt>
<trkpt lat="31.7454500" lon="35.1031200">
<ele>551.489990</ele>
<time>2025-05-22T20:06:26.260Z</time>
</trkpt>
<trkpt lat="31.7452800" lon="35.1027000">
<ele>551.330017</ele>
<time>2025-05-22T20:06:26.260Z</time>
</trkpt>
<trkpt lat="31.7451800" lon="35.1023400">
<ele>551.169983</ele>
<time>2025-05-22T20:06:26.260Z</time>
</trkpt>
<trkpt lat="31.7454000" lon="35.1009100">
<ele>562.369995</ele>
<time>2025-05-22T20:06:26.260Z</time>
</trkpt>
<trkpt lat="31.7454400" lon="35.1006500">
<ele>563.950012</ele>
<time>2025-05-22T20:06:26.260Z</time>
</trkpt>
<trkpt lat="31.7454500" lon="35.1006500">
<ele>564.209961</ele>
<time>2025-05-22T20:06:26.260Z</time>
</trkpt>
<trkpt lat="31.7454600" lon="35.1005100">
<ele>564.650024</ele>
<time>2025-05-22T20:06:26.260Z</time>
</trkpt>
<trkpt lat="31.7455200" lon="35.1003200">
<ele>566.210022</ele>
<time>2025-05-22T20:06:26.260Z</time>
</trkpt>
<trkpt lat="31.7455500" lon="35.1002100">
<ele>566.390015</ele>
<time>2025-05-22T20:06:26.260Z</time>
</trkpt>
<trkpt lat="31.7456300" lon="35.1000900">
<ele>567.780029</ele>
<time>2025-05-22T20:06:26.260Z</time>
</trkpt>
<trkpt lat="31.7459800" lon="35.0996600">
<ele>571.929993</ele>
<time>2025-05-22T20:06:26.260Z</time>
</trkpt>
<trkpt lat="31.7460200" lon="35.0994800">
<ele>571.859985</ele>
<time>2025-05-22T20:06:26.260Z</time>
</trkpt>
<trkpt lat="31.7460300" lon="35.0993200">
<ele>572.540039</ele>
<time>2025-05-22T20:06:26.260Z</time>
</trkpt>
<trkpt lat="31.7460300" lon="35.0989600">
<ele>574.470032</ele>
<time>2025-05-22T20:06:26.260Z</time>
</trkpt>
<trkpt lat="31.7460200" lon="35.0988000">
<ele>574.580017</ele>
<time>2025-05-22T20:06:26.260Z</time>
</trkpt>
<trkpt lat="31.7460500" lon="35.0986500">
<ele>574.929993</ele>
<time>2025-05-22T20:06:26.260Z</time>
</trkpt>
<trkpt lat="31.7460600" lon="35.0983300">
<ele>571.210022</ele>
<time>2025-05-22T20:06:26.260Z</time>
</trkpt>
<trkpt lat="31.7460900" lon="35.0981100">
<ele>568.359985</ele>
<time>2025-05-22T20:06:26.260Z</time>
</trkpt>
<trkpt lat="31.7461600" lon="35.0979600">
<ele>566.899963</ele>
<time>2025-05-22T20:06:26.260Z</time>
</trkpt>
<trkpt lat="31.7462200" lon="35.0978700">
<ele>565.340027</ele>
<time>2025-05-22T20:06:26.260Z</time>
</trkpt>
<trkpt lat="31.7462800" lon="35.0978200">
<ele>564.000000</ele>
<time>2025-05-22T20:06:26.260Z</time>
</trkpt>
<trkpt lat="31.7464600" lon="35.0977500">
<ele>560.630005</ele>
<time>2025-05-22T20:06:26.260Z</time>
</trkpt>
<trkpt lat="31.7468000" lon="35.0977000">
<ele>557.039978</ele>
<time>2025-05-22T20:06:26.260Z</time>
</trkpt>
<trkpt lat="31.7469800" lon="35.0976400">
<ele>555.649963</ele>
<time>2025-05-22T20:06:26.260Z</time>
</trkpt>
<trkpt lat="31.7470300" lon="35.0976200">
<ele>555.380005</ele>
<time>2025-05-22T20:06:26.260Z</time>
</trkpt>
<trkpt lat="31.7472500" lon="35.0975100">
<ele>552.729980</ele>
<time>2025-05-22T20:06:26.260Z</time>
</trkpt>
<trkpt lat="31.7474100" lon="35.0974100">
<ele>552.739990</ele>
<time>2025-05-22T20:06:26.260Z</time>
</trkpt>
<trkpt lat="31.7474800" lon="35.0973600">
<ele>551.900024</ele>
<time>2025-05-22T20:06:26.260Z</time>
</trkpt>
<trkpt lat="31.7475400" lon="35.0973300">
<ele>551.869995</ele>
<time>2025-05-22T20:06:26.260Z</time>
</trkpt>
<trkpt lat="31.7479500" lon="35.0971300">
<ele>548.390015</ele>
<time>2025-05-22T20:06:26.260Z</time>
</trkpt>
<trkpt lat="31.7482700" lon="35.0970000">
<ele>542.719971</ele>
<time>2025-05-22T20:06:26.260Z</time>
</trkpt>
<trkpt lat="31.7483500" lon="35.0969400">
<ele>539.830017</ele>
<time>2025-05-22T20:06:26.260Z</time>
</trkpt>
<trkpt lat="31.7485800" lon="35.0968500">
<ele>537.029968</ele>
<time>2025-05-22T20:06:26.260Z</time>
</trkpt>
<trkpt lat="31.7489200" lon="35.0966800">
<ele>542.609985</ele>
<time>2025-05-22T20:06:26.260Z</time>
</trkpt>
<trkpt lat="31.7492500" lon="35.0964900">
<ele>542.539978</ele>
<time>2025-05-22T20:06:26.260Z</time>
</trkpt>
<trkpt lat="31.7493500" lon="35.0964600">
<ele>544.570007</ele>
<time>2025-05-22T20:06:26.260Z</time>
</trkpt>
<trkpt lat="31.7497300" lon="35.0964500">
<ele>550.380005</ele>
<time>2025-05-22T20:06:26.260Z</time>
</trkpt>
<trkpt lat="31.7498200" lon="35.0964100">
<ele>550.190002</ele>
<time>2025-05-22T20:06:26.260Z</time>
</trkpt>
<trkpt lat="31.7498800" lon="35.0963300">
<ele>548.770020</ele>
<time>2025-05-22T20:06:26.260Z</time>
</trkpt>
<trkpt lat="31.7499200" lon="35.0961800">
<ele>545.700012</ele>
<time>2025-05-22T20:06:26.260Z</time>
</trkpt>
<trkpt lat="31.7500800" lon="35.0957700">
<ele>538.850037</ele>
<time>2025-05-22T20:06:26.260Z</time>
</trkpt>
<trkpt lat="31.7502000" lon="35.0955700">
<ele>536.869995</ele>
<time>2025-05-22T20:06:26.260Z</time>
</trkpt>
<trkpt lat="31.7503100" lon="35.0954600">
<ele>536.479980</ele>
<time>2025-05-22T20:06:26.260Z</time>
</trkpt>
<trkpt lat="31.7505400" lon="35.0952600">
<ele>535.429993</ele>
<time>2025-05-22T20:06:26.260Z</time>
</trkpt>
<trkpt lat="31.7509400" lon="35.0950000">
<ele>533.150024</ele>
<time>2025-05-22T20:06:26.260Z</time>
</trkpt>
<trkpt lat="31.7514400" lon="35.0946100">
<ele>531.559998</ele>
<time>2025-05-22T20:06:26.260Z</time>
</trkpt>
<trkpt lat="31.7515400" lon="35.0945100">
<ele>532.659973</ele>
<time>2025-05-22T20:06:26.260Z</time>
</trkpt>
<trkpt lat="31.7518700" lon="35.0939900">
<ele>534.849976</ele>
<time>2025-05-22T20:06:26.260Z</time>
</trkpt>
<trkpt lat="31.7519900" lon="35.0937300">
<ele>535.130005</ele>
<time>2025-05-22T20:06:26.260Z</time>
</trkpt>
<trkpt lat="31.7520600" lon="35.0934200">
<ele>533.690002</ele>
<time>2025-05-22T20:06:26.260Z</time>
</trkpt>
<trkpt lat="31.7522200" lon="35.0922900">
<ele>532.399963</ele>
<time>2025-05-22T20:06:26.260Z</time>
</trkpt>
<trkpt lat="31.7522600" lon="35.0921600">
<ele>532.659973</ele>
<time>2025-05-22T20:06:26.260Z</time>
</trkpt>
<trkpt lat="31.7526600" lon="35.0910200">
<ele>523.940002</ele>
<time>2025-05-22T20:06:26.260Z</time>
</trkpt>
<trkpt lat="31.7527000" lon="35.0909300">
<ele>522.989990</ele>
<time>2025-05-22T20:06:26.260Z</time>
</trkpt>
<trkpt lat="31.7528600" lon="35.0907000">
<ele>523.190002</ele>
<time>2025-05-22T20:06:26.260Z</time>
</trkpt>
<trkpt lat="31.7529700" lon="35.0905500">
<ele>522.400024</ele>
<time>2025-05-22T20:06:26.260Z</time>
</trkpt>
<trkpt lat="31.7532900" lon="35.0902500">
<ele>532.529968</ele>
<time>2025-05-22T20:06:26.260Z</time>
</trkpt>
<trkpt lat="31.7533400" lon="35.0902300">
<ele>533.869995</ele>
<time>2025-05-22T20:06:26.260Z</time>
</trkpt>
<trkpt lat="31.7534400" lon="35.0902300">
<ele>534.450012</ele>
<time>2025-05-22T20:06:26.260Z</time>
</trkpt>
<trkpt lat="31.7536400" lon="35.0902400">
<ele>535.020020</ele>
<time>2025-05-22T20:06:26.260Z</time>
</trkpt>
<trkpt lat="31.7541800" lon="35.0904300">
<ele>526.890015</ele>
<time>2025-05-22T20:06:26.260Z</time>
</trkpt>
<trkpt lat="31.7545400" lon="35.0906500">
<ele>520.369995</ele>
<time>2025-05-22T20:06:26.260Z</time>
</trkpt>
<trkpt lat="31.7546500" lon="35.0907500">
<ele>518.580017</ele>
<time>2025-05-22T20:06:26.260Z</time>
</trkpt>
<trkpt lat="31.7547400" lon="35.0908600">
<ele>518.159973</ele>
<time>2025-05-22T20:06:26.260Z</time>
</trkpt>
<trkpt lat="31.7548900" lon="35.0912200">
<ele>523.589966</ele>
<time>2025-05-22T20:06:26.260Z</time>
</trkpt>
<trkpt lat="31.7549900" lon="35.0913900">
<ele>528.169983</ele>
<time>2025-05-22T20:06:26.260Z</time>
</trkpt>
<trkpt lat="31.7551100" lon="35.0914900">
<ele>528.919983</ele>
<time>2025-05-22T20:06:26.260Z</time>
</trkpt>
<trkpt lat="31.7552700" lon="35.0915400">
<ele>524.320007</ele>
<time>2025-05-22T20:06:26.260Z</time>
</trkpt>
<trkpt lat="31.7554100" lon="35.0915400">
<ele>520.869995</ele>
<time>2025-05-22T20:06:26.260Z</time>
</trkpt>
<trkpt lat="31.7555200" lon="35.0915200">
<ele>517.549988</ele>
<time>2025-05-22T20:06:26.260Z</time>
</trkpt>
<trkpt lat="31.7556400" lon="35.0914800">
<ele>515.690002</ele>
<time>2025-05-22T20:06:26.260Z</time>
</trkpt>
<trkpt lat="31.7558500" lon="35.0912700">
<ele>512.719971</ele>
<time>2025-05-22T20:06:26.260Z</time>
</trkpt>
<trkpt lat="31.7560500" lon="35.0912000">
<ele>511.959991</ele>
<time>2025-05-22T20:06:26.260Z</time>
</trkpt>
<trkpt lat="31.7561500" lon="35.0912000">
<ele>511.020020</ele>
<time>2025-05-22T20:06:26.260Z</time>
</trkpt>
<trkpt lat="31.7562500" lon="35.0912000">
<ele>508.619995</ele>
<time>2025-05-22T20:06:26.260Z</time>
</trkpt>
<trkpt lat="31.7564300" lon="35.0912500">
<ele>504.449982</ele>
<time>2025-05-22T20:06:26.260Z</time>
</trkpt>
<trkpt lat="31.7565100" lon="35.0913700">
<ele>503.720001</ele>
<time>2025-05-22T20:06:26.260Z</time>
</trkpt>
<trkpt lat="31.7565500" lon="35.0914800">
<ele>505.269989</ele>
<time>2025-05-22T20:06:26.260Z</time>
</trkpt>
<trkpt lat="31.7567000" lon="35.0922700">
<ele>522.010010</ele>
<time>2025-05-22T20:06:26.260Z</time>
</trkpt>
<trkpt lat="31.7567600" lon="35.0924600">
<ele>523.979980</ele>
<time>2025-05-22T20:06:26.260Z</time>
</trkpt>
<trkpt lat="31.7568800" lon="35.0927700">
<ele>528.989990</ele>
<time>2025-05-22T20:06:26.260Z</time>
</trkpt>
<trkpt lat="31.7569400" lon="35.0928600">
<ele>530.179993</ele>
<time>2025-05-22T20:06:26.260Z</time>
</trkpt>
<trkpt lat="31.7570800" lon="35.0930200">
<ele>529.650024</ele>
<time>2025-05-22T20:06:26.260Z</time>
</trkpt>
<trkpt lat="31.7576000" lon="35.0934800">
<ele>529.940002</ele>
<time>2025-05-22T20:06:26.260Z</time>
</trkpt>
<trkpt lat="31.7578200" lon="35.0936300">
<ele>527.070007</ele>
<time>2025-05-22T20:06:26.260Z</time>
</trkpt>
<trkpt lat="31.7580200" lon="35.0937100">
<ele>518.760010</ele>
<time>2025-05-22T20:06:26.260Z</time>
</trkpt>
<trkpt lat="31.7582200" lon="35.0938900">
<ele>518.000000</ele>
<time>2025-05-22T20:06:26.260Z</time>
</trkpt>
<trkpt lat="31.7582500" lon="35.0939800">
<ele>518.229980</ele>
<time>2025-05-22T20:06:26.260Z</time>
</trkpt>
<trkpt lat="31.7582500" lon="35.0942000">
<ele>518.539978</ele>
<time>2025-05-22T20:06:26.260Z</time>
</trkpt>
<trkpt lat="31.7582500" lon="35.0944100">
<ele>517.559998</ele>
<time>2025-05-22T20:06:26.260Z</time>
</trkpt>
<trkpt lat="31.7582300" lon="35.0945100">
<ele>516.460022</ele>
<time>2025-05-22T20:06:26.260Z</time>
</trkpt>
<trkpt lat="31.7581400" lon="35.0946600">
<ele>513.739990</ele>
<time>2025-05-22T20:06:26.260Z</time>
</trkpt>
<trkpt lat="31.7577700" lon="35.0949500">
<ele>512.619995</ele>
<time>2025-05-22T20:06:26.260Z</time>
</trkpt>
<trkpt lat="31.7572900" lon="35.0954300">
<ele>518.720032</ele>
<time>2025-05-22T20:06:26.260Z</time>
</trkpt>
<trkpt lat="31.7566100" lon="35.0959800">
<ele>525.780029</ele>
<time>2025-05-22T20:06:26.260Z</time>
</trkpt>
<trkpt lat="31.7555600" lon="35.0967400">
<ele>536.909973</ele>
<time>2025-05-22T20:06:26.260Z</time>
</trkpt>
<trkpt lat="31.7544000" lon="35.0977200">
<ele>547.160034</ele>
<time>2025-05-22T20:06:26.260Z</time>
</trkpt>
<trkpt lat="31.7540000" lon="35.0982300">
<ele>550.710022</ele>
<time>2025-05-22T20:06:26.260Z</time>
</trkpt>
<trkpt lat="31.7539000" lon="35.0983500">
<ele>551.470032</ele>
<time>2025-05-22T20:06:26.260Z</time>
</trkpt>
<trkpt lat="31.7537400" lon="35.0985400">
<ele>556.669983</ele>
<time>2025-05-22T20:06:26.260Z</time>
</trkpt>
<trkpt lat="31.7536100" lon="35.0987400">
<ele>561.330017</ele>
<time>2025-05-22T20:06:26.260Z</time>
</trkpt>
<trkpt lat="31.7536000" lon="35.0988000">
<ele>562.460022</ele>
<time>2025-05-22T20:06:26.260Z</time>
</trkpt>
<trkpt lat="31.7535900" lon="35.0988600">
<ele>563.519958</ele>
<time>2025-05-22T20:06:26.260Z</time>
</trkpt>
<trkpt lat="31.7535900" lon="35.0990200">
<ele>565.780029</ele>
<time>2025-05-22T20:06:26.260Z</time>
</trkpt>
<trkpt lat="31.7537600" lon="35.0998300">
<ele>569.059998</ele>
<time>2025-05-22T20:06:26.260Z</time>
</trkpt>
<trkpt lat="31.7538100" lon="35.1002600">
<ele>574.010010</ele>
<time>2025-05-22T20:06:26.260Z</time>
</trkpt>
<trkpt lat="31.7538500" lon="35.1003700">
<ele>575.510010</ele>
<time>2025-05-22T20:06:26.260Z</time>
</trkpt>
<trkpt lat="31.7539100" lon="35.1005000">
<ele>577.049988</ele>
<time>2025-05-22T20:06:26.260Z</time>
</trkpt>
<trkpt lat="31.7541700" lon="35.1007000">
<ele>576.989990</ele>
<time>2025-05-22T20:06:26.260Z</time>
</trkpt>
<trkpt lat="31.7542400" lon="35.1007800">
<ele>576.510010</ele>
<time>2025-05-22T20:06:26.260Z</time>
</trkpt>
<trkpt lat="31.7542800" lon="35.1008800">
<ele>576.770020</ele>
<time>2025-05-22T20:06:26.260Z</time>
</trkpt>
<trkpt lat="31.7542800" lon="35.1010100">
<ele>577.899963</ele>
<time>2025-05-22T20:06:26.260Z</time>
</trkpt>
<trkpt lat="31.7542900" lon="35.1012700">
<ele>580.380005</ele>
<time>2025-05-22T20:06:26.260Z</time>
</trkpt>
<trkpt lat="31.7542700" lon="35.1013700">
<ele>581.679993</ele>
<time>2025-05-22T20:06:26.260Z</time>
</trkpt>
<trkpt lat="31.7541800" lon="35.1017400">
<ele>581.390015</ele>
<time>2025-05-22T20:06:26.260Z</time>
</trkpt>
<trkpt lat="31.7540900" lon="35.1023500">
<ele>578.549988</ele>
<time>2025-05-22T20:06:26.260Z</time>
</trkpt>
<trkpt lat="31.7540200" lon="35.1025900">
<ele>579.169983</ele>
<time>2025-05-22T20:06:26.260Z</time>
</trkpt>
<trkpt lat="31.7539700" lon="35.1027700">
<ele>579.690002</ele>
<time>2025-05-22T20:06:26.260Z</time>
</trkpt>
<trkpt lat="31.7538200" lon="35.1031600">
<ele>578.970032</ele>
<time>2025-05-22T20:06:26.260Z</time>
</trkpt>
<trkpt lat="31.7537500" lon="35.1034400">
<ele>577.850037</ele>
<time>2025-05-22T20:06:26.260Z</time>
</trkpt>
<trkpt lat="31.7537200" lon="35.1035000">
<ele>577.419983</ele>
<time>2025-05-22T20:06:26.260Z</time>
</trkpt>
<trkpt lat="31.7534700" lon="35.1038800">
<ele>576.109985</ele>
<time>2025-05-22T20:06:26.260Z</time>
</trkpt>
<trkpt lat="31.7534300" lon="35.1040000">
<ele>575.809998</ele>
<time>2025-05-22T20:06:26.260Z</time>
</trkpt>
<trkpt lat="31.7534000" lon="35.1042600">
<ele>574.539978</ele>
<time>2025-05-22T20:06:26.260Z</time>
</trkpt>
<trkpt lat="31.7533800" lon="35.1044800">
<ele>573.820007</ele>
<time>2025-05-22T20:06:26.260Z</time>
</trkpt>
<trkpt lat="31.7534000" lon="35.1049700">
<ele>570.940002</ele>
<time>2025-05-22T20:06:26.260Z</time>
</trkpt>
<trkpt lat="31.7533800" lon="35.1051800">
<ele>569.760010</ele>
<time>2025-05-22T20:06:26.260Z</time>
</trkpt>
<trkpt lat="31.7532800" lon="35.1055400">
<ele>571.350037</ele>
<time>2025-05-22T20:06:26.260Z</time>
</trkpt>
<trkpt lat="31.7531900" lon="35.1059000">
<ele>571.500000</ele>
<time>2025-05-22T20:06:26.260Z</time>
</trkpt>
<trkpt lat="31.7531100" lon="35.1061600">
<ele>571.140015</ele>
<time>2025-05-22T20:06:26.260Z</time>
</trkpt>
<trkpt lat="31.7527300" lon="35.1070900">
<ele>573.409973</ele>
<time>2025-05-22T20:06:26.260Z</time>
</trkpt>
<trkpt lat="31.7526800" lon="35.1071700">
<ele>573.790039</ele>
<time>2025-05-22T20:06:26.260Z</time>
</trkpt>
<trkpt lat="31.7526100" lon="35.1072800">
<ele>574.080017</ele>
<time>2025-05-22T20:06:26.260Z</time>
</trkpt>
<trkpt lat="31.7524800" lon="35.1074200">
<ele>574.970032</ele>
<time>2025-05-22T20:06:26.260Z</time>
</trkpt>
<trkpt lat="31.7524200" lon="35.1075200">
<ele>575.089966</ele>
<time>2025-05-22T20:06:26.260Z</time>
</trkpt>
<trkpt lat="31.7523300" lon="35.1077400">
<ele>574.860046</ele>
<time>2025-05-22T20:06:26.260Z</time>
</trkpt>
<trkpt lat="31.7521600" lon="35.1080300">
<ele>574.869995</ele>
<time>2025-05-22T20:06:26.260Z</time>
</trkpt>
<trkpt lat="31.7517700" lon="35.1085400">
<ele>575.109985</ele>
<time>2025-05-22T20:06:26.260Z</time>
</trkpt>
<trkpt lat="31.7513100" lon="35.1090600">
<ele>574.049988</ele>
<time>2025-05-22T20:06:26.260Z</time>
</trkpt>
<trkpt lat="31.7512700" lon="35.1091300">
<ele>574.010010</ele>
<time>2025-05-22T20:06:26.260Z</time>
</trkpt>
<trkpt lat="31.7511900" lon="35.1092500">
<ele>574.979980</ele>
<time>2025-05-22T20:06:26.260Z</time>
</trkpt>
<trkpt lat="31.7511400" lon="35.1093700">
<ele>576.789978</ele>
<time>2025-05-22T20:06:26.260Z</time>
</trkpt>
<trkpt lat="31.7511000" lon="35.1095600">
<ele>579.580017</ele>
<time>2025-05-22T20:06:26.260Z</time>
</trkpt>
<trkpt lat="31.7511000" lon="35.1096500">
<ele>580.880005</ele>
<time>2025-05-22T20:06:26.260Z</time>
</trkpt>
<trkpt lat="31.7510900" lon="35.1098100">
<ele>582.820007</ele>
<time>2025-05-22T20:06:26.260Z</time>
</trkpt>
<trkpt lat="31.7510900" lon="35.1099800">
<ele>584.700012</ele>
<time>2025-05-22T20:06:26.260Z</time>
</trkpt>
<trkpt lat="31.7511600" lon="35.1101500">
<ele>584.549988</ele>
<time>2025-05-22T20:06:26.260Z</time>
</trkpt>
<trkpt lat="31.7513600" lon="35.1102900">
<ele>582.229980</ele>
<time>2025-05-22T20:06:26.260Z</time>
</trkpt>
<trkpt lat="31.7514100" lon="35.1103600">
<ele>580.739990</ele>
<time>2025-05-22T20:06:26.260Z</time>
</trkpt>
<trkpt lat="31.7514600" lon="35.1104600">
<ele>578.799988</ele>
<time>2025-05-22T20:06:26.260Z</time>
</trkpt>
<trkpt lat="31.7515100" lon="35.1105900">
<ele>577.440002</ele>
<time>2025-05-22T20:06:26.260Z</time>
</trkpt>
<trkpt lat="31.7515300" lon="35.1109000">
<ele>577.340027</ele>
<time>2025-05-22T20:06:26.260Z</time>
</trkpt>
<trkpt lat="31.7515400" lon="35.1113300">
<ele>576.809998</ele>
<time>2025-05-22T20:06:26.260Z</time>
</trkpt>
<trkpt lat="31.7515200" lon="35.1116800">
<ele>577.630005</ele>
<time>2025-05-22T20:06:26.260Z</time>
</trkpt>
<trkpt lat="31.7514400" lon="35.1121500">
<ele>580.659973</ele>
<time>2025-05-22T20:06:26.260Z</time>
</trkpt>
<trkpt lat="31.7512300" lon="35.1134200">
<ele>579.359985</ele>
<time>2025-05-22T20:06:26.260Z</time>
</trkpt>
<trkpt lat="31.7512000" lon="35.1135200">
<ele>579.130005</ele>
<time>2025-05-22T20:06:26.260Z</time>
</trkpt>
<trkpt lat="31.7511300" lon="35.1137200">
<ele>578.540039</ele>
<time>2025-05-22T20:06:26.260Z</time>
</trkpt>
<trkpt lat="31.7510600" lon="35.1138500">
<ele>577.460022</ele>
<time>2025-05-22T20:06:26.260Z</time>
</trkpt>
<trkpt lat="31.7507800" lon="35.1141900">
<ele>578.369995</ele>
<time>2025-05-22T20:06:26.260Z</time>
</trkpt>
<trkpt lat="31.7507700" lon="35.1143100">
<ele>580.299988</ele>
<time>2025-05-22T20:06:26.260Z</time>
</trkpt>
<trkpt lat="31.7507700" lon="35.1143800">
<ele>581.419983</ele>
<time>2025-05-22T20:06:26.260Z</time>
</trkpt>
<trkpt lat="31.7507900" lon="35.1144400">
<ele>582.239990</ele>
<time>2025-05-22T20:06:26.260Z</time>
</trkpt>
<trkpt lat="31.7511200" lon="35.1147200">
<ele>585.909973</ele>
<time>2025-05-22T20:06:26.260Z</time>
</trkpt>
<trkpt lat="31.7514000" lon="35.1151400">
<ele>585.380005</ele>
<time>2025-05-22T20:06:26.260Z</time>
</trkpt>
<trkpt lat="31.7517500" lon="35.1155800">
<ele>582.750000</ele>
<time>2025-05-22T20:06:26.260Z</time>
</trkpt>
<trkpt lat="31.7520600" lon="35.1161800">
<ele>572.169983</ele>
<time>2025-05-22T20:06:26.260Z</time>
</trkpt>
<trkpt lat="31.7522200" lon="35.1166700">
<ele>568.099976</ele>
<time>2025-05-22T20:06:26.260Z</time>
</trkpt>
<trkpt lat="31.7523300" lon="35.1168300">
<ele>568.330017</ele>
<time>2025-05-22T20:06:26.260Z</time>
</trkpt>
<trkpt lat="31.7523700" lon="35.1168600">
<ele>568.119995</ele>
<time>2025-05-22T20:06:26.260Z</time>
</trkpt>
<trkpt lat="31.7524200" lon="35.1168600">
<ele>567.690002</ele>
<time>2025-05-22T20:06:26.260Z</time>
</trkpt>
<trkpt lat="31.7525700" lon="35.1168600">
<ele>566.970032</ele>
<time>2025-05-22T20:06:26.260Z</time>
</trkpt>
<trkpt lat="31.7526600" lon="35.1168600">
<ele>566.929993</ele>
<time>2025-05-22T20:06:26.260Z</time>
</trkpt>
<trkpt lat="31.7529900" lon="35.1167200">
<ele>570.220032</ele>
<time>2025-05-22T20:06:26.260Z</time>
</trkpt>
<trkpt lat="31.7532200" lon="35.1165600">
<ele>574.960022</ele>
<time>2025-05-22T20:06:26.260Z</time>
</trkpt>
<trkpt lat="31.7533800" lon="35.1164900">
<ele>576.719971</ele>
<time>2025-05-22T20:06:26.260Z</time>
</trkpt>
<trkpt lat="31.7534400" lon="35.1164800">
<ele>577.260010</ele>
<time>2025-05-22T20:06:26.260Z</time>
</trkpt>
<trkpt lat="31.7535500" lon="35.1164800">
<ele>578.589966</ele>
<time>2025-05-22T20:06:26.260Z</time>
</trkpt>
<trkpt lat="31.7536100" lon="35.1165000">
<ele>579.390015</ele>
<time>2025-05-22T20:06:26.260Z</time>
</trkpt>
<trkpt lat="31.7536500" lon="35.1165700">
<ele>577.830017</ele>
<time>2025-05-22T20:06:26.260Z</time>
</trkpt>
<trkpt lat="31.7542300" lon="35.1180200">
<ele>566.330017</ele>
<time>2025-05-22T20:06:26.260Z</time>
</trkpt>
<trkpt lat="31.7542700" lon="35.1180500">
<ele>566.040039</ele>
<time>2025-05-22T20:06:26.260Z</time>
</trkpt>
<trkpt lat="31.7543300" lon="35.1180700">
<ele>565.580017</ele>
<time>2025-05-22T20:06:26.260Z</time>
</trkpt>
<trkpt lat="31.7544700" lon="35.1180900">
<ele>563.450012</ele>
<time>2025-05-22T20:06:26.260Z</time>
</trkpt>
<trkpt lat="31.7544700" lon="35.1180900">
<ele>563.450012</ele>
<time>2025-05-22T20:06:26.260Z</time>
</trkpt>
<trkpt lat="31.7544700" lon="35.1180900">
<ele>563.450012</ele>
<time>2025-05-22T20:06:26.260Z</time>
</trkpt>
<trkpt lat="31.7545500" lon="35.1181000">
<ele>561.359985</ele>
<time>2025-05-22T20:06:26.260Z</time>
</trkpt>
<trkpt lat="31.7548400" lon="35.1181800">
<ele>556.429993</ele>
<time>2025-05-22T20:06:26.260Z</time>
</trkpt>
<trkpt lat="31.7551900" lon="35.1183700">
<ele>554.210022</ele>
<time>2025-05-22T20:06:26.260Z</time>
</trkpt>
<trkpt lat="31.7553100" lon="35.1184500">
<ele>553.299988</ele>
<time>2025-05-22T20:06:26.260Z</time>
</trkpt>
<trkpt lat="31.7558300" lon="35.1188800">
<ele>556.809998</ele>
<time>2025-05-22T20:06:26.260Z</time>
</trkpt>
<trkpt lat="31.7559800" lon="35.1190600">
<ele>559.320007</ele>
<time>2025-05-22T20:06:26.260Z</time>
</trkpt>
<trkpt lat="31.7561300" lon="35.1193200">
<ele>562.709961</ele>
<time>2025-05-22T20:06:26.260Z</time>
</trkpt>
<trkpt lat="31.7562100" lon="35.1193900">
<ele>561.869995</ele>
<time>2025-05-22T20:06:26.260Z</time>
</trkpt>
<trkpt lat="31.7565200" lon="35.1196200">
<ele>557.399963</ele>
<time>2025-05-22T20:06:26.260Z</time>
</trkpt>
<trkpt lat="31.7566000" lon="35.1196900">
<ele>556.280029</ele>
<time>2025-05-22T20:06:26.260Z</time>
</trkpt>
<trkpt lat="31.7568000" lon="35.1199800">
<ele>552.470032</ele>
<time>2025-05-22T20:06:26.260Z</time>
</trkpt>
<trkpt lat="31.7569300" lon="35.1202200">
<ele>547.429993</ele>
<time>2025-05-22T20:06:26.260Z</time>
</trkpt>
<trkpt lat="31.7569900" lon="35.1203700">
<ele>546.969971</ele>
<time>2025-05-22T20:06:26.260Z</time>
</trkpt>
<trkpt lat="31.7570100" lon="35.1204800">
<ele>548.109985</ele>
<time>2025-05-22T20:06:26.260Z</time>
</trkpt>
<trkpt lat="31.7570200" lon="35.1206700">
<ele>550.359985</ele>
<time>2025-05-22T20:06:26.260Z</time>
</trkpt>
<trkpt lat="31.7570000" lon="35.1208400">
<ele>553.029968</ele>
<time>2025-05-22T20:06:26.260Z</time>
</trkpt>
<trkpt lat="31.7569600" lon="35.1210100">
<ele>555.150024</ele>
<time>2025-05-22T20:06:26.260Z</time>
</trkpt>
<trkpt lat="31.7568300" lon="35.1213000">
<ele>560.229980</ele>
<time>2025-05-22T20:06:26.260Z</time>
</trkpt>
<trkpt lat="31.7567800" lon="35.1214800">
<ele>563.600037</ele>
<time>2025-05-22T20:06:26.260Z</time>
</trkpt>
<trkpt lat="31.7567900" lon="35.1215500">
<ele>564.679993</ele>
<time>2025-05-22T20:06:26.260Z</time>
</trkpt>
<trkpt lat="31.7568500" lon="35.1216300">
<ele>565.039978</ele>
<time>2025-05-22T20:06:26.260Z</time>
</trkpt>
<trkpt lat="31.7569200" lon="35.1216700">
<ele>564.520020</ele>
<time>2025-05-22T20:06:26.260Z</time>
</trkpt>
<trkpt lat="31.7571500" lon="35.1217000">
<ele>557.409973</ele>
<time>2025-05-22T20:06:26.260Z</time>
</trkpt>
<trkpt lat="31.7576900" lon="35.1218200">
<ele>547.750000</ele>
<time>2025-05-22T20:06:26.260Z</time>
</trkpt>
<trkpt lat="31.7577800" lon="35.1218300">
<ele>546.840027</ele>
<time>2025-05-22T20:06:26.260Z</time>
</trkpt>
<trkpt lat="31.7577800" lon="35.1218300">
<ele>546.840027</ele>
<time>2025-05-22T20:06:26.260Z</time>
</trkpt>
<trkpt lat="31.7579300" lon="35.1218500">
<ele>544.679993</ele>
<time>2025-05-22T20:06:26.260Z</time>
</trkpt>
<trkpt lat="31.7581900" lon="35.1219200">
<ele>544.130005</ele>
<time>2025-05-22T20:06:26.260Z</time>
</trkpt>
<trkpt lat="31.7585800" lon="35.1219500">
<ele>543.250000</ele>
<time>2025-05-22T20:06:26.260Z</time>
</trkpt>
<trkpt lat="31.7588300" lon="35.1220200">
<ele>537.679993</ele>
<time>2025-05-22T20:06:26.260Z</time>
</trkpt>
<trkpt lat="31.7590500" lon="35.1221400">
<ele>538.989990</ele>
<time>2025-05-22T20:06:26.260Z</time>
</trkpt>
<trkpt lat="31.7591900" lon="35.1222800">
<ele>540.049988</ele>
<time>2025-05-22T20:06:26.260Z</time>
</trkpt>
<trkpt lat="31.7594100" lon="35.1224400">
<ele>536.690002</ele>
<time>2025-05-22T20:06:26.260Z</time>
</trkpt>
<trkpt lat="31.7594900" lon="35.1225600">
<ele>534.130005</ele>
<time>2025-05-22T20:06:26.260Z</time>
</trkpt>
<trkpt lat="31.7595500" lon="35.1227100">
<ele>531.359985</ele>
<time>2025-05-22T20:06:26.260Z</time>
</trkpt>
<trkpt lat="31.7595700" lon="35.1228100">
<ele>529.799988</ele>
<time>2025-05-22T20:06:26.260Z</time>
</trkpt>
<trkpt lat="31.7595300" lon="35.1229400">
<ele>528.619995</ele>
<time>2025-05-22T20:06:26.260Z</time>
</trkpt>
<trkpt lat="31.7594000" lon="35.1231200">
<ele>528.859985</ele>
<time>2025-05-22T20:06:26.260Z</time>
</trkpt>
<trkpt lat="31.7593400" lon="35.1232200">
<ele>529.029968</ele>
<time>2025-05-22T20:06:26.260Z</time>
</trkpt>
<trkpt lat="31.7593500" lon="35.1233000">
<ele>528.039978</ele>
<time>2025-05-22T20:06:26.260Z</time>
</trkpt>
<trkpt lat="31.7594300" lon="35.1233200">
<ele>525.599976</ele>
<time>2025-05-22T20:06:26.260Z</time>
</trkpt>
<trkpt lat="31.7595700" lon="35.1232600">
<ele>523.109985</ele>
<time>2025-05-22T20:06:26.260Z</time>
</trkpt>
<trkpt lat="31.7596300" lon="35.1232500">
<ele>521.789978</ele>
<time>2025-05-22T20:06:26.260Z</time>
</trkpt>
<trkpt lat="31.7599500" lon="35.1232100">
<ele>517.880005</ele>
<time>2025-05-22T20:06:26.260Z</time>
</trkpt>
<trkpt lat="31.7600100" lon="35.1232400">
<ele>517.140015</ele>
<time>2025-05-22T20:06:26.260Z</time>
</trkpt>
<trkpt lat="31.7600400" lon="35.1232800">
<ele>516.440002</ele>
<time>2025-05-22T20:06:26.260Z</time>
</trkpt>
<trkpt lat="31.7598500" lon="35.1235000">
<ele>517.380005</ele>
<time>2025-05-22T20:06:26.260Z</time>
</trkpt>
<trkpt lat="31.7599300" lon="35.1235800">
<ele>517.500000</ele>
<time>2025-05-22T20:06:26.260Z</time>
</trkpt>
<trkpt lat="31.7601700" lon="35.1234200">
<ele>514.630005</ele>
<time>2025-05-22T20:06:26.260Z</time>
</trkpt>
<trkpt lat="31.7603500" lon="35.1232900">
<ele>511.399994</ele>
<time>2025-05-22T20:06:26.260Z</time>
</trkpt>
<trkpt lat="31.7604500" lon="35.1231900">
<ele>510.119995</ele>
<time>2025-05-22T20:06:26.260Z</time>
</trkpt>
<trkpt lat="31.7608600" lon="35.1227300">
<ele>499.600006</ele>
<time>2025-05-22T20:06:26.260Z</time>
</trkpt>
<trkpt lat="31.7610300" lon="35.1225200">
<ele>496.680023</ele>
<time>2025-05-22T20:06:26.260Z</time>
</trkpt>
<trkpt lat="31.7611300" lon="35.1223400">
<ele>496.430023</ele>
<time>2025-05-22T20:06:26.260Z</time>
</trkpt>
<trkpt lat="31.7612100" lon="35.1221000">
<ele>495.639984</ele>
<time>2025-05-22T20:06:26.260Z</time>
</trkpt>
<trkpt lat="31.7612800" lon="35.1215300">
<ele>490.650024</ele>
<time>2025-05-22T20:06:26.260Z</time>
</trkpt>
<trkpt lat="31.7613700" lon="35.1212900">
<ele>486.049988</ele>
<time>2025-05-22T20:06:26.260Z</time>
</trkpt>
<trkpt lat="31.7613700" lon="35.1212900">
<ele>486.049988</ele>
<time>2025-05-22T20:06:26.260Z</time>
</trkpt>
<trkpt lat="31.7613700" lon="35.1212900">
<ele>486.049988</ele>
<time>2025-05-22T20:06:26.260Z</time>
</trkpt>
<trkpt lat="31.7616000" lon="35.1206400">
<ele>479.529999</ele>
<time>2025-05-22T20:06:26.260Z</time>
</trkpt>
<trkpt lat="31.7616300" lon="35.1205300">
<ele>478.869995</ele>
<time>2025-05-22T20:06:26.260Z</time>
</trkpt>
<trkpt lat="31.7617000" lon="35.1203100">
<ele>478.790009</ele>
<time>2025-05-22T20:06:26.260Z</time>
</trkpt>
<trkpt lat="31.7617600" lon="35.1201600">
<ele>477.819977</ele>
<time>2025-05-22T20:06:26.260Z</time>
</trkpt>
<trkpt lat="31.7620600" lon="35.1195700">
<ele>471.080017</ele>
<time>2025-05-22T20:06:26.260Z</time>
</trkpt>
<trkpt lat="31.7621600" lon="35.1194000">
<ele>470.250000</ele>
<time>2025-05-22T20:06:26.260Z</time>
</trkpt>
<trkpt lat="31.7626600" lon="35.1198800">
<ele>474.730011</ele>
<time>2025-05-22T20:06:26.260Z</time>
</trkpt>
<trkpt lat="31.7627200" lon="35.1198300">
<ele>473.300018</ele>
<time>2025-05-22T20:06:26.260Z</time>
</trkpt>
<trkpt lat="31.7627400" lon="35.1196900">
<ele>471.200012</ele>
<time>2025-05-22T20:06:26.260Z</time>
</trkpt>
<trkpt lat="31.7628900" lon="35.1196900">
<ele>469.179993</ele>
<time>2025-05-22T20:06:26.260Z</time>
</trkpt>
<trkpt lat="31.7629600" lon="35.1195800">
<ele>467.850006</ele>
<time>2025-05-22T20:06:26.260Z</time>
</trkpt>
<trkpt lat="31.7630200" lon="35.1193000">
<ele>469.850006</ele>
<time>2025-05-22T20:06:26.260Z</time>
</trkpt>
<trkpt lat="31.7632600" lon="35.1195800">
<ele>470.000000</ele>
<time>2025-05-22T20:06:26.260Z</time>
</trkpt>
<trkpt lat="31.7634000" lon="35.1197400">
<ele>469.550018</ele>
<time>2025-05-22T20:06:26.260Z</time>
</trkpt>
<trkpt lat="31.7635300" lon="35.1199400">
<ele>471.390015</ele>
<time>2025-05-22T20:06:26.260Z</time>
</trkpt>
<trkpt lat="31.7636600" lon="35.1202300">
<ele>472.249969</ele>
<time>2025-05-22T20:06:26.260Z</time>
</trkpt>
<trkpt lat="31.7637000" lon="35.1205500">
<ele>472.769989</ele>
<time>2025-05-22T20:06:26.260Z</time>
</trkpt>
<trkpt lat="31.7637700" lon="35.1213400">
<ele>471.699982</ele>
<time>2025-05-22T20:06:26.260Z</time>
</trkpt>
<trkpt lat="31.7638000" lon="35.1222300">
<ele>470.060028</ele>
<time>2025-05-22T20:06:26.260Z</time>
</trkpt>
<trkpt lat="31.7638500" lon="35.1227700">
<ele>468.630005</ele>
<time>2025-05-22T20:06:26.260Z</time>
</trkpt>
<trkpt lat="31.7639700" lon="35.1236000">
<ele>471.720001</ele>
<time>2025-05-22T20:06:26.260Z</time>
</trkpt>
<trkpt lat="31.7640300" lon="35.1238000">
<ele>474.100006</ele>
<time>2025-05-22T20:06:26.260Z</time>
</trkpt>
<trkpt lat="31.7640800" lon="35.1240800">
<ele>475.849976</ele>
<time>2025-05-22T20:06:26.260Z</time>
</trkpt>
<trkpt lat="31.7641100" lon="35.1243800">
<ele>477.910004</ele>
<time>2025-05-22T20:06:26.260Z</time>
</trkpt>
<trkpt lat="31.7641000" lon="35.1245100">
<ele>478.230011</ele>
<time>2025-05-22T20:06:26.260Z</time>
</trkpt>
<trkpt lat="31.7640000" lon="35.1249000">
<ele>475.940002</ele>
<time>2025-05-22T20:06:26.260Z</time>
</trkpt>
<trkpt lat="31.7639000" lon="35.1251700">
<ele>471.269989</ele>
<time>2025-05-22T20:06:26.260Z</time>
</trkpt>
<trkpt lat="31.7636100" lon="35.1257800">
<ele>468.560028</ele>
<time>2025-05-22T20:06:26.260Z</time>
</trkpt>
<trkpt lat="31.7635400" lon="35.1259700">
<ele>467.830017</ele>
<time>2025-05-22T20:06:26.260Z</time>
</trkpt>
<trkpt lat="31.7634900" lon="35.1261500">
<ele>468.439972</ele>
<time>2025-05-22T20:06:26.260Z</time>
</trkpt>
<trkpt lat="31.7634100" lon="35.1268300">
<ele>474.119995</ele>
<time>2025-05-22T20:06:26.260Z</time>
</trkpt>
<trkpt lat="31.7634100" lon="35.1269900">
<ele>475.039978</ele>
<time>2025-05-22T20:06:26.260Z</time>
</trkpt>
<trkpt lat="31.7634500" lon="35.1271500">
<ele>476.310028</ele>
<time>2025-05-22T20:06:26.260Z</time>
</trkpt>
<trkpt lat="31.7635400" lon="35.1272600">
<ele>477.609985</ele>
<time>2025-05-22T20:06:26.260Z</time>
</trkpt>
<trkpt lat="31.7637200" lon="35.1274500">
<ele>476.109985</ele>
<time>2025-05-22T20:06:26.260Z</time>
</trkpt>
<trkpt lat="31.7638500" lon="35.1275500">
<ele>475.549988</ele>
<time>2025-05-22T20:06:26.260Z</time>
</trkpt>
<trkpt lat="31.7642000" lon="35.1277400">
<ele>467.040009</ele>
<time>2025-05-22T20:06:26.260Z</time>
</trkpt>
<trkpt lat="31.7643300" lon="35.1278100">
<ele>467.350006</ele>
<time>2025-05-22T20:06:26.260Z</time>
</trkpt>
<trkpt lat="31.7644300" lon="35.1278500">
<ele>468.750000</ele>
<time>2025-05-22T20:06:26.260Z</time>
</trkpt>
<trkpt lat="31.7645500" lon="35.1278700">
<ele>468.059998</ele>
<time>2025-05-22T20:06:26.260Z</time>
</trkpt>
<trkpt lat="31.7647900" lon="35.1278600">
<ele>466.649994</ele>
<time>2025-05-22T20:06:26.260Z</time>
</trkpt>
<trkpt lat="31.7656700" lon="35.1276000">
<ele>470.400024</ele>
<time>2025-05-22T20:06:26.260Z</time>
</trkpt>
<trkpt lat="31.7660600" lon="35.1275100">
<ele>471.940002</ele>
<time>2025-05-22T20:06:26.260Z</time>
</trkpt>
<trkpt lat="31.7664800" lon="35.1275200">
<ele>478.899994</ele>
<time>2025-05-22T20:06:26.260Z</time>
</trkpt>
<trkpt lat="31.7666500" lon="35.1275500">
<ele>480.590027</ele>
<time>2025-05-22T20:06:26.260Z</time>
</trkpt>
<trkpt lat="31.7667700" lon="35.1275900">
<ele>482.779968</ele>
<time>2025-05-22T20:06:26.260Z</time>
</trkpt>
<trkpt lat="31.7670100" lon="35.1277300">
<ele>486.889984</ele>
<time>2025-05-22T20:06:26.260Z</time>
</trkpt>
<trkpt lat="31.7677500" lon="35.1282300">
<ele>483.540009</ele>
<time>2025-05-22T20:06:26.260Z</time>
</trkpt>
<trkpt lat="31.7680300" lon="35.1284500">
<ele>488.080017</ele>
<time>2025-05-22T20:06:26.260Z</time>
</trkpt>
<trkpt lat="31.7680800" lon="35.1285100">
<ele>488.139984</ele>
<time>2025-05-22T20:06:26.260Z</time>
</trkpt>
<trkpt lat="31.7681200" lon="35.1286000">
<ele>487.339996</ele>
<time>2025-05-22T20:06:26.260Z</time>
</trkpt>
<trkpt lat="31.7681900" lon="35.1288000">
<ele>486.529999</ele>
<time>2025-05-22T20:06:26.260Z</time>
</trkpt>
<trkpt lat="31.7683500" lon="35.1295200">
<ele>480.869995</ele>
<time>2025-05-22T20:06:26.260Z</time>
</trkpt>
<trkpt lat="31.7686000" lon="35.1303600">
<ele>485.099976</ele>
<time>2025-05-22T20:06:26.260Z</time>
</trkpt>
<trkpt lat="31.7686400" lon="35.1304300">
<ele>484.610016</ele>
<time>2025-05-22T20:06:26.260Z</time>
</trkpt>
<trkpt lat="31.7687300" lon="35.1305300">
<ele>482.630005</ele>
<time>2025-05-22T20:06:26.260Z</time>
</trkpt>
<trkpt lat="31.7688200" lon="35.1305900">
<ele>480.609985</ele>
<time>2025-05-22T20:06:26.260Z</time>
</trkpt>
<trkpt lat="31.7689600" lon="35.1306300">
<ele>477.790009</ele>
<time>2025-05-22T20:06:26.260Z</time>
</trkpt>
<trkpt lat="31.7692100" lon="35.1306900">
<ele>474.630005</ele>
<time>2025-05-22T20:06:26.260Z</time>
</trkpt>
<trkpt lat="31.7692100" lon="35.1306900">
<ele>474.630005</ele>
<time>2025-05-22T20:06:26.260Z</time>
</trkpt>
<trkpt lat="31.7692100" lon="35.1306900">
<ele>474.630005</ele>
<time>2025-05-22T20:06:26.260Z</time>
</trkpt>
<trkpt lat="31.7692100" lon="35.1306900">
<ele>474.630005</ele>
<time>2025-05-22T20:06:26.260Z</time>
</trkpt>
<trkpt lat="31.7691800" lon="35.1306800">
<ele>474.479980</ele>
<time>2025-05-22T20:06:26.260Z</time>
</trkpt>
<trkpt lat="31.7691800" lon="35.1306800">
<ele>474.479980</ele>
<time>2025-05-22T20:06:26.260Z</time>
</trkpt>
</trkseg>
</trk>
</gpx>
